[[{"header":{"parameterUnit":"m.s-1","parameterCategory":1,"la1":30.6,"la2":28.766,"lo1":-90.7593,"lo2":-88.6598,"dy":0.0162,"dx":0.0183,"nx":116,"ny":114,"refTime":"2023-06-12T06:00:00:Z","depth":0,"parameterNumber":2,"parameterNumberName":"U-component_of_WINDS"},"data":[0.0,0.0,0.0,0.0,0.0,0.0,0.0,0.0,0.0,0.0,0.0,0.0,0.0,0.0,0.0,0.0,0.0,0.0,0.0,0.0,0.0,0.0,0.0,0.0,0.0,0.0,0.0,0.0,0.0,0.0,0.0,0.0,0.0,0.0,0.0,0.0,0.0,0.0,0.0,0.0,0.0,0.0,0.0,0.0,0.0,0.0,0.0,0.0,0.0,0.0,0.0,0.0,0.0,0.0,0.0,0.0,0.0,0.0,0.0,0.0,0.0,0.0,0.0,0.0,0.0,0.0,0.0,0.0,0.0,0.0,0.0,0.0,0.0,0.0,0.0,0.0,0.0,0.0,0.0,0.0,0.0,0.0,0.0,0.0,0.0,0.0,0.0,0.0,0.0,0.0,0.0,0.0,0.0,0.0,0.0,0.0,0.0,0.0,0.0,0.0,0.0,0.0,0.0,0.0,0.0,0.0,0.0,0.0,0.0,0.0,0.0,0.0,0.0,0.0,0.0,0.0,0.0,0.0,0.0,0.0,0.0,0.0,0.0,0.0,0.0,0.0,0.0,0.0,0.0,0.0,0.0,0.0,0.0,0.0,0.0,0.0,0.0,0.0,0.0,0.0,0.0,0.0,0.0,0.0,0.0,0.0,0.0,0.0,0.0,0.0,0.0,0.0,0.0,0.0,0.0,0.0,0.0,0.0,0.0,0.0,0.0,0.0,0.0,0.0,0.0,0.0,0.0,0.0,0.0,0.0,0.0,0.0,0.0,0.0,0.0,0.0,0.0,0.0,0.0,0.0,0.0,0.0,0.0,0.0,0.0,0.0,0.0,0.0,0.0,0.0,0.0,0.0,0.0,0.0,0.0,0.0,0.0,0.0,0.0,0.0,0.0,0.0,0.0,0.0,0.0,0.0,0.0,0.0,0.0,0.0,0.0,0.0,0.0,0.0,0.0,0.0,0.0,0.0,0.0,0.0,0.0,0.0,0.0,0.0,0.0,0.0,0.0,0.0,0.0,0.0,0.0,0.0,0.0,0.0,0.0,0.0,0.0,0.0,0.0,0.0,0.0,0.0,0.0,0.0,0.0,0.0,0.0,0.0,0.0,0.0,0.0,0.0,0.0,0.0,0.0,0.0,0.0,0.0,0.0,0.0,0.0,0.0,0.0,0.0,0.0,0.0,0.0,0.0,0.0,0.0,0.0,0.0,0.0,0.0,0.0,0.0,0.0,0.0,0.0,0.0,0.0,0.0,0.0,0.0,0.0,0.0,0.0,0.0,0.0,0.0,0.0,0.0,0.0,0.0,0.0,0.0,0.0,0.0,0.0,0.0,0.0,0.0,0.0,0.0,0.0,0.0,0.0,0.0,0.0,0.0,0.0,0.0,0.0,0.0,0.0,0.0,0.0,0.0,0.0,0.0,0.0,0.0,0.0,0.0,0.0,0.0,0.0,0.0,0.0,0.0,0.0,0.0,0.0,0.0,0.0,0.0,0.0,0.0,0.0,0.0,0.0,0.0,0.0,0.0,0.0,0.0,0.0,0.0,0.0,0.0,0.0,0.0,0.0,0.0,0.0,0.0,0.0,0.0,0.0,0.0,0.0,0.0,0.0,0.0,0.0,0.0,0.0,0.0,0.0,0.0,0.0,0.0,0.0,0.0,0.0,0.0,0.0,0.0,0.0,0.0,0.0,0.0,0.0,0.0,0.0,0.0,0.0,0.0,0.0,0.0,0.0,0.0,0.0,0.0,0.0,0.0,0.0,0.0,0.0,0.0,0.0,0.0,0.0,0.0,0.0,0.0,0.0,0.0,0.0,0.0,0.0,0.0,0.0,0.0,0.0,0.0,0.0,0.0,0.0,0.0,0.0,0.0,0.0,0.0,0.0,0.0,0.0,0.0,0.0,0.0,0.0,0.0,0.0,0.0,0.0,0.0,0.0,0.0,0.0,0.0,0.0,0.0,0.0,0.0,0.0,0.0,0.0,0.0,0.0,0.0,0.0,0.0,0.0,0.0,0.0,0.0,0.0,0.0,0.0,0.0,0.0,0.0,0.0,0.0,0.0,0.0,0.0,0.0,0.0,0.0,0.0,0.0,0.0,0.0,0.0,0.0,0.0,0.0,0.0,0.0,0.0,0.0,0.0,0.0,0.0,0.0,0.0,0.0,0.0,0.0,0.0,0.0,0.0,0.0,0.0,0.0,0.0,0.0,0.0,0.0,0.0,0.0,0.0,0.0,0.0,0.0,0.0,0.0,0.0,0.0,0.0,0.0,0.0,0.0,0.0,0.0,0.0,0.0,0.0,0.0,0.0,0.0,0.0,0.0,0.0,0.0,0.0,0.0,0.0,0.0,0.0,0.0,0.0,0.0,0.0,0.0,0.0,0.0,0.0,0.0,0.0,0.0,0.0,0.0,0.0,0.0,0.0,0.0,0.0,0.0,0.0,0.0,0.0,0.0,0.0,0.0,0.0,0.0,0.0,0.0,0.0,0.0,0.0,0.0,0.0,0.0,0.0,0.0,0.0,0.0,0.0,0.0,0.0,0.0,0.0,0.0,0.0,0.0,0.0,0.0,0.0,0.0,0.0,0.0,0.0,0.0,0.0,0.0,0.0,0.0,0.0,0.0,0.0,0.0,0.0,0.0,0.0,0.0,0.0,0.0,0.0,0.0,0.0,0.0,0.0,0.0,0.0,0.0,0.0,0.0,0.0,0.0,0.0,0.0,0.0,0.0,0.0,0.0,0.0,0.0,0.0,0.0,0.0,0.0,0.0,0.0,0.0,0.0,0.0,0.0,0.0,0.0,0.0,0.0,0.0,0.0,0.0,0.0,0.0,0.0,0.0,0.0,0.0,0.0,0.0,0.0,0.0,0.0,0.0,0.0,0.0,0.0,0.0,0.0,0.0,0.0,0.0,0.0,0.0,0.0,0.0,0.0,0.0,0.0,0.0,0.0,0.0,0.0,0.0,0.0,0.0,0.0,0.0,0.0,0.0,0.0,0.0,0.0,0.0,0.0,0.0,0.0,0.0,0.0,0.0,0.0,0.0,0.0,0.0,0.0,0.0,0.0,0.0,0.0,0.0,0.0,0.0,0.0,0.0,0.0,0.0,0.0,0.0,0.0,0.0,0.0,0.0,0.0,0.0,0.0,0.0,0.0,0.0,0.0,0.0,0.0,0.0,0.0,0.0,0.0,0.0,0.0,0.0,0.0,0.0,0.0,0.0,0.0,0.0,0.0,0.0,0.0,0.0,0.0,0.0,0.0,0.0,0.0,0.0,0.0,0.0,0.0,0.0,0.0,0.0,0.0,0.0,0.0,0.0,0.0,0.0,0.0,0.0,0.0,0.0,0.0,0.0,0.0,0.0,0.0,0.0,0.0,0.0,0.0,0.0,0.0,0.0,0.0,0.0,0.0,0.0,0.0,0.0,0.0,0.0,0.0,0.0,0.0,0.0,0.0,0.0,0.0,0.0,0.0,0.0,0.0,0.0,0.0,0.0,0.0,0.0,0.0,0.0,0.0,0.0,0.0,0.0,0.0,0.0,0.0,0.0,0.0,0.0,0.0,0.0,0.0,0.0,0.0,0.0,0.0,0.0,0.0,0.0,0.0,0.0,0.0,0.0,0.0,0.0,0.0,0.0,0.0,0.0,0.0,0.0,0.0,0.0,0.0,0.0,0.0,0.0,0.0,0.0,0.0,0.0,0.0,0.0,0.0,0.0,0.0,0.0,0.0,0.0,0.0,0.0,0.0,0.0,0.0,0.0,0.0,0.0,0.0,0.0,0.0,0.0,0.0,0.0,0.0,0.0,0.0,0.0,0.0,0.0,0.0,0.0,0.0,0.0,0.0,0.0,0.0,0.0,0.0,0.0,0.0,0.0,0.0,0.0,0.0,0.0,0.0,0.0,0.0,0.0,0.0,0.0,0.0,0.0,0.0,0.0,0.0,0.0,0.0,0.0,0.0,0.0,0.0,0.0,0.0,0.0,0.0,0.0,0.0,0.0,0.0,0.0,0.0,0.0,0.0,0.0,0.0,0.0,0.0,0.0,0.0,0.0,0.0,0.0,0.0,0.0,0.0,0.0,0.0,0.0,0.0,0.0,0.0,0.0,0.0,0.0,0.0,0.0,0.0,0.0,0.0,0.0,0.0,0.0,0.0,0.0,0.0,0.0,0.0,0.0,0.0,0.0,0.0,0.0,0.0,0.0,0.0,0.0,0.0,0.0,0.0,0.0,0.0,0.0,0.0,0.0,0.0,0.0,0.0,0.0,0.0,0.0,0.0,0.0,0.0,0.0,0.0,0.0,0.0,0.0,0.0,0.0,0.0,0.0,0.0,0.0,0.0,0.0,0.0,0.0,0.0,0.0,0.0,0.0,0.0,0.0,0.0,0.0,0.0,0.0,0.0,0.0,0.0,0.0,0.0,0.0,0.0,0.0,0.0,0.0,0.0,0.0,0.0,0.0,0.0,0.0,0.0,0.0,0.0,0.0,0.0,0.0,0.0,0.0,0.0,0.0,0.0,0.0,0.0,0.0,0.0,0.0,0.0,0.0,0.0,0.0,0.0,0.0,0.0,0.0,0.0,0.0,0.0,0.0,0.0,0.0,0.0,0.0,0.0,0.0,0.0,0.0,0.0,0.0,0.0,0.0,0.0,0.0,0.0,0.0,0.0,0.0,0.0,0.0,0.0,0.0,0.0,0.0,0.0,0.0,0.0,0.0,0.0,0.0,0.0,0.0,0.0,0.0,0.0,0.0,0.0,0.0,0.0,0.0,0.0,0.0,0.0,0.0,0.0,0.0,0.0,0.0,0.0,0.0,0.0,0.0,0.0,0.0,0.0,0.0,0.0,0.0,0.0,0.0,0.0,0.0,0.0,0.0,0.0,0.0,0.0,0.0,0.0,0.0,0.0,0.0,0.0,0.0,0.0,0.0,0.0,0.0,0.0,0.0,0.0,0.0,0.0,0.0,0.0,0.0,0.0,0.0,0.0,0.0,0.0,0.0,0.0,0.0,0.0,0.0,0.0,0.0,0.0,0.0,0.0,0.0,0.0,0.0,0.0,0.0,0.0,0.0,0.0,0.0,0.0,0.0,0.0,0.0,0.0,0.0,0.0,0.0,0.0,0.0,0.0,0.0,0.0,0.0,0.0,0.0,0.0,0.0,0.0,0.0,0.0,0.0,0.0,0.0,0.0,0.0,0.0,0.0,0.0,0.0,0.0,0.0,0.0,0.0,0.0,0.0,0.0,0.0,0.0,0.0,0.0,0.0,0.0,0.0,0.0,0.0,0.0,0.0,0.0,0.0,0.0,0.0,0.0,0.0,0.0,0.0,0.0,0.0,0.0,0.0,0.0,0.0,0.0,0.0,0.0,0.0,0.0,0.0,0.0,0.0,0.0,0.0,0.0,0.0,0.0,0.0,0.0,0.0,0.0,0.0,0.0,0.0,0.0,0.0,0.0,0.0,0.0,0.0,0.0,0.0,0.0,0.0,0.0,0.0,0.0,0.0,0.0,0.0,0.0,0.0,0.0,0.0,0.0,0.0,0.0,0.0,0.0,0.0,0.0,0.0,0.0,0.0,0.0,0.0,0.0,0.0,0.0,0.0,0.0,0.0,0.0,0.0,0.0,0.0,0.0,0.0,0.0,0.0,0.0,0.0,0.0,0.0,0.0,0.0,0.0,0.0,0.0,0.0,0.0,0.0,0.0,0.0,0.0,0.0,0.0,0.0,0.0,0.0,0.0,0.0,0.0,0.0,0.0,0.0,0.0,0.0,0.0,0.0,0.0,0.0,0.0,0.0,0.0,0.0,0.0,0.0,0.0,0.0,0.0,0.0,0.0,0.0,0.0,0.0,0.0,0.0,0.0,0.0,0.0,0.0,0.0,0.0,0.0,0.0,0.0,0.0,0.0,0.0,0.0,0.0,0.0,0.0,0.0,0.0,0.0,0.0,0.0,0.0,0.0,0.0,0.0,0.0,0.0,0.0,0.0,0.0,0.0,0.0,0.0,0.0,0.0,0.0,0.0,0.0,0.0,0.0,0.0,0.0,0.0,0.0,0.0,0.0,0.0,0.0,0.0,0.0,0.0,0.0,0.0,0.0,0.0,0.0,0.0,-4.8769,0.0,0.0,0.0,0.0,0.0,0.0,0.0,0.0,0.0,0.0,0.0,0.0,0.0,0.0,0.0,0.0,0.0,0.0,0.0,0.0,0.0,0.0,0.0,0.0,0.0,0.0,0.0,0.0,0.0,0.0,0.0,0.0,0.0,0.0,0.0,0.0,0.0,0.0,0.0,0.0,0.0,0.0,0.0,0.0,0.0,0.0,0.0,0.0,0.0,0.0,0.0,0.0,0.0,0.0,0.0,0.0,0.0,0.0,0.0,0.0,0.0,0.0,0.0,0.0,0.0,0.0,0.0,0.0,0.0,0.0,0.0,0.0,0.0,0.0,0.0,0.0,0.0,0.0,0.0,0.0,0.0,0.0,0.0,0.0,0.0,0.0,0.0,0.0,0.0,0.0,0.0,0.0,0.0,0.0,0.0,0.0,0.0,0.0,0.0,0.0,0.0,0.0,0.0,0.0,0.0,0.0,0.0,0.0,0.0,0.0,0.0,0.0,0.0,0.0,0.0,0.0,-5.0307,0.0,0.0,0.0,0.0,0.0,0.0,0.0,0.0,0.0,0.0,0.0,0.0,0.0,0.0,0.0,0.0,0.0,0.0,0.0,0.0,0.0,0.0,0.0,0.0,0.0,0.0,0.0,0.0,0.0,0.0,0.0,0.0,0.0,0.0,0.0,0.0,0.0,0.0,0.0,0.0,0.0,0.0,0.0,0.0,0.0,0.0,0.0,0.0,0.0,0.0,0.0,0.0,0.0,0.0,0.0,0.0,0.0,0.0,0.0,0.0,0.0,0.0,0.0,0.0,0.0,0.0,0.0,0.0,0.0,0.0,0.0,0.0,0.0,0.0,0.0,0.0,0.0,0.0,0.0,0.0,0.0,0.0,0.0,0.0,0.0,0.0,0.0,0.0,0.0,0.0,0.0,0.0,0.0,0.0,0.0,0.0,0.0,0.0,0.0,0.0,0.0,0.0,0.0,0.0,0.0,0.0,0.0,0.0,-5.3559,-5.4429,-5.5184,-5.5562,-5.6026,-5.6432,-5.3994,-5.2775,-5.2455,-5.2339,0.0,0.0,0.0,0.0,0.0,0.0,0.0,0.0,0.0,0.0,0.0,0.0,0.0,0.0,0.0,0.0,0.0,0.0,0.0,0.0,0.0,0.0,0.0,0.0,0.0,0.0,0.0,0.0,0.0,0.0,0.0,0.0,0.0,0.0,0.0,0.0,0.0,0.0,-4.6662,-4.7288,-4.7521,-4.7521,-4.694,0.0,0.0,0.0,0.0,0.0,0.0,0.0,0.0,0.0,0.0,0.0,0.0,0.0,0.0,0.0,0.0,0.0,0.0,0.0,0.0,0.0,0.0,0.0,0.0,0.0,0.0,0.0,0.0,0.0,0.0,0.0,0.0,0.0,0.0,0.0,0.0,0.0,0.0,0.0,0.0,0.0,0.0,0.0,-4.5663,-4.575,0.0,0.0,0.0,0.0,0.0,0.0,0.0,0.0,0.0,0.0,0.0,0.0,0.0,-5.2455,-5.3268,-5.4284,-5.5387,-5.6549,-5.62,-5.6665,-5.7797,-5.7274,-5.71,-5.7216,-5.7971,0.0,-5.5736,-5.5155,0.0,0.0,0.0,0.0,0.0,0.0,0.0,0.0,0.0,0.0,0.0,0.0,0.0,0.0,0.0,0.0,0.0,0.0,0.0,0.0,0.0,0.0,0.0,0.0,0.0,0.0,0.0,0.0,0.0,0.0,0.0,0.0,0.0,0.0,0.0,0.0,-4.633,-4.7288,-4.7851,-4.8537,-4.8856,-4.8827,-4.8566,-4.7869,-4.694,-4.6882,0.0,0.0,0.0,0.0,0.0,0.0,0.0,0.0,0.0,0.0,0.0,0.0,0.0,0.0,0.0,0.0,0.0,0.0,0.0,0.0,0.0,0.0,0.0,0.0,0.0,0.0,0.0,0.0,0.0,0.0,0.0,0.0,0.0,0.0,0.0,0.0,0.0,0.0,0.0,-4.6301,-4.6824,-4.6446,-4.6737,-4.6824,0.0,0.0,0.0,0.0,0.0,0.0,0.0,0.0,0.0,-5.3297,-5.4255,-5.5213,-5.62,-5.6752,-5.7681,-5.8929,-5.9045,-5.9771,-6.099,-6.07,-6.0758,-6.1106,-6.1338,-6.0729,-5.948,-5.7739,-5.6607,-5.591,0.0,0.0,0.0,0.0,-5.6432,-5.7071,0.0,0.0,0.0,0.0,0.0,0.0,0.0,0.0,0.0,0.0,0.0,0.0,0.0,0.0,0.0,0.0,0.0,0.0,0.0,0.0,0.0,0.0,0.0,0.0,0.0,0.0,0.0,0.0,-4.7811,-4.8856,-4.9494,-5.0278,-5.0656,-5.0656,-5.0481,-4.9485,-4.7753,-4.7433,-4.7097,0.0,0.0,0.0,0.0,0.0,0.0,0.0,0.0,0.0,0.0,0.0,0.0,0.0,0.0,0.0,0.0,0.0,0.0,0.0,0.0,0.0,0.0,0.0,0.0,0.0,0.0,0.0,0.0,0.0,0.0,0.0,0.0,0.0,0.0,0.0,0.0,0.0,0.0,-4.7114,-4.7724,-4.6865,-4.7666,-4.7956,0.0,0.0,0.0,0.0,0.0,0.0,-5.2281,-5.3268,-5.4662,-5.6578,-5.7274,-5.8232,-5.951,-5.9684,-6.0409,-6.1658,-6.2006,-6.2761,-6.3806,-6.3661,-6.3835,-6.4241,-6.3777,-6.3196,-6.2412,-6.0206,-5.861,-5.7565,-5.6897,-5.6926,-5.7361,-5.7216,-5.7739,-5.8552,0.0,0.0,0.0,0.0,0.0,0.0,0.0,0.0,0.0,0.0,0.0,0.0,0.0,0.0,0.0,0.0,0.0,0.0,0.0,0.0,0.0,0.0,0.0,0.0,0.0,0.0,0.0,-4.7695,-4.9582,-5.0859,-5.1497,-5.2746,-5.3326,-5.3297,-5.2688,-5.0685,-4.7811,-4.8391,-4.788,-4.6778,0.0,0.0,0.0,0.0,0.0,0.0,0.0,0.0,0.0,0.0,0.0,0.0,0.0,0.0,0.0,0.0,0.0,0.0,0.0,0.0,0.0,0.0,0.0,0.0,0.0,0.0,0.0,0.0,0.0,0.0,0.0,0.0,0.0,0.0,0.0,0.0,0.0,0.0,0.0,-4.6923,-4.8449,0.0,0.0,0.0,0.0,-5.1236,-5.1991,-5.3733,-5.681,-5.7042,-5.7942,-5.9887,-6.0613,-6.1571,-6.2848,-6.3457,-6.4323,-6.5635,-6.5083,-6.5141,-6.578,-6.517,-6.4909,-6.4938,-6.4909,-6.4532,-6.3772,-6.247,-6.1542,-6.0874,-6.0206,-5.9974,-5.9945,-5.9364,-5.919,-5.9248,0.0,0.0,0.0,0.0,0.0,0.0,0.0,0.0,0.0,0.0,0.0,0.0,0.0,0.0,0.0,0.0,0.0,0.0,0.0,0.0,0.0,0.0,0.0,0.0,0.0,0.0,-4.8159,-4.9688,-5.1199,-5.2426,-5.35,-5.4342,-5.472,-5.472,-5.4081,-5.2949,-5.1352,-4.9524,-4.8431,-4.7938,-4.7126,-4.5789,0.0,0.0,0.0,0.0,0.0,0.0,0.0,0.0,0.0,0.0,0.0,0.0,0.0,0.0,0.0,0.0,0.0,0.0,0.0,0.0,0.0,0.0,0.0,0.0,0.0,0.0,0.0,0.0,0.0,0.0,0.0,0.0,0.0,0.0,0.0,0.0,0.0,-4.991,-5.1962,0.0,-5.2194,-5.2659,-5.3326,-5.3994,-5.5416,-5.6955,-5.8493,-5.9742,-6.0903,-6.2035,-6.308,-6.4038,-6.4909,-6.5141,-6.5693,-6.6535,-6.6331,-6.6564,-6.7173,-6.6506,-6.6447,-6.6825,-6.6389,-6.607,-6.5838,-6.5373,-6.3835,-6.1716,-6.1077,-6.0845,-6.0816,-6.0584,-6.0758,-6.1106,0.0,0.0,0.0,0.0,0.0,0.0,0.0,0.0,0.0,0.0,0.0,0.0,0.0,0.0,0.0,0.0,0.0,0.0,0.0,0.0,0.0,0.0,0.0,0.0,0.0,-4.8217,-4.9582,-5.1374,-5.2804,-5.4197,-5.5474,-5.6084,-5.652,-5.6694,-5.6084,-5.5416,-5.455,-5.1328,-4.9653,-4.9014,-4.8345,-4.6602,-4.4315,0.0,0.0,0.0,0.0,0.0,0.0,0.0,0.0,0.0,0.0,0.0,0.0,0.0,0.0,0.0,0.0,0.0,0.0,0.0,0.0,0.0,0.0,0.0,0.0,0.0,0.0,0.0,0.0,0.0,0.0,0.0,0.0,0.0,0.0,0.0,-5.2891,-5.2891,-5.5155,-5.6374,-5.5533,-5.6229,-5.6984,-5.7623,-5.9074,-6.0584,-6.2122,-6.3167,-6.4125,-6.4996,-6.5838,-6.6593,-6.7231,-6.7231,-6.7434,-6.787,-6.787,-6.7986,-6.8189,-6.7725,-6.7783,-6.816,-6.7522,-6.7231,-6.7202,-6.697,-6.5635,-6.3661,-6.3022,-6.2674,-6.2441,-6.2238,-6.2267,-6.2441,0.0,0.0,0.0,0.0,0.0,0.0,0.0,0.0,0.0,0.0,0.0,0.0,0.0,0.0,0.0,0.0,0.0,0.0,0.0,0.0,0.0,0.0,0.0,0.0,0.0,-4.9727,-5.1432,-5.2739,-5.4546,-5.6113,-5.739,-5.8029,-5.8668,-5.9277,-5.861,-5.7942,-5.716,-5.3977,-5.1592,-4.9932,-5.0392,-4.8562,-4.5485,0.0,0.0,0.0,0.0,0.0,0.0,0.0,0.0,0.0,0.0,0.0,0.0,0.0,0.0,0.0,0.0,0.0,0.0,0.0,0.0,0.0,0.0,0.0,0.0,0.0,0.0,0.0,0.0,0.0,0.0,0.0,0.0,0.0,-4.993,-5.3123,-5.5533,-5.5591,-5.7913,-5.9016,-5.771,-5.8784,-6.0322,-6.2122,-6.2906,-6.4619,-6.7754,-6.7318,-6.7551,-6.8828,-6.8886,-6.9176,-6.9786,-6.9815,-6.9815,-6.9815,-6.9815,-6.9495,-6.8886,-6.8886,-6.8886,-6.8857,-6.8247,-6.7957,-6.7899,-6.7231,-6.697,-6.6912,-6.6215,-6.5577,-6.4967,-6.4357,-6.3748,-6.3225,0.0,0.0,0.0,0.0,0.0,0.0,0.0,0.0,0.0,0.0,0.0,0.0,0.0,0.0,0.0,0.0,0.0,0.0,0.0,0.0,0.0,0.0,0.0,0.0,0.0,0.0,-5.3123,-5.5358,-5.6316,-5.7448,-5.8755,-5.8929,-5.9132,-5.9277,-5.861,-5.8203,-5.7971,-5.6589,-5.4347,-5.1667,-4.9501,-4.7622,-4.5947,0.0,0.0,0.0,0.0,0.0,0.0,0.0,0.0,0.0,0.0,0.0,0.0,0.0,0.0,0.0,0.0,0.0,0.0,0.0,0.0,0.0,0.0,0.0,0.0,0.0,0.0,0.0,0.0,0.0,0.0,0.0,0.0,-5.2659,-5.2484,-5.5794,-5.8581,-5.951,-6.2267,-6.3951,-6.3603,-6.4764,-6.5722,-6.6244,-6.6883,-6.7638,-6.8509,-6.8828,-6.9147,-6.9495,-6.996,-7.0279,-7.0453,-7.0453,-7.0453,-7.0453,-7.0453,-7.0366,-7.0192,-7.0192,-7.0192,-7.0192,-7.0018,-6.967,-6.9234,-6.906,-6.8973,-6.8828,-6.7231,-6.6506,-6.6331,-6.6157,-6.5983,-6.5838,0.0,0.0,0.0,0.0,0.0,0.0,0.0,0.0,0.0,0.0,0.0,0.0,0.0,0.0,0.0,0.0,0.0,0.0,0.0,0.0,0.0,0.0,0.0,0.0,0.0,0.0,0.0,-5.6977,-5.7999,-5.89,-5.9684,-5.9974,-6.0235,-6.0438,-5.98,-5.9332,-5.903,-5.8371,-5.6205,-5.3005,-5.0783,-4.8694,-4.6913,-4.6295,-4.4806,-4.3011,-4.2534,-4.2082,-4.163,-4.1304,0.0,0.0,0.0,0.0,0.0,0.0,0.0,0.0,0.0,0.0,0.0,0.0,0.0,0.0,0.0,0.0,0.0,0.0,0.0,0.0,0.0,0.0,0.0,0.0,-5.4546,-5.7013,-5.7826,-5.9858,-6.1861,-6.3399,-6.5925,-6.7434,-6.7173,-6.8305,-6.906,-6.906,-6.9408,-6.9844,-7.0395,-7.0512,-7.0686,-7.0947,-7.1324,-7.1528,-7.1528,-7.1528,-7.1382,-7.1121,-7.1121,-7.0976,-7.0715,-7.0715,-7.0715,-7.0715,-7.0715,-7.0512,-7.0163,-7.0163,-7.0163,0.0,0.0,0.0,0.0,0.0,-6.7057,-6.726,0.0,0.0,0.0,0.0,0.0,0.0,0.0,0.0,0.0,0.0,0.0,0.0,0.0,0.0,0.0,0.0,0.0,0.0,0.0,0.0,0.0,0.0,0.0,0.0,0.0,0.0,0.0,0.0,-5.9772,-6.0557,-6.0644,-6.1255,-6.1808,-6.2241,-6.1631,-6.0962,-6.0307,-5.9533,-5.7349,-5.4302,-5.3279,-5.0931,-4.8082,-4.7949,-4.6941,-4.5522,-4.4468,-4.3413,-4.2564,-4.2514,0.0,0.0,0.0,0.0,0.0,0.0,0.0,0.0,0.0,0.0,0.0,0.0,0.0,0.0,0.0,0.0,0.0,0.0,0.0,0.0,0.0,0.0,0.0,0.0,-5.8292,-6.1877,-6.4017,-6.4578,-6.5402,-6.6999,-6.8915,-6.9873,-6.9321,-7.0395,-7.1121,-7.1063,-7.1034,-7.1498,-7.2544,0.0,0.0,0.0,0.0,-7.2689,-7.2602,-7.2689,-7.2398,-7.1789,-7.1789,-7.1469,-7.0918,-7.0918,-7.0918,-7.0918,-7.0918,-7.0889,-7.0831,-7.0831,-7.0773,-7.0599,-6.9495,-6.9031,-6.8886,-6.7667,-6.7638,-6.8102,0.0,0.0,0.0,0.0,0.0,0.0,0.0,0.0,0.0,0.0,0.0,0.0,0.0,0.0,0.0,0.0,0.0,0.0,0.0,0.0,0.0,0.0,0.0,0.0,0.0,0.0,0.0,0.0,0.0,-6.2851,-6.3352,-6.3499,-6.3434,-6.3278,-6.2635,-6.2099,-6.1607,-5.981,-5.8005,-5.6332,-5.4945,-5.2347,-4.9088,-4.7803,-4.7086,-4.6728,-4.6075,-4.5397,-4.4769,-4.4292,-4.379,-4.3237,-4.2811,0.0,0.0,0.0,0.0,0.0,0.0,0.0,0.0,0.0,0.0,0.0,0.0,0.0,0.0,0.0,0.0,0.0,0.0,0.0,0.0,-5.4821,-5.8564,-6.2115,-6.5476,-6.7896,-6.9379,-6.9234,-7.0918,-7.2021,-7.1905,-7.3037,-7.356,-7.3095,-7.3066,-7.2921,-7.2631,-7.2485,-7.2485,-7.2602,-7.3124,-7.3153,-7.2631,-7.3153,-7.3095,-7.2427,0.0,0.0,-7.2253,-7.2253,-7.2253,-7.2253,-7.2253,-7.1963,-7.1498,-7.1498,-7.1179,-7.0686,-7.0453,-7.0366,-7.025,-6.9495,-6.9612,-7.0018,0.0,0.0,0.0,0.0,0.0,0.0,0.0,0.0,0.0,0.0,0.0,0.0,0.0,0.0,0.0,0.0,0.0,0.0,0.0,0.0,0.0,0.0,0.0,0.0,0.0,0.0,0.0,0.0,0.0,0.0,-6.4122,-6.4418,-6.4472,-6.4259,-6.3613,-6.2978,-6.2308,-6.193,-5.9555,-5.609,-5.6318,-5.4169,-5.072,-4.9615,-4.8862,-4.8284,-4.7732,-4.7179,-4.6602,-4.6075,-4.5522,-4.497,-4.4418,-4.384,-4.3338,0.0,0.0,0.0,0.0,0.0,0.0,0.0,0.0,0.0,0.0,0.0,0.0,0.0,0.0,-4.7568,0.0,0.0,-5.506,-5.759,-6.2086,-6.5809,-6.7129,-6.982,-7.1557,-7.1237,-7.2602,-7.3589,-7.356,-7.443,-7.475,-7.4111,-7.4053,-7.3908,-7.3589,-7.356,-7.3414,-7.3124,-7.3443,-7.3298,-7.2631,-7.295,-7.3124,-7.3124,-7.2776,-7.295,-7.3531,-7.2892,-7.2805,-7.3095,-7.2776,-7.2427,-7.2137,-7.2137,-7.1963,-7.1673,-7.1673,-7.1092,-7.0192,-6.9902,-6.9786,-6.967,0.0,0.0,0.0,0.0,0.0,0.0,0.0,0.0,0.0,0.0,0.0,0.0,0.0,0.0,0.0,0.0,0.0,0.0,0.0,0.0,0.0,0.0,0.0,0.0,0.0,0.0,0.0,0.0,0.0,0.0,0.0,-6.5131,-6.5367,-6.5305,-6.4774,-6.4064,-6.3236,-6.3775,-6.095,-5.6385,-5.733,-5.5532,-5.2352,-5.18,-5.0896,-4.9841,-4.9163,-4.836,-4.7531,-4.7104,-4.6602,-4.6075,-4.5623,-4.5246,-4.4819,-4.4166,-4.3827,0.0,0.0,0.0,0.0,0.0,0.0,0.0,0.0,0.0,-4.7421,-4.7558,-4.8501,-5.0114,-5.2819,-5.6559,-5.9555,-6.0527,-6.588,-6.9617,-6.8791,-7.1051,-7.2805,-7.2805,-7.385,-7.4605,-7.4692,-7.5301,-7.5417,-7.475,-7.4692,-7.4634,-7.4518,-7.4518,-7.4285,-7.3792,-7.3908,-7.3676,-7.3008,-7.2979,-7.324,-7.3792,-7.3124,-7.3414,-7.4459,-7.3327,-7.3095,-7.3589,-7.2892,-7.2602,-7.2602,-7.2602,-7.2602,-7.2602,-7.2602,-7.1615,-7.0134,-6.9989,-6.9728,-6.9321,0.0,0.0,0.0,0.0,0.0,0.0,0.0,0.0,0.0,0.0,0.0,0.0,0.0,0.0,0.0,0.0,0.0,0.0,0.0,0.0,0.0,0.0,0.0,0.0,0.0,0.0,0.0,0.0,0.0,0.0,0.0,0.0,-6.6634,-6.6325,-6.6266,-6.6017,-6.545,-6.3018,-6.139,-6.0199,-5.7346,-5.5146,-5.3457,-5.2955,-5.2051,-5.0946,-4.9891,-4.8209,-4.6476,-4.6426,-4.6024,-4.5573,-4.5497,-4.5773,-4.5924,-4.4844,0.0,-4.3658,-4.3067,-4.2947,0.0,-4.347,-4.4913,-4.6338,0.0,0.0,-4.9429,-4.9888,-5.0897,-5.2278,-5.4075,-5.7577,-6.077,-6.2246,-6.6926,-7.025,-6.9995,-7.1967,-7.3501,-7.3501,-7.4111,-7.475,-7.533,-7.5969,-7.6085,-7.5446,-7.5388,-7.5127,-7.4547,-7.4518,-7.4488,-7.4401,-7.4982,-7.4982,-7.4314,-7.4285,-7.4343,-7.4401,-7.3792,-7.385,-7.4488,-7.3821,-7.356,-7.3589,-7.2892,-7.2602,-7.2602,-7.2602,-7.2602,-7.2602,-7.2602,-7.2137,-7.1382,-7.0831,-7.0918,-7.1121,0.0,0.0,0.0,0.0,0.0,0.0,0.0,0.0,0.0,0.0,0.0,0.0,0.0,0.0,0.0,0.0,0.0,0.0,0.0,0.0,0.0,0.0,0.0,0.0,0.0,0.0,0.0,0.0,0.0,0.0,0.0,0.0,0.0,-6.6814,-6.6814,-6.6629,-6.6195,-6.4973,-6.3593,-6.2024,-5.9738,-5.7372,-5.509,-5.3436,-5.1548,-4.9715,-4.8912,-4.7832,0.0,0.0,-4.5397,-4.5422,-4.5095,-4.5146,-4.5171,-4.4392,-4.374,0.0,-4.3037,0.0,0.0,0.0,-4.6506,-4.7962,-4.8838,-5.1038,-5.3058,-5.3593,-5.5595,-5.7758,-5.9501,-6.3001,-6.5709,0.0,-6.9728,-7.2478,-7.1438,-7.267,-7.3472,-7.3066,-7.324,-7.3966,-7.5359,-7.5388,-7.5359,-7.5504,-7.5504,-7.5388,-7.5098,-7.5446,-7.5475,-7.5098,-7.5359,-7.5185,-7.4518,-7.4169,-7.4372,-7.5069,-7.4082,-7.4314,-7.5592,-7.4227,-7.3414,-7.3008,-7.2747,-7.2602,-7.2602,-7.2602,-7.2602,-7.2602,-7.2602,-7.2456,-7.2137,-7.1498,-7.1208,-7.0947,0.0,0.0,0.0,0.0,0.0,0.0,0.0,0.0,0.0,0.0,0.0,0.0,0.0,0.0,0.0,0.0,0.0,0.0,0.0,0.0,0.0,0.0,0.0,0.0,0.0,0.0,0.0,0.0,0.0,0.0,0.0,0.0,0.0,0.0,-6.6909,-6.6876,-6.6629,-6.6228,-6.491,-6.2914,-6.1557,-5.9039,-5.5816,-5.3529,-5.0831,-4.8158,-4.7668,-4.6728,0.0,0.0,-4.4217,-4.4493,-4.4091,-4.4141,-4.4292,-4.374,-4.3288,-4.3037,-4.3338,0.0,0.0,-4.6753,-4.8451,-5.0212,-5.1976,-5.3999,-5.6014,-5.7724,-5.9419,-6.1255,-6.3496,-6.6715,0.0,-6.8586,-7.2045,-7.4266,-7.2705,-7.2976,-7.295,-7.1963,-7.1528,-7.1992,-7.3763,-7.414,-7.4605,-7.5446,-7.5504,-7.5592,-7.5766,-7.6201,-7.6259,-7.5795,-7.5766,-7.5534,-7.504,-7.443,-7.4692,-7.5766,-7.4663,-7.4953,-7.6479,-7.4663,-7.3414,-7.2602,-7.2602,-7.2602,-7.2602,-7.2602,-7.2602,-7.2602,-7.2602,-7.2602,-7.2573,-7.2108,-7.1411,-7.0599,0.0,0.0,0.0,0.0,0.0,0.0,0.0,0.0,0.0,0.0,0.0,0.0,0.0,0.0,0.0,0.0,0.0,0.0,0.0,0.0,0.0,0.0,0.0,0.0,0.0,0.0,0.0,0.0,0.0,0.0,0.0,0.0,0.0,0.0,0.0,-6.6999,-6.6937,-6.5543,-6.4283,-6.3169,-6.1725,-5.8783,-5.4959,-5.3201,-5.0185,-4.6822,-4.6496,0.0,0.0,0.0,-4.2288,-4.2313,-4.2288,-4.2961,0.0,-4.3162,-4.2986,0.0,0.0,0.0,-4.6753,-4.8937,-5.0745,-5.2979,-5.6626,-5.6836,-5.7491,-6.2095,-6.1245,-6.066,-6.4291,-6.6631,-6.8414,-6.9895,-7.3141,-7.504,-7.3748,-7.2994,-7.1963,-7.0076,-6.877,-6.8538,0.0,-7.2195,-7.4169,-7.5417,-7.5504,-7.5766,-7.6404,-7.6538,-7.6538,-7.6433,-7.6433,-7.6433,-7.6479,-7.5766,-7.5795,-7.6433,-7.5766,-7.5795,-7.6479,-7.5098,-7.3792,-7.2602,-7.2602,-7.2602,-7.2602,-7.2602,-7.2602,-7.2602,-7.2602,-7.2602,-7.2602,-7.2602,-7.1789,-7.0541,0.0,0.0,0.0,0.0,0.0,0.0,0.0,0.0,0.0,0.0,0.0,0.0,0.0,0.0,0.0,0.0,0.0,0.0,0.0,0.0,0.0,0.0,0.0,0.0,0.0,0.0,0.0,0.0,0.0,0.0,0.0,0.0,0.0,0.0,0.0,0.0,-6.5622,-6.5169,-6.5281,-6.545,-6.187,-5.974,-5.8065,-5.2506,-4.8736,-4.6208,0.0,0.0,0.0,0.0,0.0,0.0,-4.1078,-4.158,0.0,-4.2384,-4.3212,-4.4392,0.0,0.0,-4.9665,-5.2251,-5.3858,-5.5534,-5.8245,-6.0267,-6.192,-6.3452,-6.377,-6.3997,-6.4876,-6.6242,-6.7659,-6.9002,-7.2071,-7.4227,-7.4198,-7.4401,-7.3037,-6.9002,-6.9263,0.0,0.0,0.0,0.0,-7.3443,-7.3995,-7.4518,-7.5127,-7.5998,-7.6538,-7.6538,-7.6538,-7.6538,-7.6538,-7.5824,-7.5824,-7.6538,-7.5824,-7.5621,-7.5795,-7.4488,-7.3676,-7.324,-7.2805,-7.2602,-7.2602,-7.2602,-7.2602,-7.2602,-7.2602,-7.2602,-7.2515,-7.1673,-7.1353,-7.1237,0.0,0.0,0.0,0.0,0.0,0.0,0.0,0.0,0.0,0.0,0.0,0.0,0.0,0.0,0.0,0.0,0.0,0.0,0.0,0.0,0.0,0.0,0.0,0.0,0.0,0.0,0.0,0.0,0.0,0.0,0.0,0.0,0.0,0.0,0.0,0.0,0.0,-6.272,-6.3109,-6.3142,-5.9769,-5.7859,-5.6422,-5.0572,-4.6917,0.0,0.0,0.0,0.0,0.0,0.0,0.0,0.0,-4.0601,-4.1229,-4.2183,-4.3765,-4.5723,0.0,-5.0368,-5.2829,-5.5415,-5.7289,-5.905,-6.1014,-6.2842,-6.4273,-6.4636,-6.3875,-6.3362,-6.3878,-6.4006,-6.4706,-6.6722,-6.9234,-7.1324,-7.2631,-7.2602,-7.1382,-6.8567,-6.8683,0.0,0.0,0.0,0.0,-7.2079,-7.3124,-7.3995,-7.4808,-7.5882,-7.6538,-7.6538,-7.6538,-7.6538,-7.6538,-7.6056,-7.6056,-7.6462,-7.6056,-7.5737,-7.5475,-7.4401,-7.3821,-7.3589,-7.2892,-7.2602,-7.2602,-7.2602,-7.2602,-7.2602,-7.2602,-7.2602,-7.2515,-7.1702,-7.1528,-7.1528,0.0,0.0,0.0,0.0,0.0,0.0,0.0,0.0,0.0,0.0,0.0,0.0,0.0,0.0,0.0,0.0,0.0,0.0,0.0,0.0,0.0,0.0,0.0,0.0,0.0,0.0,0.0,0.0,0.0,0.0,0.0,0.0,0.0,0.0,0.0,0.0,0.0,0.0,-5.8201,-5.7012,-5.58,-5.3621,-5.0735,-4.7678,0.0,0.0,0.0,0.0,0.0,0.0,0.0,0.0,0.0,0.0,-4.0978,-4.271,-4.4819,-4.7305,-5.0619,-5.3532,-5.6118,-5.8303,-6.0864,-6.3185,-6.4553,-6.4527,-6.4477,-6.5409,-6.1725,-5.9061,0.0,0.0,-5.9827,-6.3294,-6.5112,-6.697,-6.9525,-6.8363,-6.7667,0.0,0.0,0.0,0.0,0.0,0.0,-7.1469,0.0,-7.4082,-7.5388,-7.6056,-7.6433,-7.6538,-7.6538,-7.6538,-7.6538,-7.6538,-7.6538,-7.6538,-7.6508,-7.6085,-7.5475,-7.4779,-7.414,-7.3589,-7.2892,-7.2602,-7.2602,-7.2602,-7.2602,-7.2602,-7.2602,-7.2602,-7.2573,-7.2544,-7.2137,-7.1353,0.0,0.0,0.0,0.0,0.0,0.0,0.0,0.0,0.0,0.0,0.0,0.0,0.0,0.0,0.0,0.0,0.0,0.0,0.0,0.0,0.0,0.0,0.0,0.0,0.0,0.0,0.0,0.0,0.0,0.0,0.0,0.0,0.0,0.0,0.0,0.0,0.0,0.0,0.0,-5.6833,0.0,-5.2536,-5.2696,0.0,0.0,0.0,0.0,0.0,0.0,0.0,0.0,0.0,0.0,0.0,-4.2911,-4.5799,0.0,-5.0745,-5.4059,-5.6671,-5.878,-6.0211,-6.1967,-6.333,-6.3162,-6.3831,-6.3982,-6.2258,-5.965,-5.7367,0.0,0.0,0.0,-6.1452,-6.5402,0.0,-7.0889,-7.1992,0.0,0.0,0.0,-6.9321,-6.7115,-6.8334,0.0,0.0,-7.1992,-7.2921,-7.4663,-7.5388,-7.5969,-7.6433,-7.6538,-7.6538,-7.6538,-7.6538,-7.6538,-7.6462,-7.5969,-7.5679,-7.5475,-7.4343,-7.3763,-7.3589,-7.2892,-7.2602,-7.2602,-7.2602,-7.2602,-7.2602,-7.2602,-7.234,-7.1847,-7.1382,-7.1092,-7.0744,0.0,0.0,0.0,0.0,0.0,0.0,0.0,0.0,0.0,0.0,0.0,0.0,0.0,0.0,0.0,0.0,0.0,0.0,0.0,0.0,0.0,0.0,0.0,0.0,0.0,0.0,0.0,0.0,0.0,0.0,0.0,0.0,0.0,0.0,0.0,0.0,0.0,0.0,0.0,0.0,0.0,0.0,0.0,0.0,0.0,0.0,0.0,0.0,0.0,0.0,0.0,-4.1831,-4.3187,-4.4317,-4.5799,-4.9138,0.0,-5.3808,-5.7123,-5.9972,-6.2142,-6.2286,-6.4169,-6.5232,-6.2471,-6.266,-6.2566,-5.9399,-5.6852,0.0,0.0,0.0,0.0,0.0,0.0,0.0,-6.9612,-7.1179,-7.1528,0.0,-7.1266,0.0,-6.9176,-7.0482,-7.176,0.0,-7.2515,-7.324,-7.4866,-7.5563,-7.6085,-7.6538,-7.6538,-7.6538,-7.6538,-7.6538,-7.6538,-7.6538,-7.5824,-7.5504,-7.5475,-7.4198,-7.3618,-7.3589,0.0,-7.2602,-7.2602,-7.2602,-7.2602,-7.2602,-7.2602,-7.2224,-7.1615,-7.1266,-7.0773,-7.0192,0.0,0.0,0.0,0.0,0.0,0.0,0.0,0.0,0.0,0.0,0.0,0.0,0.0,0.0,0.0,0.0,0.0,0.0,0.0,0.0,0.0,0.0,0.0,0.0,0.0,0.0,0.0,0.0,0.0,0.0,0.0,0.0,0.0,0.0,0.0,0.0,0.0,0.0,0.0,0.0,0.0,0.0,0.0,0.0,0.0,0.0,0.0,0.0,0.0,0.0,-4.2791,-4.3639,-4.5447,-4.7154,-4.9138,-5.2578,-5.4712,-5.6694,-6.0094,-6.3254,-6.5367,-6.449,-6.6591,-6.7485,-6.2241,-6.1332,-6.0526,-5.681,0.0,0.0,-5.3065,0.0,-5.4633,-5.8,0.0,-6.3748,-6.7696,-6.8886,-6.9931,-7.1615,-7.2427,-7.2631,-7.1992,-7.3008,-7.3763,-7.385,-7.3879,-7.4343,-7.5446,-7.6027,-7.6375,-7.6538,-7.6538,-7.6538,-7.6538,-7.6538,-7.6538,-7.6538,-7.5824,-7.5475,-7.533,-7.414,-7.356,-7.3443,-7.2863,0.0,-7.2602,-7.2602,-7.2602,-7.2602,-7.2515,-7.2166,-7.1673,-7.1586,-7.086,-6.9902,0.0,0.0,0.0,0.0,0.0,0.0,0.0,0.0,0.0,0.0,-4.2273,-4.2462,0.0,0.0,0.0,0.0,0.0,0.0,0.0,0.0,0.0,0.0,0.0,0.0,0.0,0.0,0.0,0.0,0.0,0.0,0.0,0.0,0.0,0.0,0.0,0.0,0.0,0.0,0.0,0.0,0.0,0.0,0.0,0.0,0.0,0.0,0.0,0.0,0.0,0.0,-4.4011,-4.5497,-4.8058,-5.0017,-5.2126,-5.5917,-5.7876,-5.959,-6.3466,-6.5603,-6.6843,-6.6946,-6.6981,-6.5908,-6.2287,-6.0199,0.0,0.0,0.0,-5.1643,-5.1236,-5.2455,0.0,-5.919,0.0,0.0,0.0,0.0,-7.2079,0.0,0.0,0.0,0.0,0.0,0.0,0.0,0.0,-7.5272,-7.5504,-7.5621,-7.5911,-7.6433,-7.6538,-7.6538,-7.6538,-7.6538,-7.6538,-7.6538,-7.5824,-7.5214,-7.4663,-7.3937,-7.3327,-7.2776,-7.266,0.0,-7.2602,-7.2602,-7.2602,-7.2573,-7.205,-7.176,-7.1615,-7.1092,-7.0744,-7.0482,0.0,0.0,0.0,0.0,0.0,0.0,0.0,-4.3715,-4.368,-4.3584,-4.2994,-4.2626,-4.2886,-4.2311,0.0,0.0,0.0,0.0,0.0,0.0,0.0,0.0,0.0,0.0,0.0,0.0,0.0,0.0,0.0,0.0,0.0,0.0,0.0,0.0,0.0,0.0,0.0,0.0,0.0,0.0,0.0,0.0,0.0,0.0,0.0,0.0,0.0,0.0,0.0,0.0,-4.6173,-4.8577,-5.1214,-5.3839,-5.6611,-6.0488,-6.2437,-6.4004,-6.6789,-6.8859,-6.9894,-6.8489,-6.7881,-6.6208,-6.0818,0.0,0.0,0.0,0.0,-5.0714,-5.1091,0.0,0.0,0.0,0.0,0.0,0.0,0.0,0.0,0.0,0.0,0.0,0.0,0.0,0.0,0.0,0.0,0.0,-7.5998,-7.5998,-7.6143,-7.6538,-7.6538,-7.6538,-7.6538,-7.6538,-7.6538,-7.6538,-7.5824,-7.5156,-7.4518,-7.3908,-7.324,-7.2602,-7.2602,0.0,-7.2602,-7.2602,-7.2602,-7.2573,-7.2282,-7.1963,-7.1644,-7.1324,-7.0802,-7.0192,0.0,0.0,0.0,0.0,0.0,0.0,0.0,-4.4275,-4.4509,-4.4396,-4.3223,-4.2427,-4.2565,-4.1901,-4.1863,0.0,0.0,0.0,0.0,0.0,0.0,0.0,0.0,0.0,0.0,0.0,0.0,0.0,0.0,0.0,0.0,0.0,0.0,0.0,0.0,0.0,0.0,0.0,0.0,0.0,0.0,0.0,0.0,0.0,0.0,0.0,0.0,0.0,0.0,0.0,-4.7459,-5.0236,-5.289,-5.6253,-5.981,-6.3037,-6.524,-6.7126,-6.9307,-7.1545,-7.2651,-7.0124,-6.8824,-6.6409,-5.9668,-5.6051,0.0,0.0,0.0,-5.0278,-5.1585,0.0,0.0,0.0,0.0,0.0,0.0,0.0,0.0,0.0,0.0,0.0,0.0,0.0,0.0,0.0,0.0,0.0,-7.6538,-7.6538,-7.6538,-7.6538,-7.6538,-7.6538,-7.6538,-7.6538,-7.6538,-7.6538,-7.5679,-7.504,-7.4518,-7.3763,-7.3124,-7.2602,-7.2602,0.0,0.0,-7.2602,-7.2602,-7.2602,-7.2456,-7.2195,-7.1847,-7.1557,-7.0918,-7.0134,0.0,0.0,0.0,0.0,0.0,0.0,0.0,-4.3964,-4.3887,-4.3627,-4.2442,-4.2015,-4.3097,-4.2132,-4.1722,0.0,0.0,0.0,0.0,0.0,0.0,0.0,0.0,0.0,0.0,0.0,0.0,0.0,0.0,0.0,0.0,0.0,0.0,0.0,0.0,0.0,0.0,0.0,0.0,0.0,0.0,0.0,0.0,0.0,0.0,0.0,0.0,0.0,0.0,0.0,0.0,-4.7785,-5.0879,-5.5011,-5.8941,-6.0276,0.0,0.0,-7.0043,-7.2363,-7.3534,-7.2472,-6.9204,-6.4932,-6.0231,0.0,0.0,0.0,-5.0598,-5.1025,-5.2252,-5.263,0.0,0.0,0.0,0.0,0.0,0.0,0.0,0.0,0.0,0.0,0.0,0.0,0.0,0.0,0.0,0.0,-7.6567,-7.6538,-7.6538,-7.6538,-7.6538,-7.6538,-7.6538,-7.6538,-7.6538,-7.6433,-7.5185,-7.4576,-7.4459,-7.3269,-7.266,-7.2602,-7.2602,0.0,0.0,-7.2602,-7.2602,-7.2573,-7.1992,-7.2079,-7.2398,-7.1237,-7.1092,-7.1324,0.0,0.0,0.0,0.0,0.0,0.0,-4.3551,-4.4449,-4.4953,-4.4428,-4.3456,-4.3186,-4.4037,-4.25,-4.1803,0.0,0.0,0.0,0.0,0.0,0.0,0.0,0.0,0.0,0.0,0.0,0.0,0.0,0.0,0.0,0.0,0.0,0.0,0.0,0.0,0.0,0.0,0.0,0.0,0.0,0.0,0.0,0.0,0.0,0.0,0.0,0.0,0.0,0.0,0.0,0.0,0.0,-4.8553,-5.1619,0.0,0.0,-6.4092,-6.7834,-7.1122,-7.3387,-7.4482,-7.3009,-6.9234,-6.4764,-6.0322,0.0,0.0,-5.1004,-5.0975,-5.1527,-5.2397,-5.2891,-5.3675,0.0,0.0,0.0,0.0,0.0,0.0,0.0,0.0,0.0,0.0,0.0,0.0,0.0,0.0,0.0,-7.7043,-7.7014,-7.6869,-7.6538,-7.6538,-7.6538,-7.6538,-7.6538,-7.6538,-7.6538,-7.5534,-7.4895,-7.4488,-7.3618,-7.3008,-7.2602,-7.2602,0.0,0.0,-7.2602,-7.2602,-7.2602,-7.234,-7.2398,-7.2544,-7.205,-7.1528,-7.1034,0.0,0.0,0.0,0.0,0.0,-4.4096,-4.3536,-4.48,-4.5532,-4.4646,-4.391,-4.3643,-4.3987,-4.246,-4.1833,-4.294,0.0,0.0,0.0,0.0,0.0,0.0,0.0,0.0,0.0,0.0,-4.4646,-4.5304,-4.5992,0.0,0.0,0.0,0.0,0.0,0.0,0.0,0.0,0.0,0.0,0.0,0.0,0.0,0.0,0.0,0.0,0.0,0.0,0.0,0.0,0.0,0.0,0.0,0.0,0.0,0.0,0.0,-6.2848,-6.7086,-6.9902,-7.2602,-7.4227,-7.2485,-6.8538,-6.4067,0.0,0.0,0.0,-5.1236,-5.1294,-5.1875,-5.2688,-5.321,-5.3675,0.0,0.0,0.0,0.0,0.0,0.0,0.0,0.0,0.0,0.0,0.0,0.0,0.0,0.0,0.0,0.0,-7.7595,-7.7391,-7.6753,-7.655,-7.6538,-7.6538,-7.6538,-7.6538,-7.6538,-7.5824,-7.5156,-7.4518,-7.3879,-7.324,-7.2602,-7.2602,0.0,0.0,-7.2602,-7.2602,-7.2602,-7.2602,-7.2485,-7.234,-7.234,-7.1528,-7.0424,0.0,0.0,0.0,0.0,0.0,0.0,-4.4126,-4.4846,-4.5009,-4.3864,-4.3218,-4.2764,-4.2461,-4.1811,-4.1692,-4.2351,0.0,0.0,0.0,0.0,0.0,0.0,0.0,0.0,0.0,0.0,-4.4646,-4.5304,-4.5992,-4.6651,-4.7309,0.0,0.0,0.0,0.0,0.0,0.0,0.0,0.0,0.0,0.0,0.0,0.0,0.0,0.0,0.0,0.0,0.0,0.0,0.0,0.0,0.0,0.0,0.0,0.0,0.0,-5.8145,-6.3574,-6.5519,-6.9292,-7.234,-7.1063,-6.6883,-6.2441,0.0,0.0,0.0,-5.1614,-5.1614,-5.202,-5.3268,-5.35,-5.35,-5.353,0.0,0.0,0.0,0.0,0.0,0.0,0.0,0.0,0.0,0.0,0.0,0.0,0.0,0.0,0.0,-7.803,-7.8088,-7.742,-7.6782,-7.6538,-7.6538,-7.6538,-7.6538,-7.6538,-7.5824,-7.5185,-7.4547,-7.3908,-7.324,0.0,0.0,0.0,0.0,-7.2602,-7.2602,-7.2602,-7.2602,-7.2224,-7.1673,-7.1673,-7.0889,-6.9786,0.0,0.0,0.0,0.0,0.0,0.0,0.0,-4.4215,-4.4339,-4.336,-4.2581,-4.2074,-4.1862,-4.1579,-4.1512,-4.1722,0.0,0.0,0.0,0.0,0.0,0.0,0.0,0.0,0.0,0.0,-4.4197,-4.5304,-4.5514,-4.6202,-4.7309,-4.7309,-4.7309,0.0,0.0,0.0,0.0,0.0,0.0,0.0,0.0,0.0,0.0,0.0,0.0,0.0,0.0,0.0,0.0,0.0,0.0,0.0,0.0,0.0,0.0,0.0,0.0,0.0,-6.1396,-6.4038,-6.5896,-6.5025,-6.2296,-5.9248,-5.7129,0.0,0.0,0.0,-5.1614,-5.202,-5.3268,-5.35,-5.3675,-5.411,-5.4371,0.0,0.0,0.0,0.0,0.0,0.0,0.0,0.0,0.0,0.0,0.0,0.0,0.0,0.0,-7.8291,-7.8088,-7.742,-7.6782,-7.6538,-7.6538,-7.6538,-7.6538,-7.6538,-7.5359,-7.4721,-7.4488,-7.3414,-7.2805,0.0,0.0,0.0,0.0,-7.2602,-7.2602,-7.2573,-7.2137,-7.2108,-7.2282,-7.1818,-7.115,-7.0424,0.0,0.0,0.0,0.0,0.0,0.0,0.0,-4.4131,-4.4058,-4.31,-4.2319,-4.1639,-4.1173,-4.1301,-4.1422,-4.1422,0.0,0.0,0.0,0.0,0.0,0.0,0.0,0.0,-4.329,-4.3529,-4.4227,-4.5304,-4.5544,-4.6232,-4.7309,-4.7309,-4.7309,-4.7309,-4.7309,0.0,0.0,0.0,0.0,0.0,0.0,0.0,-4.7309,0.0,0.0,0.0,0.0,0.0,0.0,0.0,0.0,0.0,0.0,0.0,0.0,0.0,-5.0365,0.0,0.0,-5.9451,-6.1571,-6.1135,-5.9306,0.0,0.0,0.0,0.0,0.0,0.0,0.0,-5.3268,-5.35,-5.3646,-5.4052,-5.4342,0.0,0.0,0.0,0.0,0.0,0.0,0.0,0.0,0.0,0.0,0.0,0.0,0.0,0.0,-7.803,-7.774,-7.7072,-7.6666,-7.6538,-7.6538,-7.6538,-7.6346,-7.6085,-7.5272,-7.4634,-7.414,-7.3356,-7.2863,0.0,0.0,0.0,0.0,-7.2602,-7.2602,-7.2544,-7.1934,-7.176,-7.1847,-7.1469,-7.0744,-7.0047,0.0,0.0,0.0,0.0,0.0,0.0,0.0,0.0,-4.3968,-4.3104,-4.2205,-4.1331,-4.0491,-4.0943,-4.1324,-4.1422,0.0,0.0,0.0,0.0,0.0,0.0,0.0,0.0,-4.329,-4.3888,-4.4586,-4.5304,-4.5933,-4.6621,-4.7309,-4.7309,-4.7309,-4.7309,-4.7309,-4.7309,0.0,0.0,0.0,0.0,0.0,-4.7309,0.0,0.0,0.0,0.0,0.0,0.0,0.0,0.0,0.0,0.0,0.0,0.0,0.0,0.0,0.0,0.0,0.0,0.0,0.0,0.0,0.0,0.0,0.0,0.0,0.0,0.0,0.0,0.0,0.0,-5.35,-5.353,-5.3588,-5.4139,0.0,0.0,0.0,0.0,0.0,0.0,0.0,0.0,0.0,0.0,0.0,0.0,0.0,0.0,-7.7391,-7.7101,-7.6479,-7.6479,-7.645,-7.6317,-7.645,-7.6056,-7.5446,-7.5388,-7.475,-7.3618,-7.356,-7.3211,0.0,0.0,0.0,0.0,-7.2573,-7.2544,-7.2485,-7.1789,-7.1208,-7.0715,-7.0657,-6.9902,-6.8973,0.0,0.0,0.0,0.0,0.0,0.0,0.0,0.0,0.0,0.0,-4.1348,-4.0269,-4.0445,-4.0583,-4.0816,0.0,0.0,0.0,0.0,0.0,0.0,0.0,0.0,0.0,-4.329,-4.3439,-4.4137,-4.5304,-4.5454,-4.6142,-4.7309,-4.7309,-4.7309,-4.7309,-4.7309,-4.7309,0.0,0.0,0.0,0.0,-4.7309,-4.7309,0.0,0.0,0.0,0.0,-4.6975,-4.6887,0.0,0.0,0.0,0.0,0.0,0.0,0.0,0.0,-4.8333,-4.8943,-4.8914,0.0,-5.2688,-5.2688,-5.2368,-5.1991,0.0,0.0,0.0,0.0,0.0,0.0,0.0,0.0,0.0,0.0,0.0,0.0,0.0,0.0,0.0,0.0,0.0,0.0,0.0,0.0,0.0,0.0,0.0,0.0,0.0,-7.7391,-7.6898,-7.5766,-7.5737,-7.5475,-7.4982,-7.5475,-7.5388,-7.475,-7.4285,-7.3908,-7.3589,-7.3095,-7.2776,0.0,0.0,0.0,-7.2573,-7.2079,-7.1905,-7.1789,-7.0657,-7.0424,-7.0657,-7.0163,-6.9815,-6.9583,0.0,0.0,0.0,0.0,0.0,0.0,0.0,0.0,0.0,0.0,0.0,0.0,0.0,0.0,0.0,0.0,0.0,0.0,0.0,0.0,0.0,0.0,0.0,-4.329,-4.329,-4.3589,-4.4287,-4.5304,-4.5603,-4.6292,-4.7309,-4.7309,-4.7309,-4.7309,-4.7309,-4.7309,-4.7309,-4.7309,-4.7309,-4.7309,-4.7309,0.0,0.0,0.0,0.0,0.0,-4.7019,-4.6931,0.0,-4.7761,-4.7812,-4.7746,0.0,0.0,0.0,0.0,-4.8653,-4.9088,-4.874,-4.964,-5.0734,-5.0734,-5.0888,-5.1091,0.0,0.0,0.0,0.0,0.0,0.0,0.0,0.0,0.0,0.0,0.0,0.0,0.0,0.0,0.0,0.0,0.0,0.0,0.0,0.0,0.0,0.0,0.0,0.0,0.0,-7.6695,-7.6085,-7.5069,-7.504,-7.4866,-7.4518,-7.4866,-7.4721,-7.4082,-7.3763,-7.3443,-7.3153,-7.2776,-7.2456,0.0,0.0,0.0,-7.1702,-7.1382,-7.1237,-7.115,-7.0163,-6.9989,-7.0221,-6.9583,-6.935,-6.935,0.0,0.0,0.0,0.0,0.0,0.0,0.0,0.0,0.0,0.0,0.0,0.0,0.0,0.0,0.0,0.0,0.0,0.0,0.0,0.0,0.0,0.0,0.0,-4.329,-4.329,-4.3947,-4.4646,-4.5304,-4.5992,-4.6651,-4.7309,-4.7309,-4.7309,-4.7309,-4.7309,-4.7309,-4.7309,-4.7309,-4.7309,-4.7309,-4.7309,0.0,0.0,0.0,0.0,0.0,0.0,0.0,0.0,-4.8056,-4.8211,-4.8126,-4.8858,0.0,0.0,0.0,0.0,0.0,-4.9785,-5.0394,-5.0917,-5.0763,-5.1149,-5.1614,-5.1614,0.0,0.0,0.0,0.0,0.0,0.0,0.0,0.0,0.0,0.0,0.0,0.0,0.0,0.0,0.0,0.0,0.0,0.0,0.0,0.0,0.0,0.0,0.0,0.0,-7.5708,-7.504,-7.4401,-7.4372,-7.4314,-7.4227,-7.4314,-7.4053,-7.3472,-7.3472,-7.3153,-7.2602,-7.2515,-7.2166,-7.1673,0.0,0.0,-7.0715,-7.0628,-7.057,-7.0512,-6.9873,-6.9641,-6.9554,-6.9031,-6.8828,-6.8828,0.0,0.0,0.0,0.0,0.0,0.0,0.0,0.0,0.0,0.0,0.0,0.0,0.0,0.0,0.0,0.0,0.0,0.0,0.0,0.0,0.0,-4.329,-4.329,-4.329,-4.329,-4.3947,-4.4646,-4.5304,-4.5992,-4.6651,-4.7309,-4.7309,-4.7309,-4.7309,-4.7309,-4.7309,-4.7309,-4.7309,-4.7309,-4.7309,-4.7309,0.0,0.0,0.0,0.0,0.0,0.0,0.0,0.0,-4.7748,-4.77,-4.757,-4.8711,0.0,0.0,0.0,0.0,0.0,-5.0415,-5.1432,-5.2071,-5.0996,-5.1149,-5.1614,-5.1614,0.0,0.0,0.0,0.0,0.0,0.0,0.0,0.0,0.0,0.0,0.0,0.0,0.0,0.0,0.0,0.0,0.0,0.0,0.0,0.0,0.0,0.0,0.0,0.0,-7.504,-7.4372,-7.3763,-7.3763,-7.3472,-7.2921,-7.3472,-7.3414,-7.2776,-7.2776,-7.2718,-7.2602,-7.205,-7.176,-7.1644,0.0,-7.0802,-7.0686,-7.0134,-6.9931,-6.9844,-6.9234,-6.8973,-6.8944,-6.8857,-6.8828,-6.8828,0.0,0.0,0.0,0.0,0.0,0.0,0.0,0.0,0.0,0.0,0.0,0.0,0.0,0.0,0.0,0.0,0.0,0.0,0.0,0.0,0.0,-4.329,-4.3648,-4.3828,-4.3828,-4.4167,-4.4825,-4.5843,-4.6172,-4.6651,-4.7309,-4.7309,-4.7309,-4.7309,-4.7309,-4.7309,-4.7309,-4.7309,-4.7309,-4.7309,0.0,0.0,0.0,0.0,0.0,0.0,0.0,0.0,0.0,0.0,-4.7515,-4.7707,-4.861,0.0,0.0,0.0,0.0,0.0,-5.0095,-5.088,-5.1606,-5.1672,-5.1933,-5.2049,-5.1701,0.0,0.0,0.0,0.0,0.0,0.0,0.0,0.0,0.0,0.0,0.0,0.0,0.0,0.0,0.0,0.0,0.0,0.0,0.0,0.0,0.0,0.0,0.0,0.0,0.0,-7.3734,-7.3095,-7.2747,-7.2253,-7.1586,-7.1905,-7.2079,-7.2108,-7.2108,-7.1934,-7.1586,-7.1295,-7.0976,-7.0628,0.0,-7.0018,-6.967,-6.9379,-6.9263,-6.9234,-6.8944,-6.8828,-6.8828,-6.8828,-6.8828,-6.8828,0.0,0.0,0.0,0.0,0.0,0.0,0.0,0.0,0.0,0.0,0.0,0.0,0.0,0.0,0.0,0.0,0.0,0.0,0.0,0.0,-4.329,-4.329,-4.3958,-4.4317,-4.4317,-4.4616,-4.5263,-4.6279,-4.6429,-4.68,-4.7309,-4.7309,-4.7309,-4.7309,-4.7309,-4.7309,-4.7309,-4.7309,-4.7309,-4.7309,0.0,0.0,0.0,0.0,0.0,0.0,0.0,0.0,0.0,0.0,0.0,0.0,0.0,0.0,0.0,-4.9282,-4.9349,-4.9494,-4.964,-5.0278,-5.112,-5.2107,-5.2455,-5.263,-5.2891,-5.2078,0.0,0.0,0.0,0.0,0.0,0.0,0.0,0.0,0.0,0.0,0.0,0.0,0.0,0.0,0.0,0.0,0.0,0.0,0.0,0.0,0.0,0.0,0.0,0.0,-7.2863,-7.2195,-7.1702,-7.1208,-7.0715,-7.057,-7.0831,-7.144,-7.144,-7.1208,-7.0715,-7.057,-7.0163,-6.9554,-6.9408,-6.8973,-6.8363,-6.8363,-6.845,-6.8596,-6.8596,-6.8712,-6.8828,-6.8828,-6.8828,-6.8799,0.0,0.0,0.0,0.0,0.0,0.0,0.0,0.0,0.0,0.0,0.0,0.0,0.0,0.0,0.0,0.0,0.0,0.0,0.0,0.0,-4.329,-4.329,-4.3958,-4.4317,-4.4317,-4.5502,-4.619,-4.6279,-4.692,-4.7249,-4.7309,-4.7309,-4.7309,-4.7309,-4.7309,-4.7309,-4.7309,-4.7309,-4.7309,-4.7309,-4.7309,0.0,0.0,0.0,0.0,0.0,0.0,0.0,0.0,0.0,0.0,0.0,0.0,0.0,-4.7927,-4.7927,-4.8333,-4.8914,-4.9524,-5.0598,-5.1585,-5.1672,-5.2136,0.0,-5.6229,-5.6403,0.0,-5.7623,0.0,0.0,0.0,0.0,0.0,0.0,0.0,0.0,0.0,0.0,0.0,0.0,0.0,0.0,0.0,0.0,0.0,0.0,0.0,0.0,0.0,0.0,0.0,-7.0889,-7.0802,-7.0773,-7.0715,-7.0134,-7.0163,-7.0802,-7.0802,-7.0773,-7.0686,-7.0105,-6.9495,-6.8857,-6.8276,-6.7638,-6.7028,-6.7028,-6.7376,-6.7957,-6.7957,-6.8305,-6.8828,-6.8828,-6.8828,-6.8741,0.0,0.0,0.0,0.0,0.0,0.0,0.0,0.0,0.0,0.0,0.0,0.0,0.0,0.0,0.0,0.0,0.0,0.0,0.0,-4.314,-4.329,-4.329,-4.3958,-4.4496,-4.4915,-4.5843,-4.6531,-4.692,-4.7189,-4.7309,-4.7309,-4.7309,-4.7309,-4.7309,-4.7309,-4.7309,-4.7309,-4.7309,-4.7309,-4.7309,-4.7309,-4.7309,0.0,0.0,0.0,0.0,0.0,0.0,0.0,0.0,-4.7558,-4.6923,0.0,0.0,-4.784,-4.8246,-4.8537,-4.8769,-4.903,-4.9731,-5.072,-5.1953,-5.2086,0.0,0.0,-5.5649,-5.5939,-5.8406,-5.9161,0.0,0.0,0.0,0.0,0.0,0.0,0.0,0.0,0.0,0.0,0.0,0.0,0.0,0.0,0.0,0.0,0.0,0.0,0.0,0.0,0.0,0.0,-7.0163,-6.9757,-6.935,-6.8973,-6.8305,-6.8102,-6.8334,-6.9147,-6.935,-6.8944,-6.8712,-6.8479,-6.8189,-6.7551,-6.7115,-6.6883,-6.6883,-6.7028,-6.726,-6.726,-6.7405,-6.7667,-6.8073,-6.7986,-6.7696,0.0,0.0,0.0,0.0,0.0,0.0,0.0,0.0,0.0,0.0,0.0,0.0,0.0,0.0,0.0,0.0,0.0,0.0,-4.294,-4.317,-4.329,-4.329,-4.3958,-4.4616,-4.5274,-4.5963,-4.6651,-4.7309,-4.7309,-4.7309,-4.7309,-4.7309,-4.7309,-4.7309,-4.7309,-4.7309,-4.7309,-4.7309,-4.7309,-4.7309,-4.7309,-4.7429,0.0,0.0,0.0,0.0,0.0,0.0,0.0,0.0,0.0,0.0,0.0,0.0,0.0,0.0,-4.8275,-4.8478,-4.8682,-4.9194,-4.9972,0.0,0.0,0.0,-5.5534,-5.6472,-5.7366,-6.01,-6.0668,0.0,0.0,0.0,0.0,0.0,0.0,0.0,0.0,0.0,0.0,0.0,0.0,0.0,0.0,0.0,0.0,0.0,0.0,0.0,0.0,0.0,0.0,0.0,-6.8538,-6.8015,-6.758,-6.6912,-6.6593,-6.6593,-6.7492,-6.7783,-6.758,-6.758,-6.7463,-6.7231,-6.6767,-6.6476,-6.6273,-6.6273,-6.6389,-6.6593,-6.6796,-6.6883,-6.6941,-6.7405,-6.726,-6.697,0.0,0.0,0.0,0.0,0.0,0.0,0.0,0.0,0.0,0.0,0.0,0.0,0.0,0.0,0.0,0.0,0.0,0.0,-4.2351,-4.297,-4.329,-4.329,-4.3958,-4.4616,-4.5274,-4.5963,-4.6651,-4.7309,-4.7309,-4.7309,-4.7309,-4.7309,-4.7309,-4.7309,-4.7309,-4.7309,-4.7309,-4.7309,-4.7309,-4.7309,-4.7309,-4.7698,-4.8297,0.0,0.0,0.0,0.0,0.0,0.0,0.0,-4.8541,0.0,0.0,0.0,0.0,0.0,-4.7288,-4.7927,-4.8566,-4.9204,0.0,0.0,0.0,0.0,0.0,0.0,-6.1636,0.0,0.0,0.0,0.0,0.0,0.0,0.0,0.0,0.0,0.0,0.0,0.0,0.0,0.0,0.0,0.0,0.0,0.0,0.0,0.0,0.0,0.0,0.0,0.0,0.0,-6.7231,-6.6883,-6.6883,-6.6244,-6.5925,-6.5925,-6.5925,-6.6244,-6.6883,-6.6883,-6.6535,-6.5925,-6.5925,-6.5577,-6.4996,-6.4996,-6.5344,-6.5983,-6.6622,-6.6854,-6.6854,-6.6883,-6.6883,-6.6832,0.0,0.0,0.0,0.0,0.0,0.0,0.0,0.0,0.0,0.0,0.0,0.0,0.0,0.0,0.0,0.0,0.0,0.0,-4.3,-4.32,-4.329,-4.329,-4.3469,-4.3888,-4.4586,-4.5723,-4.6651,-4.7309,-4.7309,-4.7309,-4.7309,-4.7309,-4.7309,-4.7309,-4.7309,-4.7309,-4.7309,-4.7309,-4.7578,-4.7967,-4.7489,-4.7698,-4.8297,0.0,0.0,0.0,0.0,0.0,0.0,0.0,0.0,0.0,0.0,0.0,0.0,-4.817,-4.8624,-4.9059,-4.8798,0.0,0.0,0.0,0.0,0.0,0.0,0.0,0.0,0.0,0.0,0.0,0.0,0.0,0.0,0.0,0.0,0.0,0.0,0.0,0.0,0.0,0.0,0.0,0.0,0.0,0.0,0.0,0.0,0.0,0.0,0.0,0.0,0.0,-6.6564,-6.6215,-6.6215,-6.5577,-6.5257,-6.5257,-6.5257,-6.5606,-6.6215,-6.6215,-6.6099,-6.5896,-6.546,-6.517,-6.4996,-6.4996,-6.5112,-6.5286,-6.5489,-6.5548,-6.5606,-6.6041,-6.5925,-6.5728,0.0,0.0,0.0,0.0,0.0,0.0,0.0,0.0,0.0,0.0,-4.0327,-4.0001,0.0,0.0,0.0,0.0,0.0,0.0,0.0,-4.329,-4.329,-4.329,-4.3559,-4.4127,-4.5095,-4.6172,-4.692,-4.7309,-4.7309,-4.7309,-4.7309,-4.7309,-4.7578,-4.8087,-4.8087,-4.8087,-4.8087,-4.8356,-4.8237,-4.7938,-4.8327,-4.8521,-4.8537,0.0,0.0,0.0,0.0,0.0,0.0,0.0,0.0,0.0,0.0,0.0,0.0,-4.8663,-4.9175,-4.964,-4.9524,0.0,0.0,0.0,0.0,0.0,0.0,0.0,0.0,0.0,0.0,0.0,0.0,0.0,0.0,0.0,0.0,0.0,0.0,0.0,0.0,0.0,0.0,0.0,0.0,0.0,0.0,0.0,0.0,0.0,0.0,0.0,0.0,0.0,-6.5635,-6.517,-6.517,-6.4561,-6.4241,-6.4241,-6.4241,-6.4444,-6.4822,-6.5315,-6.5548,-6.5519,-6.488,-6.4473,-6.4241,-6.4502,-6.4619,-6.4619,-6.4745,-6.4716,-6.4648,-6.5153,-6.5065,-6.4827,0.0,0.0,0.0,0.0,0.0,0.0,0.0,0.0,0.0,0.0,-4.0417,-4.0405,0.0,0.0,0.0,0.0,0.0,0.0,0.0,0.0,-4.3319,-4.3379,-4.4007,-4.5005,-4.6249,-4.692,-4.7249,-4.7309,-4.7309,-4.7309,-4.7309,-4.7369,-4.8027,-4.9209,-4.9209,-4.9209,-4.9269,-4.9793,-4.903,-4.7595,-4.9388,-4.964,-4.9024,-4.9618,0.0,0.0,0.0,0.0,0.0,0.0,0.0,0.0,0.0,0.0,0.0,-4.8827,-4.9262,-4.995,0.0,0.0,0.0,0.0,0.0,0.0,0.0,0.0,0.0,0.0,0.0,0.0,0.0,0.0,0.0,0.0,0.0,0.0,0.0,0.0,0.0,0.0,0.0,0.0,0.0,0.0,0.0,0.0,0.0,0.0,0.0,0.0,0.0,-6.5686,-6.4526,-6.3888,-6.3888,-6.337,-6.308,-6.308,-6.308,-6.308,-6.3138,-6.4299,-6.4822,-6.4793,-6.4212,-6.3632,-6.32,-6.3719,-6.3951,-6.4014,-6.4326,-6.4264,-6.4014,-6.4326,-6.4264,-6.4164,0.0,0.0,0.0,0.0,0.0,0.0,0.0,0.0,0.0,0.0,0.0,0.0,0.0,0.0,0.0,0.0,0.0,0.0,0.0,0.0,-4.3529,-4.4077,-4.4736,-4.5484,-4.6249,-4.6471,-4.68,-4.7309,-4.7309,-4.7309,-4.7309,-4.7848,-4.8237,-4.8506,-4.8506,-4.8506,-4.8506,-4.8656,-4.8641,-4.8625,-4.9269,-4.9475,-4.9385,-4.9533,-4.9493,0.0,0.0,0.0,0.0,0.0,0.0,0.0,-4.9465,-4.9843,-5.0162,-4.964,-4.993,0.0,0.0,0.0,0.0,0.0,0.0,0.0,0.0,0.0,0.0,0.0,0.0,0.0,0.0,0.0,0.0,0.0,0.0,0.0,0.0,0.0,0.0,0.0,0.0,0.0,0.0,0.0,0.0,0.0,0.0,0.0,0.0,0.0,0.0,-6.441,-6.369,-6.3283,-6.3283,-6.3167,-6.308,0.0,-6.308,-6.308,-6.3109,-6.337,-6.3516,-6.3486,-6.3341,-6.3349,-6.3509,-6.3626,-6.3684,-6.3684,-6.3746,-6.3746,-6.3684,-6.3746,-6.3901,-6.4144,0.0,0.0,0.0,0.0,0.0,0.0,0.0,0.0,0.0,0.0,0.0,0.0,0.0,0.0,0.0,0.0,0.0,0.0,0.0,0.0,-4.3738,-4.4736,-4.5095,-4.5753,-4.677,-4.68,-4.695,-4.7309,-4.7309,-4.7459,-4.7788,-4.8117,-4.8955,-5.0122,-4.9494,-4.9583,-5.0122,-4.9494,-4.8955,-4.8686,-4.9312,-4.9367,-4.9027,-4.8887,-4.908,-4.9339,-4.8904,0.0,0.0,0.0,0.0,0.0,0.0,0.0,-5.0133,-4.9834,-5.0162,-5.0888,0.0,0.0,0.0,0.0,0.0,0.0,0.0,0.0,0.0,0.0,0.0,0.0,0.0,0.0,0.0,0.0,0.0,0.0,0.0,0.0,0.0,0.0,0.0,0.0,0.0,0.0,0.0,0.0,0.0,0.0,0.0,-6.488,-6.4241,-6.3603,-6.2964,-6.2616,-6.2616,-6.2325,-6.218,-6.218,-6.218,-6.218,-6.2209,-6.3004,-6.3182,-6.2861,-6.2861,-6.2747,-6.2666,-6.2988,-6.3134,-6.3134,-6.3409,-6.3499,-6.3407,-6.3469,-6.353,-6.3737,0.0,0.0,0.0,0.0,0.0,0.0,0.0,0.0,0.0,0.0,0.0,0.0,0.0,0.0,0.0,0.0,0.0,0.0,0.0,0.0,0.0,-4.5244,-4.5394,-4.6052,-4.7279,-4.7309,-4.7309,-4.7309,-4.7309,-4.7818,-4.8805,-4.8566,-4.9613,-5.1648,-5.0614,-5.084,-5.1798,-5.0644,-4.9463,-4.8432,-4.9488,-4.936,-4.8488,-4.8378,-4.892,-4.9524,-4.8526,-4.9204,-5.0647,-5.0095,0.0,0.0,0.0,0.0,-4.9863,-4.9698,-5.0124,-5.0772,0.0,0.0,0.0,0.0,0.0,0.0,0.0,0.0,0.0,0.0,0.0,0.0,0.0,0.0,0.0,0.0,0.0,0.0,0.0,0.0,0.0,0.0,0.0,0.0,0.0,0.0,0.0,0.0,0.0,0.0,-6.4706,-6.3951,-6.3312,-6.279,-6.2122,-6.1832,-6.1948,-6.1454,-6.1193,-6.1193,-6.1253,-6.1253,-6.1222,-6.2723,-6.302,-6.2432,-6.2432,-6.217,-6.185,-6.2407,-6.2613,-6.2613,-6.315,-6.3209,-6.3001,-6.3269,-6.3209,-6.3327,0.0,0.0,0.0,0.0,0.0,0.0,0.0,0.0,0.0,0.0,-3.9481,0.0,0.0,0.0,0.0,0.0,0.0,0.0,0.0,0.0,0.0,-4.5274,-4.5873,-4.6531,-4.7279,-4.7309,-4.7309,-4.7309,-4.7309,0.0,0.0,0.0,-4.9359,-4.9719,-5.0062,-5.0285,-5.0435,-5.0255,-4.9518,-4.8558,-4.9482,-4.9392,-4.869,-4.8927,-4.927,-4.9688,-4.9543,-5.0008,-5.0705,-5.0618,-5.0975,0.0,0.0,0.0,-5.0423,-4.9892,-4.9727,0.0,0.0,0.0,0.0,0.0,0.0,0.0,0.0,0.0,0.0,0.0,0.0,0.0,0.0,0.0,0.0,0.0,0.0,0.0,0.0,0.0,0.0,0.0,0.0,0.0,0.0,0.0,0.0,0.0,0.0,0.0,-6.337,-6.2209,-6.1542,-6.1454,-6.0787,-6.0729,-6.1309,-6.1251,-6.1193,-6.1193,-6.1464,-6.1404,-6.1253,-6.2263,-6.2381,-6.173,-6.173,-6.1998,-6.2498,-6.2587,-6.2616,-6.2616,-6.2675,-6.2675,-6.2675,-6.2675,-6.285,-6.3292,0.0,0.0,0.0,0.0,0.0,0.0,0.0,0.0,0.0,0.0,0.0,-3.9768,0.0,0.0,0.0,0.0,0.0,0.0,0.0,0.0,0.0,-4.4736,-4.5753,-4.6471,-4.6741,-4.713,-4.7309,-4.7309,0.0,0.0,0.0,-5.0451,-5.1349,0.0,-5.2276,-5.2097,-5.2336,-5.0481,-4.9596,-4.9397,-4.8814,-4.9009,-4.956,-4.8858,-4.9299,-5.0182,-4.9601,-5.0164,-5.1149,-5.0801,-5.1323,-5.1991,-5.1004,0.0,0.0,0.0,-4.9717,0.0,0.0,0.0,0.0,0.0,0.0,0.0,0.0,0.0,0.0,0.0,0.0,0.0,0.0,0.0,0.0,0.0,0.0,0.0,0.0,0.0,0.0,0.0,0.0,0.0,0.0,0.0,0.0,0.0,0.0,-6.3225,-6.2558,-6.1687,-6.1193,-6.1193,-6.0903,-6.0903,-6.1193,-6.1024,-6.0879,-6.0939,-6.0823,-6.097,-6.1434,-6.1674,-6.1821,-6.191,-6.2116,-6.2292,-6.2615,-6.2615,-6.2615,-6.2615,-6.2789,-6.2905,-6.2905,-6.2905,-6.2963,-6.3199,0.0,0.0,0.0,0.0,0.0,0.0,0.0,0.0,0.0,0.0,0.0,0.0,0.0,0.0,0.0,0.0,0.0,0.0,0.0,0.0,0.0,-4.4556,-4.5693,-4.6411,-4.6561,-4.704,-4.7309,-4.7309,0.0,0.0,-5.099,-5.1678,-5.3832,0.0,-5.473,-5.3982,-5.4281,-5.1468,-5.0495,-5.0636,-4.8913,-4.9081,-5.0114,-4.9209,-4.9718,-5.0822,-4.9854,-5.0534,-5.1759,-5.112,-5.1759,-5.2601,-5.1323,-5.0917,0.0,0.0,0.0,0.0,0.0,0.0,0.0,0.0,0.0,0.0,0.0,0.0,0.0,0.0,0.0,0.0,0.0,0.0,0.0,0.0,0.0,0.0,0.0,0.0,0.0,0.0,0.0,0.0,0.0,0.0,0.0,0.0,0.0,-6.2558,-6.189,-6.128,-6.0932,-6.0932,-6.0787,-6.0787,-6.0932,-6.0588,-6.0501,-6.053,-6.0319,-6.0673,-6.1468,-6.1408,-6.1672,-6.2234,-6.2498,-6.2673,-6.2731,-6.2731,-6.2731,-6.2731,-6.3021,-6.3079,-6.3079,-6.3079,-6.3079,-6.3169,0.0,0.0,0.0,0.0,0.0,0.0,0.0,0.0,0.0,0.0,0.0,0.0,-4.1265,-4.1961,-4.2581,-4.32,-4.326,0.0,0.0,0.0,0.0,-4.5214,-4.5933,0.0,-4.7249,-4.7279,-4.7309,0.0,0.0,0.0,-5.3054,-5.3743,-5.6137,-5.9757,-5.6526,-5.5119,-5.5029,-5.3593,-5.2781,-5.228,-5.0854,-5.0095,-4.9776,-5.0357,-5.0946,-5.1468,-5.0851,-5.1461,-5.2426,-5.1788,-5.2426,-5.3239,-5.1962,-5.1556,-5.1323,0.0,0.0,0.0,0.0,0.0,0.0,0.0,0.0,0.0,0.0,0.0,0.0,0.0,0.0,0.0,0.0,0.0,0.0,0.0,0.0,0.0,0.0,0.0,0.0,0.0,0.0,0.0,0.0,0.0,0.0,0.0,0.0,-6.189,-6.128,-6.0613,-6.0264,-6.0264,-5.9684,-5.9684,-6.0235,-5.9888,-5.9856,-6.0113,-6.0455,-6.0753,-6.1144,-6.1749,-6.2221,-6.2556,-6.2615,-6.2789,-6.3079,-6.3079,-6.3079,-6.3079,-6.3079,-6.3079,-6.3079,-6.3079,-6.3079,-6.3169,0.0,0.0,0.0,0.0,0.0,0.0,0.0,0.0,0.0,0.0,0.0,0.0,0.0,-4.2261,-4.2611,-4.323,-4.3678,0.0,0.0,0.0,0.0,-4.5304,-4.6352,-4.686,-4.6681,-4.71,0.0,0.0,0.0,-4.8895,-5.1319,-5.2396,-5.4371,-5.6944,-5.6585,-5.6406,-5.6286,-5.4102,0.0,0.0,-5.1493,-5.1346,-5.1691,-5.1108,-5.1445,-5.2129,-5.1233,-5.1911,-5.3152,-5.292,-5.3413,-5.3936,-5.263,-5.1962,-5.1352,-5.0046,-5.0037,0.0,0.0,0.0,0.0,0.0,0.0,0.0,0.0,0.0,0.0,0.0,0.0,0.0,0.0,0.0,0.0,0.0,0.0,0.0,0.0,0.0,0.0,0.0,0.0,0.0,0.0,0.0,0.0,0.0,0.0,0.0,-6.1222,-6.0206,-5.98,-6.0177,-5.9626,-5.9364,-5.9563,-5.9612,-5.9691,-5.9747,-5.9666,-6.0053,-6.081,-6.1237,-6.1765,-6.2308,-6.2726,-6.3021,-6.3079,-6.3079,-6.3079,-6.3079,-6.3079,-6.3079,-6.3079,-6.3079,-6.3079,-6.3109,0.0,0.0,0.0,0.0,0.0,0.0,0.0,0.0,-3.9961,-4.0337,0.0,0.0,0.0,0.0,-4.294,-4.3559,-4.4047,-4.4407,-4.4616,-4.5693,-4.6112,-4.5663,-4.6711,-4.71,-4.6681,0.0,0.0,0.0,0.0,0.0,0.0,-5.1588,-5.3384,-5.5538,-5.5957,-5.6735,0.0,0.0,0.0,-5.4327,0.0,-5.2759,-5.3642,-5.2793,-5.3033,-5.3727,-5.28,-5.3273,-5.4269,-5.4065,-5.4298,-5.4444,-5.3134,-5.1918,-5.083,-5.0191,-5.0211,0.0,0.0,0.0,0.0,0.0,0.0,0.0,0.0,0.0,0.0,0.0,0.0,0.0,0.0,0.0,0.0,0.0,0.0,0.0,0.0,0.0,0.0,0.0,0.0,0.0,0.0,0.0,0.0,0.0,0.0,0.0,-6.1053,-6.0034,-5.9539,-5.9859,-5.948,-5.9154,-5.9014,-5.9207,-5.9317,-5.9428,-5.92,-5.9558,-6.0466,-6.0902,-6.1463,-6.2121,-6.278,-6.3079,-6.3079,-6.3079,-6.3079,-6.3079,-6.3079,-6.3079,-6.3079,-6.3079,-6.3079,-6.3079,0.0,0.0,0.0,0.0,0.0,0.0,0.0,0.0,-4.0648,-4.0494,0.0,0.0,0.0,0.0,0.0,-4.4287,-4.4377,-4.4646,-4.5274,-4.5963,-4.6309,-4.6309,0.0,0.0,0.0,0.0,0.0,0.0,0.0,0.0,0.0,0.0,-5.3503,-5.6008,-5.473,-5.5957,-5.886,0.0,-5.6698,-5.7416,0.0,-5.4267,-5.5453,0.0,0.0,0.0,-5.5634,-5.5663,-5.5874,-5.523,-5.4972,-5.4767,-5.3444,-5.1487,-4.9892,-5.0531,-5.027,-4.9776,0.0,0.0,0.0,0.0,0.0,0.0,0.0,0.0,0.0,0.0,0.0,0.0,0.0,0.0,0.0,0.0,0.0,0.0,0.0,0.0,0.0,0.0,0.0,0.0,0.0,0.0,0.0,0.0,0.0,-6.0354,-6.0677,-6.0033,-5.9561,-5.9197,-5.9197,-5.904,-5.8694,-5.8694,-5.8828,-5.9099,-5.9099,-5.9428,-6.0086,-6.0775,-6.1433,-6.2061,-6.275,-6.3049,-6.3049,-6.3079,-6.3079,-6.3079,-6.3079,-6.3079,-6.3079,-6.3079,-6.3079,-6.3079,0.0,0.0,0.0,0.0,0.0,-4.0411,-4.0231,-4.0808,-4.134,0.0,0.0,0.0,-4.3658,-4.4347,-4.4825,-4.5005,-4.5484,-4.5843,-4.6022,-4.6651,-4.704,-4.704,-4.7219,-4.7309,-4.7309,0.0,0.0,0.0,0.0,0.0,0.0,0.0,0.0,0.0,-5.3204,-5.4521,-5.6166,-5.464,0.0,-5.6822,-5.5137,-5.5506,0.0,0.0,0.0,0.0,0.0,-5.6355,-5.7584,-5.7159,-5.7155,-5.6878,-5.3906,-5.1808,-5.0473,-5.0895,-5.1008,-5.1141,-5.1312,0.0,0.0,0.0,0.0,0.0,0.0,0.0,0.0,0.0,0.0,0.0,0.0,0.0,0.0,0.0,0.0,0.0,0.0,0.0,0.0,0.0,0.0,0.0,0.0,0.0,0.0,0.0,-6.0121,-6.0176,-6.0234,-5.9703,-5.9056,-5.849,-5.8711,-5.8817,-5.8694,-5.8882,-5.9045,-5.9099,-5.9099,-5.9189,-5.9398,-6.0057,-6.0475,-6.0715,-6.1852,-6.2361,-6.2391,-6.2869,-6.3079,-6.3079,-6.3079,-6.3079,-6.3079,-6.3079,-6.3079,-6.3079,0.0,0.0,0.0,0.0,0.0,-4.0726,-4.0427,-4.1205,-4.1961,0.0,0.0,0.0,-4.4586,-4.5065,-4.5394,-4.5693,-4.6082,-4.6441,-4.6711,-4.71,-4.7309,-4.7309,-4.7309,-4.7309,-4.7309,-4.7309,0.0,0.0,0.0,0.0,0.0,0.0,0.0,0.0,0.0,0.0,0.0,0.0,0.0,0.0,-5.6064,0.0,0.0,-5.7772,-5.8206,0.0,0.0,0.0,-6.0398,-5.961,-5.8958,-5.7917,-5.4936,-5.3349,-5.2573,-5.2017,-5.2105,-5.2339,-5.2226,-5.1938,-5.1932,0.0,0.0,0.0,0.0,0.0,0.0,0.0,0.0,0.0,0.0,0.0,0.0,0.0,0.0,0.0,0.0,0.0,0.0,0.0,0.0,0.0,0.0,0.0,0.0,-5.9712,-5.9734,-5.9578,-5.9129,-5.8885,-5.8406,-5.7778,-5.8208,-5.844,-5.844,-5.8871,-5.9099,-5.9099,-5.9099,-5.9099,-5.9129,-5.9787,-6.0086,-6.0146,-6.1224,-6.1852,-6.2121,-6.251,-6.2839,-6.3079,-6.3079,-6.3079,-6.3079,-6.3079,-6.3079,-6.3079,0.0,0.0,-3.9619,-3.9493,-4.0666,-4.1414,-4.0816,-4.1773,-4.265,0.0,-4.3329,-4.4257,-4.5484,-4.5633,-4.5873,-4.6501,-4.6429,-4.6681,-4.7279,-4.7309,-4.7309,-4.7309,-4.7309,-4.7309,-4.7309,-4.7309,0.0,0.0,0.0,0.0,0.0,0.0,-4.9553,-5.0226,0.0,0.0,0.0,0.0,0.0,-5.6892,-5.7019,-5.8787,0.0,0.0,-6.1819,-6.3262,-6.3209,-6.3476,-6.3564,-6.2197,-6.0443,-5.8426,-5.6261,-5.5447,-5.5011,-5.3693,-5.3385,-5.3411,-5.2968,-5.2679,-5.2762,-5.4046,-5.3002,0.0,-5.4318,-5.3502,-5.2704,0.0,0.0,0.0,0.0,0.0,0.0,0.0,0.0,0.0,0.0,0.0,0.0,0.0,0.0,0.0,0.0,-6.0501,-6.0354,-5.9739,-5.935,-5.88,-5.7773,-5.7952,-5.7812,-5.7124,-5.7693,-5.8052,-5.8112,-5.871,-5.9039,-5.9099,-5.9099,-5.9099,-5.9129,-5.9697,-5.9967,-6.0027,-6.0715,-6.1343,-6.1882,-6.2032,-6.248,-6.3079,-6.3079,-6.3079,-6.3079,-6.3079,-6.3079,-6.3079,0.0,-4.0277,-4.0816,-4.0307,-4.1743,-4.291,-4.2821,-4.3449,-4.4107,-4.4646,-4.5783,-4.683,-4.7608,-4.7698,-4.7758,-4.7908,-4.7429,-4.716,-4.7309,-4.7309,-4.7309,-4.7309,-4.7309,-4.7309,-4.7309,-4.7309,-4.7309,0.0,0.0,0.0,0.0,0.0,-4.9105,-5.0196,0.0,0.0,0.0,0.0,0.0,-5.5628,-5.6183,0.0,-6.2257,-6.1638,-6.2616,-6.4249,-6.4007,-6.4277,-6.4516,-6.326,-6.1327,-5.9254,-5.7689,-5.6018,-5.4702,-5.5153,-5.4753,-5.4466,-5.556,-5.567,-5.5335,-5.4827,-5.5175,0.0,-5.2931,-5.3109,-5.3704,0.0,0.0,0.0,0.0,0.0,0.0,0.0,0.0,0.0,0.0,0.0,0.0,0.0,0.0,0.0,0.0,-6.0484,-6.0027,-5.9685,-5.9284,-5.8787,-5.8065,-5.8058,-5.7812,-5.7124,-5.7214,-5.7573,-5.8058,-5.8261,-5.859,-5.9099,-5.9099,-5.9099,-5.9099,-5.9249,-5.9308,-5.9338,-5.9997,-6.0356,-6.0565,-6.1642,-6.248,-6.3079,-6.3079,-6.3079,-6.3079,-6.3079,-6.3079,-6.3079,-4.0554,-4.0935,-4.1422,-4.1422,-4.2462,-4.3409,-4.3808,-4.4377,-4.5035,-4.5723,-4.698,-4.8027,-4.876,-4.8476,-4.8297,-4.8297,-4.7698,-4.7309,-4.7309,-4.7309,-4.7309,-4.7309,-4.7309,-4.7459,-4.7788,-4.7489,-4.7459,-4.7788,0.0,0.0,0.0,0.0,0.0,0.0,0.0,0.0,0.0,0.0,-5.3473,-5.491,-5.7056,0.0,-6.2877,-6.3,-6.4219,-6.5769,-6.5647,-6.5322,-6.4844,-6.3528,-6.2363,0.0,-5.8505,-5.7946,-5.8035,-5.7054,-5.6756,-5.6756,-5.6832,-5.6674,-5.642,-5.6058,-5.5857,0.0,0.0,-5.3009,0.0,0.0,0.0,0.0,0.0,0.0,0.0,0.0,0.0,0.0,0.0,0.0,0.0,0.0,0.0,0.0,0.0,-5.9974,-5.9598,-5.8887,-5.8692,-5.8201,-5.7214,-5.7154,-5.6855,-5.6166,-5.6466,-5.6795,-5.7154,-5.7812,-5.8291,-5.862,-5.8949,-5.9099,-5.9099,-5.9099,-5.9099,-5.9129,-5.9458,-5.9787,-6.0146,-6.0805,-6.1672,-6.263,-6.2959,-6.3079,-6.3079,-6.3079,-6.3079,-6.3079,-4.1482,-4.1594,-4.1923,-4.25,-4.318,-4.3888,-4.4586,-4.5155,-4.5843,-4.677,-4.7818,-4.8805,-4.9778,-4.9015,-4.8686,-4.9194,-4.8057,-4.7519,-4.8027,-4.7578,-4.7309,-4.7309,-4.7309,-4.7549,-4.8087,-4.7578,-4.7638,-4.8297,0.0,0.0,0.0,0.0,0.0,0.0,0.0,0.0,0.0,0.0,0.0,-5.5188,0.0,-6.0641,-6.248,-6.3682,-6.5173,-6.664,-6.6909,-6.6221,-6.5024,-6.3707,-6.3169,-6.257,-5.9538,-6.0011,0.0,0.0,0.0,0.0,0.0,0.0,0.0,0.0,0.0,-5.573,0.0,0.0,0.0,0.0,0.0,0.0,0.0,0.0,0.0,0.0,0.0,0.0,0.0,0.0,0.0,0.0,0.0,0.0,0.0,-5.9059,-5.8798,-5.7969,-5.7932,-5.7423,-5.6278,-5.6218,-5.5867,-5.5209,-5.5718,-5.6047,-5.6218,-5.7214,-5.7872,-5.8141,-5.865,-5.8979,-5.9099,-5.9099,-5.9099,-5.9099,-5.9099,-5.9398,-5.9907,-6.0027,-6.0805,-6.1972,-6.263,-6.2959,-6.3079,-6.3079,-6.3079,-6.3079,-4.1594,-4.2312,-4.311,-4.317,-4.4257,-4.5304,-4.595,-4.613,-4.686,-4.873,-4.912,-4.9853,-5.1678,-5.0242,-5.0138,-5.2426,-4.9374,-4.8297,-5.0631,-4.8596,-4.7309,-4.7309,-4.7309,-4.7339,-4.7429,-4.7339,-4.7638,-4.8297,0.0,0.0,0.0,0.0,0.0,0.0,-5.1199,0.0,0.0,0.0,-5.479,0.0,-5.8746,-5.9314,0.0,-6.1646,-6.3559,-6.5413,-6.658,-6.652,-6.5682,0.0,-6.3528,-6.2899,0.0,-6.1014,-6.0386,-6.0629,0.0,0.0,0.0,0.0,0.0,0.0,-5.9613,-5.9434,0.0,0.0,-5.5269,-5.3574,0.0,0.0,0.0,0.0,0.0,0.0,0.0,0.0,0.0,0.0,0.0,0.0,0.0,0.0,0.0,0.0,-5.7311,-5.7214,-5.7214,-5.6915,-5.6248,-5.6218,-5.5867,-5.5209,-5.5269,-5.5598,-5.6166,-5.6316,-5.6974,-5.8112,-5.8201,-5.853,-5.9099,-5.9099,-5.9099,-5.9099,-5.9099,-5.9129,-5.9249,-5.9847,-6.0535,-6.1283,-6.1942,-6.257,-6.3079,-6.3079,-6.3079,-6.3079,-4.2611,-4.2901,-4.3529,-4.4347,-4.4915,-4.5663,-4.6741,-4.8177,-4.9314,-4.9763,-5.1169,-5.2606,-5.3803,-5.2845,-5.2576,-5.3683,-5.1558,-5.0301,0.0,-4.9254,-4.8626,-4.894,-4.8656,-4.8805,-4.9553,-4.8835,-4.8775,-4.9434,-4.9434,0.0,0.0,0.0,0.0,0.0,-5.1229,0.0,-5.2636,0.0,0.0,0.0,0.0,0.0,0.0,-6.1852,-6.3947,-6.5114,-6.5652,-6.5413,-6.4635,0.0,-6.2989,0.0,0.0,0.0,0.0,-6.1702,0.0,0.0,0.0,0.0,0.0,0.0,0.0,0.0,-5.6765,-5.5628,-5.491,-5.4431,0.0,0.0,0.0,0.0,0.0,0.0,0.0,0.0,0.0,0.0,0.0,0.0,0.0,0.0,0.0,0.0,0.0,0.0,-5.6196,-5.5867,-5.5628,-5.5598,-5.5478,-5.5209,-5.5179,-5.5329,-5.5598,-5.6038,-5.6615,-5.7513,-5.7932,-5.8471,-5.9099,-5.9099,-5.9099,-5.9099,-5.9099,-5.9099,-5.9129,-5.9398,-5.9907,-6.0595,-6.1253,-6.2151,-6.3079,-6.3079,-6.3079,-6.3079,-4.3529,-4.3559,-4.3958,-4.5095,0.0,-4.6022,-4.7369,-4.9194,-5.0511,-5.0704,-5.2306,0.0,-5.5299,-5.488,0.0,0.0,-5.4251,-5.2875,0.0,0.0,-5.0032,-4.9972,-4.9673,-4.9883,-5.0661,-4.9942,-4.9763,-5.0196,-5.0196,0.0,0.0,0.0,0.0,0.0,0.0,-5.2396,-5.3084,0.0,0.0,-5.6226,-5.7633,-5.8411,-5.9069,-6.2271,-6.3797,-6.4276,-6.4635,-6.4306,-6.3588,-6.269,-6.269,0.0,-6.1942,-6.2301,-6.2959,0.0,0.0,0.0,-6.1553,0.0,0.0,0.0,0.0,0.0,0.0,-5.6286,-5.5418,-5.5897,0.0,0.0,0.0,0.0,-5.5209,-5.5029,0.0,0.0,0.0,0.0,0.0,0.0,0.0,0.0,0.0,0.0,0.0,-5.5409,-5.5089,-5.491,-5.491,-5.5089,-5.5179,-5.5179,-5.5179,-5.5179,-5.5179,-5.5658,-5.6286,-5.7094,-5.7603,-5.8291,-5.9099,-5.9099,-5.9099,-5.9099,-5.9099,-5.9099,-5.9099,-5.9099,-5.9488,-6.0146,-6.0835,-6.1822,-6.2839,-6.3019,-6.3079,-6.3079,-4.4167,-4.4287,-4.4496,0.0,0.0,0.0,0.0,0.0,0.0,0.0,0.0,0.0,0.0,0.0,0.0,0.0,0.0,-5.6017,-5.5987,0.0,-5.1259,-4.9419,-4.9883,-4.9942,-4.9389,-4.9912,-5.0166,-5.0196,-5.0196,0.0,0.0,0.0,0.0,0.0,0.0,-5.4491,-5.5209,-5.7154,-5.9099,-6.0894,-6.0954,-6.1762,-6.2839,0.0,-6.2181,-6.2361,-6.3588,0.0,0.0,-6.3049,-6.3049,0.0,0.0,0.0,0.0,0.0,0.0,0.0,0.0,0.0,0.0,-6.1433,0.0,0.0,0.0,0.0,-5.7992,-5.8022,-5.8501,-5.8919,-5.8979,-5.8441,-5.7782,-5.7124,-5.5957,0.0,0.0,0.0,0.0,0.0,0.0,0.0,0.0,0.0,0.0,-5.3264,-5.3892,-5.4251,-5.4251,-5.485,-5.5179,-5.5179,-5.5179,-5.5179,-5.5179,-5.5209,-5.5867,-5.7094,-5.7124,-5.7812,-5.9099,-5.9099,-5.9099,-5.9099,-5.9099,-5.9099,-5.9099,-5.9099,-5.9488,-6.0146,-6.0835,-6.1523,-6.2211,-6.2839,-6.3079,-6.3079,-4.4825,-4.5334,-4.5723,0.0,0.0,0.0,0.0,-5.0032,0.0,0.0,0.0,0.0,0.0,-6.1553,-6.1972,0.0,0.0,-5.9997,-5.8231,-5.6436,0.0,-5.4461,-5.3832,-5.3414,-5.3204,-5.2516,-5.1977,-5.1528,-5.1109,0.0,0.0,0.0,0.0,0.0,0.0,-5.3892,0.0,0.0,0.0,0.0,0.0,-6.1912,-6.3049,0.0,0.0,-6.281,-6.3228,-6.3258,0.0,-6.3079,-6.3079,-6.3079,-6.3079,-6.3079,-6.3019,-6.281,-6.2899,-6.3109,0.0,0.0,-6.3468,-6.263,0.0,0.0,0.0,0.0,0.0,-5.8112,-5.865,-5.8979,-5.853,-5.862,-5.8411,-5.7274,-5.6735,-5.6137,0.0,0.0,0.0,0.0,0.0,0.0,0.0,0.0,0.0,-5.3144,-5.2995,-5.3264,-5.4162,-5.4431,-5.473,-5.5179,-5.5179,-5.5179,-5.5179,-5.5179,-5.5628,-5.6496,-5.6885,-5.7573,-5.8471,-5.8919,-5.9099,-5.9099,-5.9099,-5.9099,-5.9099,-5.9099,-5.9249,-5.9548,-6.0685,-6.1253,-6.1583,-6.266,-6.3079,-6.3079,-4.5633,0.0,0.0,0.0,0.0,0.0,0.0,0.0,0.0,0.0,-5.88,0.0,-6.4066,0.0,-6.5533,0.0,-6.4695,-6.3139,-6.0027,-5.9009,0.0,-5.6825,-5.6196,-5.5538,-5.485,-5.467,-5.3683,-5.1858,-5.2157,-5.2037,0.0,0.0,0.0,0.0,0.0,0.0,0.0,0.0,-5.9039,0.0,0.0,-6.2181,0.0,0.0,-6.3079,-6.3079,0.0,-6.3079,-6.3079,-6.3079,-6.3079,-6.3079,-6.3079,-6.3079,-6.3019,-6.278,-6.2899,-6.3109,-6.3288,-6.3647,0.0,-6.2929,-6.2271,0.0,-6.0116,0.0,-5.9548,0.0,-6.0057,-6.0386,-5.9967,-5.9638,-5.9099,-5.7992,-5.7214,-5.6555,0.0,-5.5269,-5.476,0.0,0.0,0.0,0.0,0.0,-5.2276,-5.2456,-5.2306,-5.2665,0.0,0.0,-5.4521,-5.5179,-5.5179,-5.5179,-5.5179,-5.5179,-5.5538,-5.6218,-5.6585,-5.7244,-5.8141,-5.856,-5.889,-5.9099,-5.9099,-5.9099,-5.9099,-5.9099,-5.9099,-5.9219,-6.0326,-6.0894,-6.1283,-6.26,-6.3079,-6.3079,0.0,0.0,0.0,0.0,-4.8027,0.0,0.0,0.0,-5.5957,0.0,-6.0625,-6.3049,-6.5054,-6.643,-6.7178,-6.7148,-6.7148,-6.5503,-6.1642,-6.1373,0.0,0.0,-5.7034,-5.6466,-5.4551,-5.6226,-5.5299,-5.1558,0.0,0.0,0.0,0.0,0.0,0.0,-5.4341,0.0,-5.4521,-5.9129,-6.0715,-6.0356,-6.2301,-6.272,-6.2241,-6.2839,-6.3109,-6.3109,-6.3079,-6.3079,-6.3079,-6.3079,-6.3079,-6.3079,-6.3079,-6.3079,-6.2959,-6.2331,-6.26,-6.2959,-6.2361,-6.3079,-6.3707,-6.248,-6.263,0.0,0.0,0.0,-6.2091,0.0,0.0,-6.3049,-6.2989,-6.1403,-5.9847,-5.9159,-5.7423,-5.6008,-5.5269,-5.464,-5.4491,-5.5119,0.0,0.0,0.0,-5.2217,-5.1917,-5.1259,-5.1798,-5.2456,0.0,0.0,-5.4461,-5.5179,-5.5179,-5.5179,-5.5179,-5.5179,-5.5508,-5.6188,-5.6166,-5.6825,-5.8082,-5.8058,-5.8471,-5.9099,-5.9099,-5.9099,-5.9099,-5.9099,-5.9099,-5.9159,-5.9817,-6.0535,-6.1313,-6.26,-6.3079,-6.3079,-4.71,-4.7848,-4.8656,0.0,-4.8835,-4.9404,0.0,0.0,0.0,0.0,-6.3378,-6.5951,-6.8435,-6.9423,-6.9722,-6.9243,-6.9213,0.0,0.0,0.0,0.0,-6.1403,-6.0984,-6.0116,-5.862,-5.8112,-5.7363,-5.6346,0.0,0.0,-5.4401,0.0,0.0,0.0,0.0,0.0,-5.4491,-5.859,-6.0835,-6.1672,-6.266,-6.3258,0.0,0.0,-6.3378,-6.3707,-6.3228,-6.3079,-6.3079,-6.3079,-6.3079,-6.3079,-6.3079,-6.3079,-6.3049,-6.2869,-6.2959,-6.3139,-6.3438,-6.3737,-6.3917,-6.3588,-6.3288,-6.2869,0.0,0.0,0.0,0.0,0.0,-6.278,-6.1792,-6.0775,-5.9697,-5.856,-5.7124,-5.6008,-5.5269,-5.5029,-5.4999,-5.5179,0.0,0.0,0.0,-5.2486,-5.1917,-5.1259,-5.1379,-5.1977,0.0,0.0,0.0,-5.5149,-5.5179,-5.5179,-5.5179,-5.5179,-5.5269,-5.5448,-5.5927,-5.6585,-5.7363,-5.7902,-5.8471,-5.9099,-5.9099,-5.9099,-5.9099,-5.9099,-5.9099,-5.9159,-5.9817,-6.0805,-6.1942,-6.278,-6.3079,-6.3079,-4.8207,0.0,0.0,-5.1468,0.0,0.0,-5.4221,0.0,0.0,-6.1613,-6.4635,0.0,-6.8495,-7.026,-7.1068,-7.044,-7.0141,0.0,-6.7119,0.0,0.0,-6.3558,-6.2869,-6.1912,-6.0565,-5.9219,-5.8141,-5.7274,-5.5209,0.0,-5.473,0.0,0.0,0.0,0.0,-5.5179,0.0,-5.8411,-6.1014,-6.257,-6.2929,0.0,0.0,-6.3109,-6.3109,-6.3169,-6.3109,-6.3079,-6.3079,-6.3079,-6.3079,-6.3079,-6.3079,-6.3079,-6.3079,-6.3079,-6.3079,-6.3139,-6.3498,-6.3797,-6.3947,-6.3647,-6.3528,-6.3318,-6.266,-6.254,-6.254,0.0,-6.281,-6.275,-6.1732,-6.0745,-5.9548,-5.7932,-5.6825,-5.6137,-5.6047,-5.5777,0.0,0.0,-5.5628,0.0,0.0,-5.3025,-5.2366,-5.1708,-5.1379,-5.1798,0.0,0.0,0.0,-5.5149,-5.5478,-5.5478,-5.5179,-5.5478,-5.5628,-5.5628,-5.5987,-5.6645,-5.7543,-5.7962,-5.8471,-5.9099,-5.9099,-5.9099,-5.9099,-5.9099,-5.9099,-5.9159,-5.9817,-6.0745,-6.1732,-6.2421,-6.2839,-6.3079,0.0,0.0,0.0,0.0,0.0,0.0,0.0,-5.8052,0.0,-6.2391,0.0,-6.7537,-6.7627,-7.0111,-7.1577,-7.1068,0.0,-6.9333,-6.7508,-6.7298,-6.64,-6.4485,-6.3707,-6.275,-6.1523,-5.9997,-5.8441,-5.6825,-5.5059,-5.4311,0.0,0.0,0.0,0.0,0.0,0.0,0.0,-5.8381,-6.0954,0.0,-6.2839,-6.266,-6.2301,-6.2869,-6.272,-6.2301,-6.2869,-6.3079,-6.3079,-6.3079,-6.3079,-6.3079,-6.3079,-6.3079,-6.3079,-6.3079,-6.3079,-6.3079,-6.3079,-6.3468,-6.3737,-6.3199,-6.3468,-6.3737,-6.3199,-6.3079,-6.3079,-6.3079,-6.3079,-6.2869,-6.2211,0.0,0.0,0.0,-5.6645,-5.6466,-5.7004,-5.6645,0.0,0.0,0.0,0.0,0.0,0.0,-5.3025,-5.2366,-5.1708,0.0,0.0,0.0,0.0,-5.5149,-5.5837,-5.5897,-5.5329,0.0,-5.6338,-5.6338,-5.6338,-5.6944,-5.8112,-5.8112,-5.8471,-5.9099,-5.9099,-5.9099,-5.9099,-5.9099,-5.9099,-5.9159,-5.9817,-6.0505,-6.1194,-6.1852,-6.251,-6.3079,0.0,0.0,0.0,0.0,0.0,-5.853,-6.0715,-6.2151,-6.3737,-6.5862,-6.8525,-7.044,-7.0979,-7.1068,-7.1248,-7.1667,-7.1128,0.0,0.0,0.0,0.0,-6.652,-6.5323,-6.4306,-6.3498,-6.1134,-6.0027,-6.0236,-5.6196,-5.476,-5.5777,0.0,0.0,0.0,0.0,0.0,-5.5987,-5.8291,0.0,-5.9937,-6.1613,-6.254,-6.2929,-6.3019,-6.3019,-6.2929,-6.3049,-6.3079,-6.3079,-6.3079,-6.3079,-6.3079,-6.3079,-6.3079,-6.3079,-6.3079,-6.3079,-6.3079,-6.3079,-6.3169,-6.3199,-6.3109,-6.3169,-6.3199,-6.3109,-6.3079,-6.3079,-6.3079,-6.3079,-6.2869,-6.2211,0.0,0.0,0.0,-5.7004,-5.6974,-5.7094,0.0,0.0,0.0,0.0,-5.5867,0.0,0.0,0.0,0.0,0.0,0.0,0.0,0.0,0.0,0.0,-5.5837,0.0,0.0,0.0,-5.6944,-5.6944,-5.6944,-5.7363,-5.8112,-5.8112,-5.8471,-5.9099,-5.9099,-5.9099,-5.9099,-5.9099,-5.9099,-5.9159,-5.9817,-6.0505,-6.1194,-6.1852,-6.251,-6.3079,0.0,0.0,0.0,0.0,0.0,0.0,0.0,-6.5802,0.0,-6.655,-6.7867,-6.9004,-6.9303,-7.029,-7.1038,-7.1338,-7.1098,-7.05,-6.9542,-6.9183,-6.8405,-6.7059,-6.5742,-6.4874,-6.4545,-6.0954,-5.9727,-6.1104,-5.5777,-5.4012,-5.5598,0.0,0.0,0.0,0.0,-5.5089,0.0,0.0,0.0,-5.9757,-6.1433,-6.2271,-6.257,-6.257,-6.257,-6.257,-6.257,-6.278,-6.3079,-6.3079,-6.3079,-6.3079,-6.3079,-6.3079,-6.3079,-6.3079,-6.3079,-6.3079,-6.3079,-6.3079,-6.3079,-6.3079,-6.3079,-6.3079,-6.3079,-6.3079,-6.3079,-6.3079,-6.3079,-6.2869,-6.2211,-6.0745,0.0,-5.874,-5.8082,-5.7752,-5.8082,0.0,-5.7393,0.0,0.0,0.0,0.0,0.0,0.0,0.0,0.0,0.0,0.0,0.0,0.0,0.0,0.0,0.0,0.0,0.0,0.0,-5.7633,-5.7633,-5.7992,-5.862,-5.862,-5.88,-5.9099,-5.9099,-5.9099,-5.9099,-5.9099,-5.9099,-5.9129,-5.9458,-6.0206,-6.1164,-6.1463,-6.2211,-6.3079,0.0,-5.7633,0.0,0.0,-6.2121,0.0,-6.6011,-6.8375,-6.9273,-6.7298,-6.7508,-6.7867,-6.8016,-6.9752,-7.0949,-7.1098,-7.0979,-7.041,-6.9273,-6.9064,-6.8465,-6.7238,-6.5802,-6.5024,-6.5024,-6.0924,-5.9308,-6.0475,-5.5359,-5.3354,-5.4311,0.0,0.0,0.0,0.0,0.0,0.0,0.0,-5.88,-5.9997,-6.1343,-6.1972,-6.2091,-6.1942,-6.1882,-6.1912,-6.2061,-6.2421,-6.2899,-6.3019,-6.3079,-6.3079,-6.3079,-6.3079,-6.3079,-6.3079,-6.3079,-6.3079,-6.3079,-6.3079,-6.3079,-6.3079,-6.3079,-6.3079,-6.3079,-6.3079,-6.3079,-6.3079,-6.3079,-6.2869,-6.2211,-6.1224,0.0,0.0,0.0,0.0,0.0,0.0,-5.8171,0.0,0.0,0.0,-5.5329,0.0,0.0,0.0,0.0,-5.2935,-5.4162,-5.3563,-5.3803,0.0,0.0,-5.6944,-5.6585,0.0,-5.8321,-5.8321,-5.8321,-5.859,-5.9099,-5.9099,-5.9099,-5.9099,-5.9099,-5.9099,-5.9099,-5.9099,-5.9099,-5.9129,-5.9249,-6.0057,-6.1134,-6.1283,-6.2061,-6.3079,0.0,0.0,0.0,0.0,0.0,0.0,-6.67,-6.8645,-7.0081,-7.041,-7.05,-7.0769,-7.1368,-7.1128,-7.1128,-7.1727,-7.1248,-7.062,-6.9931,-6.9333,-6.8675,-6.7897,-6.6041,-6.5024,-6.5024,-6.2271,-6.0027,0.0,0.0,-5.3773,0.0,0.0,0.0,0.0,0.0,0.0,0.0,-5.7094,-5.853,-5.9308,-6.0655,-6.1553,-6.2032,-6.1433,-6.1194,-6.1283,-6.1882,-6.2121,-6.2271,-6.2869,-6.3079,-6.3079,-6.3079,-6.3079,-6.3079,-6.3079,-6.3079,-6.3079,-6.3079,-6.3079,-6.3079,-6.3079,-6.3079,-6.3079,-6.3079,-6.3079,-6.3079,-6.3079,-6.3079,-6.2869,-6.2211,-6.2002,-6.1313,0.0,0.0,0.0,0.0,0.0,-5.9189,-5.7304,0.0,0.0,-5.5388,-5.5179,0.0,0.0,-5.3862,-5.3414,-5.4162,-5.3563,-5.3803,-5.5149,0.0,-5.7363,-5.7932,-5.865,-5.9009,-5.9009,-5.9009,-5.9039,-5.9099,-5.9099,-5.9099,-5.9099,-5.9099,-5.9099,-5.9099,-5.9099,-5.9099,-5.9159,-5.9757,-6.0446,-6.1194,-6.1792,-6.245,-6.3079,0.0,0.0,0.0,0.0,0.0,0.0,0.0,-6.9782,-7.062,-7.0859,-7.0889,-7.1009,-7.1278,-7.1068,-7.1009,-7.1278,-7.1038,-7.047,-6.9453,-6.8764,-6.7897,-6.6849,-6.5263,-6.4425,-6.4425,-6.2241,-6.0505,0.0,0.0,0.0,0.0,0.0,0.0,0.0,0.0,-5.3922,-5.491,-5.6346,-5.7782,-5.9219,-6.0565,-6.1283,-6.1523,-6.1642,-6.1463,-6.1194,-6.1852,-6.2361,-6.272,-6.2989,-6.3079,-6.3079,-6.3079,-6.3079,-6.3079,-6.3079,-6.3079,-6.3079,-6.3079,-6.3079,-6.3079,-6.3079,-6.3079,-6.3079,-6.3079,-6.3079,-6.3079,-6.3079,-6.3079,-6.2989,-6.272,-6.2361,-6.1702,-6.0505,0.0,0.0,0.0,0.0,0.0,-5.7274,0.0,-5.6885,0.0,0.0,0.0,0.0,0.0,-5.4102,-5.476,-5.4162,0.0,-5.5748,0.0,-5.7423,-5.8112,-5.877,-5.9099,-5.9099,-5.9099,-5.9099,-5.9099,-5.9099,-5.9099,-5.9099,-5.9099,-5.9099,-5.9099,-5.9099,-5.9099,-5.9159,-5.9817,-6.0505,-6.1194,-6.1852,-6.251,-6.3079,-6.248,0.0,-6.3468,0.0,-6.7059,-6.7867,-6.9931,-7.062,-7.0889,-7.0889,-7.0889,-7.0829,-7.0649,-7.062,-7.056,-7.035,-7.035,-6.9871,-6.8764,-6.8256,-6.7478,-6.634,-6.5024,0.0,-6.4306,-6.257,-6.1164,-6.0086,-5.868,0.0,0.0,0.0,0.0,0.0,-5.3503,-5.4251,-5.5807,-5.6466,-5.7782,-5.9488,-6.0655,-6.1104,-6.1134,-6.1403,-6.1343,-6.1164,-6.1642,-6.2241,-6.281,-6.3019,-6.3079,-6.3079,-6.3079,-6.3079,-6.3079,-6.3079,-6.3079,-6.3079,-6.3079,-6.3079,-6.3079,-6.3079,-6.3079,-6.3079,-6.3079,-6.3079,-6.3079,-6.3079,-6.3079,-6.3079,-6.3079,-6.269,-6.2032,-6.0984,0.0,0.0,0.0,-5.9159,0.0,-5.7274,-5.7274,-5.6825,-5.5329,-5.5179,0.0,0.0,0.0,0.0,0.0,0.0,0.0,0.0,0.0,0.0,0.0,-5.886,-5.9099,-5.9099,-5.9099,-5.9099,-5.9099,-5.9099,-5.9099,-5.9099,-5.9099,-5.9099,-5.9099,-5.9099,-5.9099,-5.9189,-6.0057,-6.0685,-6.1224,-6.2061,-6.257,-6.281,-6.3737,-6.5054,-6.658,-6.8615,-6.9512,-7.0141,-7.0799,-7.0889,-7.0889,-7.0889,-7.0889,-7.0679,-7.0051,-6.9991,-6.9722,-6.9093,-6.9034,-6.8734,-6.8016,-6.7956,-6.7687,0.0,0.0,-6.5024,-6.5024,-6.3737,-6.2091,-6.0086,0.0,0.0,-5.4221,0.0,-5.4551,-5.5179,-5.5837,-5.6466,-5.7124,-5.7812,-5.886,-6.0146,-6.0835,-6.1104,-6.1044,-6.0356,-6.0535,-6.1104,-6.1134,-6.1553,-6.2211,-6.2869,-6.3079,-6.3079,-6.3079,-6.3079,-6.3079,-6.3079,-6.3079,-6.3079,-6.3079,-6.3079,-6.3079,-6.3079,-6.3079,-6.3079,-6.3079,-6.3079,-6.3079,-6.3079,-6.3079,-6.3079,-6.3079,-6.3079,-6.2421,-6.0416,0.0,0.0,0.0,-5.9249,0.0,-5.7334,-5.7693,-5.7334,-5.5388,-5.5179,0.0,0.0,0.0,0.0,0.0,0.0,0.0,-5.6188,-5.6765,0.0,-5.9069,-5.9099,-5.9099,-5.9099,-5.9099,-5.9099,-5.9099,-5.9099,-5.9099,-5.9099,-5.9099,-5.9099,-5.9099,-5.9099,-5.9099,-5.9249,-6.0595,-6.1104,-6.1283,-6.26,-6.266,-6.2211,-6.5203,-6.5712,-6.664,-6.8645,-6.9183,-6.9662,-7.0739,-7.056,-7.026,-7.026,-6.9901,-6.9363,-6.8675,-6.9812,-7.035,0.0,-6.9662,-6.9183,0.0,-6.7537,-6.6999,-6.634,-6.5024,-6.4336,-6.4336,-6.3498,-6.2331,-6.0775,0.0,0.0,0.0,-5.7094,-5.6735,-5.6496,-5.6705,-5.7184,-5.7842,-5.8501,-5.9578,-6.0805,-6.1014,-6.1373,-6.1822,-6.2032,-6.1972,-6.1852,-6.2301,-6.26,-6.278,-6.3019,-6.3079,-6.3079,-6.3079,-6.3079,-6.3079,-6.3079,-6.3079,-6.3079,-6.3079,-6.3079,-6.3079,-6.3079,-6.3079,-6.3079,-6.3079,-6.3079,-6.3079,-6.3079,-6.3079,-6.3079,-6.3079,-6.272,-6.2061,-6.0954,-6.0565,0.0,-5.8949,0.0,-5.8351,-5.7214,-5.7304,-5.7004,-5.5957,-5.5867,0.0,0.0,0.0,0.0,0.0,0.0,0.0,0.0,-5.7453,0.0,-5.9099,-5.9099,-5.9099,-5.9099,-5.9099,-5.9099,-5.9099,-5.9099,-5.9099,-5.9099,-5.9099,-5.9099,-5.9099,-5.9099,-5.9099,-5.9189,-6.0057,-6.0416,-6.0565,-6.1912,-6.2002,-6.1523,-6.5562,-6.6251,-6.7148,-6.8405,-6.8824,-6.9273,-7.0081,-6.9871,-6.9602,-6.9602,-6.9243,-6.8824,-6.8405,-6.9453,0.0,-6.9273,-6.9004,-6.8615,-6.8016,-6.7119,-6.643,-6.6011,-6.4725,-6.4006,-6.4006,-6.3378,0.0,-6.1852,-6.1762,-6.1074,-5.9847,-5.9159,-5.877,-5.859,-5.859,-5.883,-5.9279,-5.9697,-6.0206,-6.0775,-6.1283,-6.1583,-6.1792,-6.245,-6.26,-6.248,-6.266,-6.2869,-6.3079,-6.3079,-6.3079,-6.3079,-6.3079,-6.3079,-6.3079,-6.3079,-6.3079,-6.3079,-6.3079,-6.3079,-6.3079,-6.3079,-6.3079,-6.3079,-6.3079,-6.3079,-6.3079,-6.3079,-6.3079,-6.2989,-6.275,-6.2361,-6.1792,-6.0864,-6.0356,-5.9757,-5.886,0.0,-5.7872,0.0,0.0,0.0,0.0,-5.6316,-5.6218,0.0,0.0,0.0,0.0,0.0,0.0,-5.7453,-5.7902,-5.8441,-5.9099,-5.9099,-5.9099,-5.9099,-5.9099,-5.9099,-5.9099,-5.9099,-5.9099,-5.9099,-5.9099,-5.9099,-5.9099,-5.9099,-5.9099,-5.9159,-5.9817,-6.0086,-6.0206,-6.1313,-6.1313,-6.0864,-6.5144,-6.664,-6.7926,0.0,-6.8495,0.0,-6.9004,-6.8944,-6.8944,-6.8944,-6.8884,-6.8854,-6.8854,-6.8854,-6.8615,-6.8016,0.0,0.0,0.0,-6.67,-6.5981,-6.5951,-6.4695,-6.4006,-6.4006,-6.3378,-6.3079,-6.3079,-6.1852,-6.1253,-6.1224,-6.0535,-6.0565,-6.1194,-6.1194,-6.1164,-6.1104,-6.1104,-6.0745,-6.0266,-6.1523,-6.1672,-6.1253,-6.1852,-6.248,-6.2929,-6.2301,-6.248,-6.3019,-6.3049,-6.3079,-6.3079,-6.3079,-6.3079,-6.3079,-6.3079,-6.3079,-6.3079,-6.3079,-6.3079,-6.3079,-6.3079,-6.3079,-6.3079,-6.3079,-6.3079,-6.3079,-6.3079,-6.3079,-6.2869,-6.2211,-6.2061,-6.1613,-6.0296,-5.9997,-5.9518,-5.8291,-5.8052,-5.7752,0.0,0.0,0.0,-5.7154,-5.6645,-5.6286,0.0,0.0,0.0,0.0,0.0,-5.6855,-5.8082,-5.8171,-5.8501,-5.9099,-5.9099,-5.9099,-5.9099,-5.9099,-5.9099,-5.9099,-5.9099,-5.9099,-5.9099,-5.9099,-5.9099,-5.9099,-5.9099,-5.9099,-5.9159,-5.9787,-6.0027,-6.0086,-6.0775,-6.0625,-6.0206,0.0,0.0,-6.7388,-6.7897,-6.8106,-6.8405,-6.8914,-6.8555,-6.8226,-6.8226,-6.7777,-6.7478,-6.7478,-6.7478,-6.7597,-6.7956,-6.7837,-6.7388,-6.652,-6.6191,-6.5772,-6.5293,-6.4455,-6.4006,-6.4006,-6.3378,-6.3079,-6.3079,-6.278,-6.26,-6.26,-6.1942,-6.1702,-6.1852,-6.1852,-6.1583,-6.1104,-6.1104,-6.1014,-6.0894,-6.1224,-6.1553,-6.1882,-6.2032,-6.2181,-6.2301,-6.2151,-6.2181,-6.2391,-6.2899,-6.3079,-6.3079,-6.3079,-6.3079,-6.3079,-6.3079,-6.3079,-6.3079,-6.3079,-6.3079,-6.3079,-6.3079,-6.3079,-6.3079,-6.3079,-6.3079,-6.3079,-6.3079,-6.3079,-6.2869,-6.2211,-6.1672,-6.1074,-6.0206,-5.9249,-5.8471,-5.8118,-5.7274,-5.6735,0.0,-5.7094,-5.7304,-5.7812,-5.7752,-5.7453,0.0,0.0,0.0,0.0,-5.7363,-5.7812,-5.8112,-5.862,-5.8949,-5.9099,-5.9099,-5.9099,-5.9099,-5.9099,-5.9099,-5.9099,-5.9099,-5.9099,-5.9099,-5.9099,-5.9099,-5.9099,-5.9099,-5.9099,-5.9129,-5.9279,-5.9338,-5.9428,-6.0086,-5.9907,-5.9458,-6.6252,-6.6702,-6.7089,-6.7448,-6.7508,-6.7657,-6.8016,-6.7777,-6.7508,-6.7508,-6.7208,-6.6999,-6.6999,-6.6999,-6.7148,-6.7478,-6.7508,-6.7208,-6.649,-6.5892,-6.5263,-6.4575,-6.3917,-6.3588,-6.3588,-6.3258,-6.3079,-6.3079,-6.3079,-6.3079,-6.3079,-6.272,-6.254,-6.254,-6.254,-6.2331,-6.2002,-6.1702,-6.1373,-6.1104,-6.1104,-6.1134,-6.1224,-6.1523,-6.1822,-6.2091,-6.2091,-6.2301,-6.26,-6.2959,-6.3079,-6.3079,-6.3079,-6.3079,-6.3079,-6.3079,-6.3079,-6.3079,-6.3079,-6.3079,-6.3079,-6.3079,-6.3079,-6.3079,-6.3079,-6.3079,-6.3079,-6.3079,-6.3079,-6.278,-6.1822,-6.1373,-6.0685,-5.9398,-5.859,-5.7932,-5.7304,-5.6855,-5.6705,-5.7064,-5.7363,-5.7842,-5.8501,-5.8291,-5.7962,-5.7603,-5.7274,0.0,-5.7543,-5.7932,-5.8261,-5.856,-5.8919,-5.9099,-5.9099,-5.9099,-5.9099,-5.9099,-5.9099,-5.9099,-5.9099,-5.9099,-5.9099,-5.9099,-5.9099,-5.9099,-5.9099,-5.9099,-5.9099,-5.9099,-5.9099,-5.9099,-5.9159,-5.9518,-5.9398,-5.9189,-6.6092,-6.6733,-6.7274,-6.7121,-6.706,-6.7121,-6.7121,-6.7182,-6.7182,-6.7182,-6.7182,-6.7121,-6.706,-6.7121,-6.7061,-6.691,-6.6941,-6.6911,-6.6761,-6.5712,-6.4724,-6.4004,-6.3522,-6.3194,-6.3194,-6.3137,-6.3079,-6.3079,-6.3079,-6.3079,-6.3079,-6.3079,-6.3079,-6.3079,-6.3079,-6.3019,-6.2899,-6.2241,-6.1553,-6.0954,-6.0954,-6.0625,-6.0146,-6.0745,-6.1373,-6.1942,-6.1822,-6.2271,-6.2929,-6.2929,-6.2989,-6.3079,-6.3079,-6.3079,-6.3079,-6.3079,-6.3079,-6.3079,-6.3079,-6.3079,-6.3079,-6.3079,-6.3079,-6.3079,-6.3079,-6.3079,-6.3079,-6.3079,-6.3079,-6.266,-6.1373,-6.1104,-6.0475,-5.859,-5.8112,-5.7573,-5.6466,0.0,-5.7004,-5.7094,-5.7693,-5.8381,-5.9039,-5.859,-5.8231,-5.8141,-5.7663,-5.7603,-5.8082,-5.8231,-5.853,-5.9099,-5.9099,-5.9099,-5.9099,-5.9099,-5.9099,-5.9099,-5.9099,-5.9099,-5.9099,-5.9099,-5.9099,-5.9099,-5.9099,-5.9099,-5.9099,-5.9099,-5.9099,-5.9099,-5.9099,-5.9099,-5.9129,-5.9219,-5.9249,-5.9338,-6.8767,-6.8729,-6.8531,-6.7578,-6.7426,-6.7548,-6.7789,-6.785,-6.785,-6.785,-6.785,-6.7729,-6.7487,-6.7669,-6.7487,-6.6643,-6.6792,-6.655,-6.577,-6.5559,-6.5013,-6.4005,-6.394,-6.3709,-6.3481,-6.3194,-6.3079,-6.3079,-6.3079,-6.3079,-6.3079,-6.3079,-6.3079,-6.3079,-6.3079,-6.278,-6.2211,-6.1553,-6.0864,-6.0236,-6.0236,-6.0176,-6.0086,-6.0206,-6.0685,-6.1194,-6.0595,-6.1194,-6.2241,-6.2241,-6.263,-6.3079,-6.3079,-6.3079,-6.3079,-6.3079,-6.3079,-6.3079,-6.3079,-6.3079,-6.3079,-6.3079,-6.3079,-6.3079,-6.3079,-6.3079,-6.3079,-6.3079,-6.3079,-6.266,-6.1373,-6.1104,-6.0655,-5.9189,-5.7992,-5.7184,-5.6974,0.0,-5.6496,-5.7034,-5.7693,-5.8381,-5.9039,-5.9009,-5.871,-5.8171,-5.853,-5.859,-5.8141,-5.865,-5.9009,-5.9099,-5.9099,-5.9099,-5.9099,-5.9099,-5.9099,-5.9099,-5.9099,-5.9099,-5.9099,-5.9099,-5.9099,-5.9099,-5.9099,-5.9099,-5.9099,-5.9099,-5.9099,-5.9099,-5.9099,-5.9099,-5.9159,-5.9727,-5.9937,-6.0027,-6.9554,-6.9471,-6.929,-6.8738,-6.8148,-6.785,-6.797,-6.803,-6.803,-6.803,-6.803,-6.797,-6.7789,-6.791,-6.7637,-6.6761,-6.6819,-6.6482,-6.5511,-6.5304,-6.4792,-6.4023,-6.3993,-6.3936,-6.3766,-6.3652,-6.3595,-6.3595,-6.3424,-6.3309,-6.3309,-6.3194,-6.3079,-6.3079,-6.3079,-6.272,-6.2061,-6.1403,-6.0715,-6.0057,-5.9697,-5.9548,-5.9548,-5.9548,-5.9967,-6.0505,-6.0206,-6.0954,-6.2091,-6.2091,-6.254,-6.3079,-6.3079,-6.3079,-6.3079,-6.3079,-6.3079,-6.3079,-6.3079,-6.3079,-6.3079,-6.3079,-6.3079,-6.3079,-6.3079,-6.3079,-6.3079,-6.3079,-6.3079,-6.266,-6.1373,-6.1104,-6.0565,-5.886,-5.7752,-5.6974,-5.6645,-5.6645,-5.6765,-5.7064,-5.8022,-5.877,-5.9069,-5.9099,-5.8979,-5.868,-5.8949,-5.8979,-5.868,-5.8949,-5.9099,-5.9099,-5.9099,-5.9099,-5.9099,-5.9099,-5.9099,-5.9099,-5.9099,-5.9099,-5.9099,-5.9099,-5.9099,-5.9099,-5.9099,-5.9099,-5.9099,-5.9099,-5.9099,-5.9099,-5.9099,-5.9099,-5.9129,-5.9458,-5.9787,-6.0116,-7.039,-7.016,-7.0101,-7.0168,-6.9081,-6.8352,-6.8564,-6.8358,-6.8209,-6.8209,-6.8209,-6.8209,-6.809,-6.7997,-6.7632,-6.6873,-6.6719,-6.6257,-6.5325,-6.5063,-6.4706,-6.4249,-6.4162,-6.4075,-6.4075,-6.4049,-6.3993,-6.3993,-6.3766,-6.3652,-6.3595,-6.3424,-6.3309,-6.3309,-6.3129,-6.2712,-6.2145,-6.1336,-6.071,-6.0266,-5.9428,-5.9189,-5.9308,-5.9159,-5.9518,-6.0086,-6.0086,-6.0954,-6.2091,-6.2091,-6.254,-6.3079,-6.3079,-6.3079,-6.3079,-6.3079,-6.3079,-6.3079,-6.3079,-6.3079,-6.3079,-6.3079,-6.3079,-6.3079,-6.3079,-6.3079,-6.3079,-6.3079,-6.3079,-6.266,-6.1373,-6.1104,-6.0505,-5.865,0.0,-5.7184,-5.6705,-5.7034,-5.7334,-5.7334,-5.8381,-5.9099,-5.9099,-5.9099,-5.9099,-5.9099,-5.9099,-5.9099,-5.9099,-5.9099,-5.9099,-5.9099,-5.9099,-5.9099,-5.9099,-5.9099,-5.9099,-5.9099,-5.9099,-5.9099,-5.9099,-5.9099,-5.9099,-5.9099,-5.9099,-5.9099,-5.9099,-5.9099,-5.9099,-5.9099,-5.9099,-5.9099,-5.9129,-5.9458,-5.9907,-6.0356,-7.2348,-7.1668,-7.1294,-7.1596,-7.0141,-6.9258,-7.028,-6.9526,-6.883,-6.883,-6.883,-6.8713,-6.8386,-6.8102,-6.7488,-6.6525,-6.6169,-6.5693,-6.4955,-6.4925,-6.4894,-6.4832,-6.4524,-6.4382,-6.4382,-6.4132,-6.3993,-6.3993,-6.3993,-6.3993,-6.3993,-6.3936,-6.3936,-6.3906,-6.3239,-6.2768,-6.2423,-6.1072,-6.0726,-6.0924,-5.9638,-5.9458,-5.9937,-5.9338,-5.9518,-6.0086,-6.0086,-6.0954,-6.2091,-6.2091,-6.254,-6.3079,-6.3079,-6.3079,-6.3079,-6.3079,-6.3079,-6.3079,-6.3079,-6.3079,-6.3079,-6.3079,-6.3079,-6.3079,-6.3079,-6.3079,-6.3079,-6.3079,-6.3079,-6.266,-6.1373,-6.1104,-6.0655,-5.9249,0.0,0.0,-5.7992,-5.8022,-5.8052,-5.8052,-5.868,-5.9099,-5.9099,-5.9099,-5.9099,-5.9099,-5.9099,-5.9099,-5.9099,-5.9099,-5.9099,-5.9099,-5.9099,-5.9099,-5.9099,-5.9099,-5.9099,-5.9099,-5.9099,-5.9099,-5.9099,-5.9099,-5.9099,-5.9099,-5.9099,-5.9099,-5.9099,-5.9099,-5.9099,-5.9099,-5.9099,-5.9099,-5.9249,-6.0505,-6.0984,-6.1224,-7.2451,-7.1963,-7.1639,-7.1763,-7.0108,-6.88,-6.9249,-6.8712,-6.8304,-6.8304,-6.8304,-6.8215,-6.8099,-6.7631,-6.6954,-6.6164,-6.6001,-6.5626,-6.4949,-6.4888,-6.4888,-6.4888,-6.4777,-6.4691,-6.4691,-6.461,-6.4554,-6.4554,-6.4356,-6.4244,-6.4244,-6.4075,-6.3993,-6.3963,-6.372,-6.3299,-6.2763,-6.2279,-6.1649,-6.0965,-6.0235,-5.988,-5.9645,-5.9243,-5.9249,-5.9518,-5.9937,-6.0685,-6.1553,-6.1972,-6.254,-6.3079,-6.3079,-6.3079,-6.3079,-6.3079,-6.3079,-6.3079,-6.3079,-6.3079,-6.3079,-6.3079,-6.3079,-6.3079,-6.3079,-6.3079,-6.3079,-6.3079,-6.3079,-6.281,-6.1882,-6.1732,-6.1283,-5.9937,0.0,-5.859,-5.8171,-5.8112,-5.8112,-5.8112,-5.871,-5.9099,-5.9099,-5.9099,-5.9099,-5.9099,-5.9099,-5.9099,-5.9099,-5.9099,-5.9099,-5.9099,-5.9099,-5.9099,-5.9099,-5.9099,-5.9099,-5.9099,-5.9099,-5.9099,-5.9099,-5.9099,-5.9099,-5.9099,-5.9099,-5.9099,-5.9099,-5.9099,-5.9099,-5.9099,-5.9099,-5.9099,-5.9219,-6.0146,-6.0745,-6.1253,-7.236,-7.2009,-7.1789,-7.2223,-7.0576,-6.9274,-6.9498,-6.9011,-6.8583,-6.8583,-6.8276,-6.8081,-6.8081,-6.7208,-6.6396,-6.5934,-6.5719,-6.538,-6.4918,-6.5187,-6.5242,-6.4888,-6.4888,-6.4888,-6.4888,-6.4888,-6.4888,-6.4888,-6.4635,-6.4579,-6.4579,-6.4387,-6.4275,-6.4275,-6.4031,-6.3731,-6.3432,-6.3006,-6.2494,-6.1868,-6.1225,-6.0663,-6.024,-5.9867,-5.9669,-5.9759,-6.0311,-6.1001,-6.1605,-6.2295,-6.2804,-6.3137,-6.3194,-6.3194,-6.3079,-6.3079,-6.3079,-6.3079,-6.3079,-6.3079,-6.3079,-6.3079,-6.3079,-6.3079,-6.3079,-6.3079,-6.3079,-6.3079,-6.3079,-6.2869,-6.2211,-6.2091,-6.1732,-6.0595,-5.9847,-5.9249,-5.88,-5.856,-5.8441,-5.8441,-5.883,-5.9099,-5.9099,-5.9099,-5.9099,-5.9099,-5.9099,-5.9099,-5.9099,-5.9099,-5.9099,-5.9099,-5.9099,-5.9099,-5.9099,-5.9099,-5.9099,-5.9099,-5.9099,-5.9099,-5.9099,-5.9099,-5.9099,-5.9099,-5.9099,-5.9099,-5.9099,-5.9099,-5.9099,-5.9099,-5.9099,-5.9219,-5.9488,-6.0176,-6.0835,-6.1523,-7.2259,-7.1819,-7.1751,-7.3206,-7.1961,-7.0942,-7.1671,-7.0823,-7.0073,-7.0073,-6.9159,-6.8491,-6.8491,-6.6969,-6.5903,-6.5903,-6.5288,-6.4888,-6.4888,-6.5884,-6.6045,-6.4943,-6.4888,-6.4888,-6.4888,-6.4888,-6.4888,-6.4888,-6.4888,-6.4888,-6.4888,-6.4888,-6.4888,-6.4857,-6.4149,-6.4046,-6.429,-6.2975,-6.3025,-6.3872,-6.2561,-6.2014,-6.1929,-6.1285,-6.1011,-6.1048,-6.1388,-6.1941,-6.2604,-6.3297,-6.3309,-6.3137,-6.3424,-6.3309,-6.3079,-6.3137,-6.3137,-6.3079,-6.3079,-6.3079,-6.3079,-6.3079,-6.3079,-6.3079,-6.3079,-6.3079,-6.3079,-6.3079,-6.3079,-6.2869,-6.2211,-6.2121,-6.1882,-6.1224,-6.0535,-6.0086,-6.0086,-5.9518,-5.9129,-5.9129,-5.9099,-5.9099,-5.9099,-5.9099,-5.9099,-5.9099,-5.9099,-5.9099,-5.9099,-5.9099,-5.9099,-5.9099,-5.9099,-5.9099,-5.9099,-5.9099,-5.9099,-5.9099,-5.9099,-5.9099,-5.9099,-5.9099,-5.9099,-5.9099,-5.9099,-5.9099,-5.9099,-5.9099,-5.9099,-5.9099,-5.9099,-5.9518,-6.0176,-6.0864,-6.1523,-6.2181,-7.1582,-7.1447,-7.1447,-7.1887,-7.0857,-7.0063,-7.0295,-6.9795,-6.9413,-6.9413,-6.9104,-6.8897,-6.8897,-6.8028,-6.7457,-6.7457,-6.6565,-6.5991,-6.5991,-6.7034,-6.7497,-6.7137,-6.6438,-6.57,-6.4888,-6.4888,-6.4888,-6.4888,-6.4888,-6.4888,-6.4888,-6.4888,-6.4641,-6.4149,-6.4457,-6.434,-6.3984,-6.4132,-6.4046,-6.3844,-6.3196,-6.2713,-6.2201,-6.1825,-6.171,-6.1801,-6.2334,-6.2698,-6.2971,-6.3637,-6.3823,-6.3766,-6.3823,-6.3652,-6.3424,-6.3652,-6.3595,-6.3367,-6.3367,-6.3252,-6.3079,-6.3079,-6.3079,-6.3079,-6.3079,-6.3079,-6.3079,-6.3079,-6.3079,-6.3019,-6.281,-6.278,-6.257,-6.1912,-6.1642,-6.1343,-6.0864,-6.0206,-5.9787,-5.9787,-5.9398,-5.9099,-5.9099,-5.9099,-5.9099,-5.9099,-5.9099,-5.9099,-5.9099,-5.9099,-5.9099,-5.9099,-5.9099,-5.9099,-5.9099,-5.9099,-5.9099,-5.9099,-5.9099,-5.9099,-5.9099,-5.9099,-5.9099,-5.9099,-5.9099,-5.9099,-5.9099,-5.9099,-5.9099,-5.9099,-5.9099,-5.9518,-6.0176,-6.0864,-6.1523,-6.2181,-7.1312,-7.1312,-7.1312,-7.1312,-7.0745,-7.0343,-7.0343,-7.0111,-6.9991,-6.9991,-6.96,-6.932,-6.932,-6.8581,-6.8072,-6.8072,-6.7497,-6.7292,-6.7751,-6.8371,-6.8716,-6.8716,-6.8122,-6.7292,-6.6205,-6.6152,-6.6152,-6.6152,-6.6152,-6.6152,-6.6152,-6.5754,-6.5164,-6.4511,-6.5227,-6.5164,-6.4542,-6.5258,-6.5289,-6.483,-6.4241,-6.3568,-6.2955,-6.2761,-6.2737,-6.2713,-6.303,-6.331,-6.3584,-6.401,-6.4132,-6.4132,-6.4049,-6.388,-6.3766,-6.3936,-6.3766,-6.3538,-6.3538,-6.3309,-6.3079,-6.3079,-6.3079,-6.3079,-6.3079,-6.3079,-6.3079,-6.3079,-6.3079,-6.3079,-6.3079,-6.3079,-6.2959,-6.254,-6.2271,-6.1972,-6.1553,-6.0685,-6.0176,-6.0446,-5.9907,-5.9488,-5.9488,-5.9488,-5.9398,-5.9129,-5.9099,-5.9099,-5.9099,-5.9099,-5.9099,-5.9099,-5.9099,-5.9099,-5.9099,-5.9099,-5.9099,-5.9099,-5.9099,-5.9099,-5.9099,-5.9099,-5.9099,-5.9099,-5.9099,-5.9099,-5.9099,-5.9099,-5.9099,-5.9099,-5.9099,-5.9668,-6.0505,-6.0655,-6.1463,-6.251,-7.1312,-7.1312,-7.1312,-7.1312,-7.1312,-7.1312,-7.1312,-7.1312,-7.1312,-7.1312,-7.0436,-6.9841,-6.9841,-6.8993,-6.8403,-6.8403,-6.8403,-6.8798,-6.9618,-6.9794,-6.9841,-6.9841,-6.9841,-6.9379,-6.8403,-6.8204,-6.8072,-6.8072,-6.8072,-6.8072,-6.8072,-6.7086,-6.6237,-6.554,-6.6237,-6.6174,-6.5572,-6.6269,-6.6533,-6.6385,-6.546,-6.4597,-6.3933,-6.3933,-6.3933,-6.3879,-6.366,-6.3917,-6.4437,-6.4437,-6.4437,-6.4326,-6.4162,-6.4049,-6.4049,-6.4049,-6.388,-6.3565,-6.3565,-6.3367,-6.3194,-6.3194,-6.3137,-6.3137,-6.3137,-6.3079,-6.3079,-6.3079,-6.3079,-6.3079,-6.3079,-6.3079,-6.3079,-6.3079,-6.257,-6.2181,-6.2181,-6.1074,-6.0505,-6.1134,-6.0595,-6.0146,-6.0086,-6.0027,-5.9757,-5.9159,-5.9099,-5.9099,-5.9099,-5.9099,-5.9099,-5.9099,-5.9099,-5.9129,-5.9189,-5.9129,-5.9099,-5.9099,-5.9099,-5.9099,-5.9099,-5.9099,-5.9099,-5.9099,-5.9099,-5.9099,-5.9099,-5.9099,-5.9099,-5.9099,-5.9099,-5.9877,-6.0954,-6.0386,-6.1343,-6.281,-7.1312,-7.1312,-7.1312,-7.1312,-7.1312,-7.1312,-7.1312,-7.1312,-7.1312,-7.1312,-7.1098,-7.0961,-7.0961,-7.0745,-7.0608,-7.0608,-7.0608,-7.0343,-6.9713,-7.0482,-7.0961,-7.0961,-7.0961,-7.0837,-7.0608,-6.8944,-6.8072,-6.8072,-6.8072,-6.8072,-6.8072,-6.782,-6.7042,-6.585,-6.6542,-6.6477,-6.5883,-6.6574,-6.6761,-6.6491,-6.6258,-6.5553,-6.4672,-6.4672,-6.4672,-6.4672,-6.4617,-6.4654,-6.4777,-6.4777,-6.4635,-6.4468,-6.4666,-6.4524,-6.4356,-6.461,-6.4468,-6.4214,-6.4214,-6.4019,-6.3823,-6.3823,-6.3595,-6.3367,-6.3137,-6.3079,-6.3079,-6.3079,-6.3079,-6.3079,-6.3079,-6.3079,-6.3079,-6.3079,-6.2959,-6.2869,-6.2869,-6.2181,-6.1702,-6.1882,-6.1283,-6.0685,-6.0146,-5.9608,-5.9249,-5.9129,-5.9099,-5.9099,-5.9099,-5.9099,-5.9099,-5.9099,-5.9099,-5.9338,-5.9877,-5.9368,-5.9099,-5.9099,-5.9099,-5.9099,-5.9099,-5.9099,-5.9099,-5.9099,-5.9099,-5.9099,-5.9099,-5.9099,-5.9099,-5.9099,-5.9099,-5.9608,-6.0356,-6.0745,-6.1164,-6.1583,-7.1312,-7.1312,-7.1312,-7.1312,-7.1312,-7.1312,-7.1312,-7.1312,-7.1312,-7.1312,-7.1312,-7.1312,-7.1312,-7.1312,-7.1312,-7.1312,-7.1312,-7.1052,-7.0482,-7.1007,-7.1312,-7.1312,-7.1312,-7.1312,-7.1312,-7.0203,-6.9651,-6.9651,-6.9651,-6.9651,-6.9604,-6.909,-6.8273,-6.7257,-6.7963,-6.7912,-6.729,-6.7963,-6.8193,-6.7971,-6.7497,-6.6649,-6.5646,-6.5646,-6.5351,-6.4888,-6.4888,-6.4888,-6.4888,-6.4888,-6.4777,-6.4635,-6.4832,-6.4777,-6.4635,-6.4832,-6.4635,-6.4382,-6.4382,-6.4188,-6.3993,-6.3993,-6.3766,-6.3481,-6.3309,-6.3194,-6.3079,-6.3079,-6.3079,-6.3079,-6.3079,-6.3079,-6.3079,-6.3079,-6.3079,-6.3079,-6.3079,-6.251,-6.2211,-6.254,-6.2002,-6.1313,-6.0625,-5.9967,-5.9578,-5.9578,-5.9578,-5.9578,-5.9578,-5.9578,-5.9428,-5.9129,-5.9099,-5.9428,-6.0086,-5.9727,-5.9578,-5.9578,-5.9249,-5.9279,-5.9548,-5.9249,-5.9099,-5.9099,-5.9099,-5.9099,-5.9099,-5.9099,-5.9099,-5.9129,-5.9458,-5.9997,-6.0625,-6.0984,-6.1313,-6.1583,-7.1312,-7.1312,-7.1312,-7.1312,-7.1312,-7.1312,-7.1312,-7.1312,-7.1312,-7.1312,-7.1312,-7.1312,-7.1312,-7.1312,-7.1312,-7.1312,-7.1312,-7.1312,-7.1312,-7.1312,-7.1312,-7.1312,-7.1312,-7.1312,-7.1312,-7.1312,-7.1312,-7.1312,-7.1312,-7.1312,-7.1267,-7.0389,-6.9583,-6.8964,-6.9517,-6.945,-6.8964,-6.955,-6.9755,-6.9618,-6.8716,-6.7655,-6.6563,-6.6742,-6.6035,-6.4978,-6.5101,-6.4961,-6.4734,-6.4857,-6.4826,-6.4734,-6.4857,-6.4888,-6.4888,-6.4888,-6.4691,-6.4524,-6.4524,-6.43,-6.4162,-6.4162,-6.3936,-6.3622,-6.3622,-6.3367,-6.3079,-6.3079,-6.3079,-6.3079,-6.3079,-6.3079,-6.3079,-6.3079,-6.3079,-6.3079,-6.3079,-6.26,-6.248,-6.3019,-6.2391,-6.1702,-6.1164,-6.0386,-5.9907,-5.9907,-5.9907,-5.9907,-5.9907,-6.0027,-5.9787,-5.9129,-5.9219,-5.9548,-6.0086,-6.0086,-6.0206,-6.0416,-5.9757,-5.9608,-5.9907,-5.9338,-5.9099,-5.9099,-5.9099,-5.9099,-5.9099,-5.9099,-5.9099,-5.9159,-5.9817,-6.0356,-6.0775,-6.0894,-6.1493,-6.2181,-7.1312,-7.1312,-7.1312,-7.1312,-7.1312,-7.1312,-7.1312,-7.1312,-7.1312,-7.1312,-7.1312,-7.1312,-7.1312,-7.1312,-7.1312,-7.1312,-7.1312,-7.1312,-7.1312,-7.1312,-7.1312,-7.1312,-7.1312,-7.1312,-7.1312,-7.1312,-7.1312,-7.1312,-7.1312,-7.1312,-7.1312,-7.1143,-7.0693,-6.9984,-7.0085,-7.0085,-6.9984,-7.0085,-6.9958,-6.9666,-6.9523,-6.8454,-6.7014,-6.7645,-6.6838,-6.5387,-6.6038,-6.5295,-6.4057,-6.4672,-6.4487,-6.4087,-6.4703,-6.4888,-6.4888,-6.4888,-6.4888,-6.4832,-6.4832,-6.4777,-6.4777,-6.4777,-6.4524,-6.427,-6.427,-6.3679,-6.3079,-6.3079,-6.3079,-6.3079,-6.3079,-6.3079,-6.3079,-6.3079,-6.3079,-6.3079,-6.3079,-6.2989,-6.2989,-6.3079,-6.2002,-6.1224,-6.1134,-5.9967,-5.9249,-5.9249,-5.9249,-5.9249,-5.9249,-5.9787,-5.9787,-5.9129,-5.9668,-5.9997,-6.0086,-6.0086,-6.0655,-6.1822,-6.1164,-6.0266,-5.9249,-5.9129,-5.9099,-5.9099,-5.9099,-5.9099,-5.9099,-5.9099,-5.9099,-5.9159,-5.9817,-5.9787,-5.9458,-6.0027,-6.1373,-6.2839,-7.1312,-7.1312,-7.1312,-7.1312,-7.1312,-7.1312,-7.1312,-7.1312,-7.1312,-7.1312,-7.1312,-7.1312,-7.1312,-7.1312,-7.1312,-7.1312,-7.1312,-7.1312,-7.1312,-7.1312,-7.1312,-7.1312,-7.1312,-7.1312,-7.1312,-7.1312,-7.1312,-7.1312,-7.1312,-7.1312,-7.1312,-7.1312,-7.1142,-7.0804,-7.0364,-7.0432,-7.077,-6.9925,-7.0007,-7.0574,-7.0138,-6.937,-6.8533,-6.8862,-6.8159,-6.6927,-6.7298,-6.6862,-6.6153,-6.5897,-6.5589,-6.5263,-6.4985,-6.4888,-6.4888,-6.4888,-6.4888,-6.4888,-6.4888,-6.4888,-6.4888,-6.4888,-6.4635,-6.4382,-6.4382,-6.4019,-6.3595,-6.3595,-6.3481,-6.3309,-6.3309,-6.3194,-6.3079,-6.3079,-6.3079,-6.3079,-6.3079,-6.3079,-6.3079,-6.3079,-6.257,-6.1912,-6.1194,-6.0565,-6.0057,-5.9668,-5.9668,-5.9668,-5.9668,-5.9937,-5.9787,-5.9129,-5.9398,-5.9727,-6.0086,-6.0086,-6.0565,-6.1553,-6.0864,-6.0446,-6.0206,-5.9817,-5.9458,-5.9099,-5.9099,-5.9099,-5.9099,-5.9099,-5.9308,-5.9727,-6.0386,-6.0924,-6.1283,-6.0835,-6.1463,-6.2331]},{"header":{"parameterUnit":"m.s-1","parameterCategory":1,"la1":30.6,"la2":28.766,"lo1":-90.7593,"lo2":-88.6598,"dy":0.0162,"dx":0.0183,"nx":116,"ny":114,"refTime":"2023-06-12T06:00:00:Z","depth":0,"parameterNumber":3,"parameterNumberName":"V-component_of_WINDS"},"data":[0.0,0.0,0.0,0.0,0.0,0.0,0.0,0.0,0.0,0.0,0.0,0.0,0.0,0.0,0.0,0.0,0.0,0.0,0.0,0.0,0.0,0.0,0.0,0.0,0.0,0.0,0.0,0.0,0.0,0.0,0.0,0.0,0.0,0.0,0.0,0.0,0.0,0.0,0.0,0.0,0.0,0.0,0.0,0.0,0.0,0.0,0.0,0.0,0.0,0.0,0.0,0.0,0.0,0.0,0.0,0.0,0.0,0.0,0.0,0.0,0.0,0.0,0.0,0.0,0.0,0.0,0.0,0.0,0.0,0.0,0.0,0.0,0.0,0.0,0.0,0.0,0.0,0.0,0.0,0.0,0.0,0.0,0.0,0.0,0.0,0.0,0.0,0.0,0.0,0.0,0.0,0.0,0.0,0.0,0.0,0.0,0.0,0.0,0.0,0.0,0.0,0.0,0.0,0.0,0.0,0.0,0.0,0.0,0.0,0.0,0.0,0.0,0.0,0.0,0.0,0.0,0.0,0.0,0.0,0.0,0.0,0.0,0.0,0.0,0.0,0.0,0.0,0.0,0.0,0.0,0.0,0.0,0.0,0.0,0.0,0.0,0.0,0.0,0.0,0.0,0.0,0.0,0.0,0.0,0.0,0.0,0.0,0.0,0.0,0.0,0.0,0.0,0.0,0.0,0.0,0.0,0.0,0.0,0.0,0.0,0.0,0.0,0.0,0.0,0.0,0.0,0.0,0.0,0.0,0.0,0.0,0.0,0.0,0.0,0.0,0.0,0.0,0.0,0.0,0.0,0.0,0.0,0.0,0.0,0.0,0.0,0.0,0.0,0.0,0.0,0.0,0.0,0.0,0.0,0.0,0.0,0.0,0.0,0.0,0.0,0.0,0.0,0.0,0.0,0.0,0.0,0.0,0.0,0.0,0.0,0.0,0.0,0.0,0.0,0.0,0.0,0.0,0.0,0.0,0.0,0.0,0.0,0.0,0.0,0.0,0.0,0.0,0.0,0.0,0.0,0.0,0.0,0.0,0.0,0.0,0.0,0.0,0.0,0.0,0.0,0.0,0.0,0.0,0.0,0.0,0.0,0.0,0.0,0.0,0.0,0.0,0.0,0.0,0.0,0.0,0.0,0.0,0.0,0.0,0.0,0.0,0.0,0.0,0.0,0.0,0.0,0.0,0.0,0.0,0.0,0.0,0.0,0.0,0.0,0.0,0.0,0.0,0.0,0.0,0.0,0.0,0.0,0.0,0.0,0.0,0.0,0.0,0.0,0.0,0.0,0.0,0.0,0.0,0.0,0.0,0.0,0.0,0.0,0.0,0.0,0.0,0.0,0.0,0.0,0.0,0.0,0.0,0.0,0.0,0.0,0.0,0.0,0.0,0.0,0.0,0.0,0.0,0.0,0.0,0.0,0.0,0.0,0.0,0.0,0.0,0.0,0.0,0.0,0.0,0.0,0.0,0.0,0.0,0.0,0.0,0.0,0.0,0.0,0.0,0.0,0.0,0.0,0.0,0.0,0.0,0.0,0.0,0.0,0.0,0.0,0.0,0.0,0.0,0.0,0.0,0.0,0.0,0.0,0.0,0.0,0.0,0.0,0.0,0.0,0.0,0.0,0.0,0.0,0.0,0.0,0.0,0.0,0.0,0.0,0.0,0.0,0.0,0.0,0.0,0.0,0.0,0.0,0.0,0.0,0.0,0.0,0.0,0.0,0.0,0.0,0.0,0.0,0.0,0.0,0.0,0.0,0.0,0.0,0.0,0.0,0.0,0.0,0.0,0.0,0.0,0.0,0.0,0.0,0.0,0.0,0.0,0.0,0.0,0.0,0.0,0.0,0.0,0.0,0.0,0.0,0.0,0.0,0.0,0.0,0.0,0.0,0.0,0.0,0.0,0.0,0.0,0.0,0.0,0.0,0.0,0.0,0.0,0.0,0.0,0.0,0.0,0.0,0.0,0.0,0.0,0.0,0.0,0.0,0.0,0.0,0.0,0.0,0.0,0.0,0.0,0.0,0.0,0.0,0.0,0.0,0.0,0.0,0.0,0.0,0.0,0.0,0.0,0.0,0.0,0.0,0.0,0.0,0.0,0.0,0.0,0.0,0.0,0.0,0.0,0.0,0.0,0.0,0.0,0.0,0.0,0.0,0.0,0.0,0.0,0.0,0.0,0.0,0.0,0.0,0.0,0.0,0.0,0.0,0.0,0.0,0.0,0.0,0.0,0.0,0.0,0.0,0.0,0.0,0.0,0.0,0.0,0.0,0.0,0.0,0.0,0.0,0.0,0.0,0.0,0.0,0.0,0.0,0.0,0.0,0.0,0.0,0.0,0.0,0.0,0.0,0.0,0.0,0.0,0.0,0.0,0.0,0.0,0.0,0.0,0.0,0.0,0.0,0.0,0.0,0.0,0.0,0.0,0.0,0.0,0.0,0.0,0.0,0.0,0.0,0.0,0.0,0.0,0.0,0.0,0.0,0.0,0.0,0.0,0.0,0.0,0.0,0.0,0.0,0.0,0.0,0.0,0.0,0.0,0.0,0.0,0.0,0.0,0.0,0.0,0.0,0.0,0.0,0.0,0.0,0.0,0.0,0.0,0.0,0.0,0.0,0.0,0.0,0.0,0.0,0.0,0.0,0.0,0.0,0.0,0.0,0.0,0.0,0.0,0.0,0.0,0.0,0.0,0.0,0.0,0.0,0.0,0.0,0.0,0.0,0.0,0.0,0.0,0.0,0.0,0.0,0.0,0.0,0.0,0.0,0.0,0.0,0.0,0.0,0.0,0.0,0.0,0.0,0.0,0.0,0.0,0.0,0.0,0.0,0.0,0.0,0.0,0.0,0.0,0.0,0.0,0.0,0.0,0.0,0.0,0.0,0.0,0.0,0.0,0.0,0.0,0.0,0.0,0.0,0.0,0.0,0.0,0.0,0.0,0.0,0.0,0.0,0.0,0.0,0.0,0.0,0.0,0.0,0.0,0.0,0.0,0.0,0.0,0.0,0.0,0.0,0.0,0.0,0.0,0.0,0.0,0.0,0.0,0.0,0.0,0.0,0.0,0.0,0.0,0.0,0.0,0.0,0.0,0.0,0.0,0.0,0.0,0.0,0.0,0.0,0.0,0.0,0.0,0.0,0.0,0.0,0.0,0.0,0.0,0.0,0.0,0.0,0.0,0.0,0.0,0.0,0.0,0.0,0.0,0.0,0.0,0.0,0.0,0.0,0.0,0.0,0.0,0.0,0.0,0.0,0.0,0.0,0.0,0.0,0.0,0.0,0.0,0.0,0.0,0.0,0.0,0.0,0.0,0.0,0.0,0.0,0.0,0.0,0.0,0.0,0.0,0.0,0.0,0.0,0.0,0.0,0.0,0.0,0.0,0.0,0.0,0.0,0.0,0.0,0.0,0.0,0.0,0.0,0.0,0.0,0.0,0.0,0.0,0.0,0.0,0.0,0.0,0.0,0.0,0.0,0.0,0.0,0.0,0.0,0.0,0.0,0.0,0.0,0.0,0.0,0.0,0.0,0.0,0.0,0.0,0.0,0.0,0.0,0.0,0.0,0.0,0.0,0.0,0.0,0.0,0.0,0.0,0.0,0.0,0.0,0.0,0.0,0.0,0.0,0.0,0.0,0.0,0.0,0.0,0.0,0.0,0.0,0.0,0.0,0.0,0.0,0.0,0.0,0.0,0.0,0.0,0.0,0.0,0.0,0.0,0.0,0.0,0.0,0.0,0.0,0.0,0.0,0.0,0.0,0.0,0.0,0.0,0.0,0.0,0.0,0.0,0.0,0.0,0.0,0.0,0.0,0.0,0.0,0.0,0.0,0.0,0.0,0.0,0.0,0.0,0.0,0.0,0.0,0.0,0.0,0.0,0.0,0.0,0.0,0.0,0.0,0.0,0.0,0.0,0.0,0.0,0.0,0.0,0.0,0.0,0.0,0.0,0.0,0.0,0.0,0.0,0.0,0.0,0.0,0.0,0.0,0.0,0.0,0.0,0.0,0.0,0.0,0.0,0.0,0.0,0.0,0.0,0.0,0.0,0.0,0.0,0.0,0.0,0.0,0.0,0.0,0.0,0.0,0.0,0.0,0.0,0.0,0.0,0.0,0.0,0.0,0.0,0.0,0.0,0.0,0.0,0.0,0.0,0.0,0.0,0.0,0.0,0.0,0.0,0.0,0.0,0.0,0.0,0.0,0.0,0.0,0.0,0.0,0.0,0.0,0.0,0.0,0.0,0.0,0.0,0.0,0.0,0.0,0.0,0.0,0.0,0.0,0.0,0.0,0.0,0.0,0.0,0.0,0.0,0.0,0.0,0.0,0.0,0.0,0.0,0.0,0.0,0.0,0.0,0.0,0.0,0.0,0.0,0.0,0.0,0.0,0.0,0.0,0.0,0.0,0.0,0.0,0.0,0.0,0.0,0.0,0.0,0.0,0.0,0.0,0.0,0.0,0.0,0.0,0.0,0.0,0.0,0.0,0.0,0.0,0.0,0.0,0.0,0.0,0.0,0.0,0.0,0.0,0.0,0.0,0.0,0.0,0.0,0.0,0.0,0.0,0.0,0.0,0.0,0.0,0.0,0.0,0.0,0.0,0.0,0.0,0.0,0.0,0.0,0.0,0.0,0.0,0.0,0.0,0.0,0.0,0.0,0.0,0.0,0.0,0.0,0.0,0.0,0.0,0.0,0.0,0.0,0.0,0.0,0.0,0.0,0.0,0.0,0.0,0.0,0.0,0.0,0.0,0.0,0.0,0.0,0.0,0.0,0.0,0.0,0.0,0.0,0.0,0.0,0.0,0.0,0.0,0.0,0.0,0.0,0.0,0.0,0.0,0.0,0.0,0.0,0.0,0.0,0.0,0.0,0.0,0.0,0.0,0.0,0.0,0.0,0.0,0.0,0.0,0.0,0.0,0.0,0.0,0.0,0.0,0.0,0.0,0.0,0.0,0.0,0.0,0.0,0.0,0.0,0.0,0.0,0.0,0.0,0.0,0.0,0.0,0.0,0.0,0.0,0.0,0.0,0.0,0.0,0.0,0.0,0.0,0.0,0.0,0.0,0.0,0.0,0.0,0.0,0.0,0.0,0.0,0.0,0.0,0.0,0.0,0.0,0.0,0.0,0.0,0.0,0.0,0.0,0.0,0.0,0.0,0.0,0.0,0.0,0.0,0.0,0.0,0.0,0.0,0.0,0.0,0.0,0.0,0.0,0.0,0.0,0.0,0.0,0.0,0.0,0.0,0.0,0.0,0.0,0.0,0.0,0.0,0.0,0.0,0.0,0.0,0.0,0.0,0.0,0.0,0.0,0.0,0.0,0.0,0.0,0.0,0.0,0.0,0.0,0.0,0.0,0.0,0.0,0.0,0.0,0.0,0.0,0.0,0.0,0.0,0.0,0.0,0.0,0.0,0.0,0.0,0.0,0.0,0.0,0.0,0.0,0.0,0.0,0.0,0.0,0.0,0.0,0.0,0.0,0.0,0.0,0.0,0.0,0.0,0.0,0.0,0.0,0.0,0.0,0.0,0.0,0.0,0.0,0.0,0.0,0.0,0.0,0.0,0.0,0.0,0.0,0.0,0.0,0.0,0.0,0.0,0.0,0.0,0.0,0.0,0.0,0.0,0.0,0.0,0.0,0.0,0.0,0.0,0.0,0.0,0.0,0.0,0.0,0.0,0.0,0.0,0.0,0.0,0.0,0.0,0.0,0.0,0.0,0.0,0.0,0.0,0.0,0.0,0.0,0.0,0.0,0.0,0.0,0.0,0.0,0.0,0.0,0.0,0.0,0.0,0.0,0.0,0.0,0.0,0.0,0.0,0.0,0.0,0.0,0.0,0.0,0.0,0.0,0.0,0.0,0.0,0.0,0.0,0.0,0.0,0.0,0.0,0.0,0.0,0.0,0.0,0.0,0.0,0.0,0.0,0.0,0.0,0.0,0.0,0.0,0.0,0.0,0.0,0.0,0.0,0.0,0.0,0.0,0.0,0.0,0.0,0.0,0.0,0.0,0.0,0.0,0.0,0.0,0.0,0.0,0.0,0.0,0.0,0.0,0.0,0.0,0.0,0.0,0.0,0.0,0.0,0.0,0.0,0.0,0.0,0.0,0.0,-4.3912,0.0,0.0,0.0,0.0,0.0,0.0,0.0,0.0,0.0,0.0,0.0,0.0,0.0,0.0,0.0,0.0,0.0,0.0,0.0,0.0,0.0,0.0,0.0,0.0,0.0,0.0,0.0,0.0,0.0,0.0,0.0,0.0,0.0,0.0,0.0,0.0,0.0,0.0,0.0,0.0,0.0,0.0,0.0,0.0,0.0,0.0,0.0,0.0,0.0,0.0,0.0,0.0,0.0,0.0,0.0,0.0,0.0,0.0,0.0,0.0,0.0,0.0,0.0,0.0,0.0,0.0,0.0,0.0,0.0,0.0,0.0,0.0,0.0,0.0,0.0,0.0,0.0,0.0,0.0,0.0,0.0,0.0,0.0,0.0,0.0,0.0,0.0,0.0,0.0,0.0,0.0,0.0,0.0,0.0,0.0,0.0,0.0,0.0,0.0,0.0,0.0,0.0,0.0,0.0,0.0,0.0,0.0,0.0,0.0,0.0,0.0,0.0,0.0,0.0,0.0,0.0,-4.5297,0.0,0.0,0.0,0.0,0.0,0.0,0.0,0.0,0.0,0.0,0.0,0.0,0.0,0.0,0.0,0.0,0.0,0.0,0.0,0.0,0.0,0.0,0.0,0.0,0.0,0.0,0.0,0.0,0.0,0.0,0.0,0.0,0.0,0.0,0.0,0.0,0.0,0.0,0.0,0.0,0.0,0.0,0.0,0.0,0.0,0.0,0.0,0.0,0.0,0.0,0.0,0.0,0.0,0.0,0.0,0.0,0.0,0.0,0.0,0.0,0.0,0.0,0.0,0.0,0.0,0.0,0.0,0.0,0.0,0.0,0.0,0.0,0.0,0.0,0.0,0.0,0.0,0.0,0.0,0.0,0.0,0.0,0.0,0.0,0.0,0.0,0.0,0.0,0.0,0.0,0.0,0.0,0.0,0.0,0.0,0.0,0.0,0.0,0.0,0.0,0.0,0.0,0.0,0.0,0.0,0.0,0.0,0.0,-4.8224,-4.9008,-4.9688,-5.0028,-5.0446,-5.0812,-4.8616,-4.7519,-4.7231,-4.7127,0.0,0.0,0.0,0.0,0.0,0.0,0.0,0.0,0.0,0.0,0.0,0.0,0.0,0.0,0.0,0.0,0.0,0.0,0.0,0.0,0.0,0.0,0.0,0.0,0.0,0.0,0.0,0.0,0.0,0.0,0.0,0.0,0.0,0.0,0.0,0.0,0.0,0.0,-4.2107,-4.2579,-4.2788,-4.2788,-4.2265,0.0,0.0,0.0,0.0,0.0,0.0,0.0,0.0,0.0,0.0,0.0,0.0,0.0,0.0,0.0,0.0,0.0,0.0,0.0,0.0,0.0,0.0,0.0,0.0,0.0,0.0,0.0,0.0,0.0,0.0,0.0,0.0,0.0,0.0,0.0,0.0,0.0,0.0,0.0,0.0,0.0,0.0,0.0,-4.1115,-4.1193,0.0,0.0,0.0,0.0,0.0,0.0,0.0,0.0,0.0,0.0,0.0,0.0,0.0,-4.7231,-4.7963,-4.8878,-4.9871,-5.0917,-5.0603,-5.1021,-5.204,-5.157,-5.1413,-5.1518,-5.2197,0.0,-5.0185,-4.9662,0.0,0.0,0.0,0.0,0.0,0.0,0.0,0.0,0.0,0.0,0.0,0.0,0.0,0.0,0.0,0.0,0.0,0.0,0.0,0.0,0.0,0.0,0.0,0.0,0.0,0.0,0.0,0.0,0.0,0.0,0.0,0.0,0.0,0.0,0.0,0.0,-4.1716,-4.2579,-4.318,-4.3702,-4.399,-4.3964,-4.3729,-4.3101,-4.2265,-4.2213,0.0,0.0,0.0,0.0,0.0,0.0,0.0,0.0,0.0,0.0,0.0,0.0,0.0,0.0,0.0,0.0,0.0,0.0,0.0,0.0,0.0,0.0,0.0,0.0,0.0,0.0,0.0,0.0,0.0,0.0,0.0,0.0,0.0,0.0,0.0,0.0,0.0,0.0,0.0,-4.169,-4.216,-4.1821,-4.2082,-4.216,0.0,0.0,0.0,0.0,0.0,0.0,0.0,0.0,0.0,-4.7989,-4.8852,-4.9714,-5.0603,-5.11,-5.1936,-5.306,-5.3164,-5.3818,-5.4916,-5.4654,-5.4707,-5.502,-5.5229,-5.468,-5.3556,-5.1988,-5.0969,-5.0342,0.0,0.0,0.0,0.0,-5.0812,-5.1387,0.0,0.0,0.0,0.0,0.0,0.0,0.0,0.0,0.0,0.0,0.0,0.0,0.0,0.0,0.0,0.0,0.0,0.0,0.0,0.0,0.0,0.0,0.0,0.0,0.0,0.0,0.0,0.0,-4.3049,-4.399,-4.4565,-4.5271,-4.5611,-4.5611,-4.5454,-4.4459,-4.2997,-4.2709,-4.2499,0.0,0.0,0.0,0.0,0.0,0.0,0.0,0.0,0.0,0.0,0.0,0.0,0.0,0.0,0.0,0.0,0.0,0.0,0.0,0.0,0.0,0.0,0.0,0.0,0.0,0.0,0.0,0.0,0.0,0.0,0.0,0.0,0.0,0.0,0.0,0.0,0.0,0.0,-4.2422,-4.2971,-4.229,-4.2918,-4.318,0.0,0.0,0.0,0.0,0.0,0.0,-4.7074,-4.7963,-4.9218,-5.0943,-5.157,-5.2433,-5.3583,-5.3739,-5.4393,-5.5517,-5.583,-5.651,-5.7451,-5.732,-5.7477,-5.7843,-5.7425,-5.6902,-5.6196,-5.421,-5.2772,-5.1831,-5.123,-5.1256,-5.1648,-5.1518,-5.1988,-5.272,0.0,0.0,0.0,0.0,0.0,0.0,0.0,0.0,0.0,0.0,0.0,0.0,0.0,0.0,0.0,0.0,0.0,0.0,0.0,0.0,0.0,0.0,0.0,0.0,0.0,0.0,0.0,-4.2944,-4.4643,-4.5794,-4.6369,-4.7492,-4.8015,-4.7989,-4.744,-4.5637,-4.3049,-4.3572,-4.3206,-4.2211,0.0,0.0,0.0,0.0,0.0,0.0,0.0,0.0,0.0,0.0,0.0,0.0,0.0,0.0,0.0,0.0,0.0,0.0,0.0,0.0,0.0,0.0,0.0,0.0,0.0,0.0,0.0,0.0,0.0,0.0,0.0,0.0,0.0,0.0,0.0,0.0,0.0,0.0,0.0,-4.2342,-4.3624,0.0,0.0,0.0,0.0,-4.6133,-4.6813,-4.8381,-5.1152,-5.1361,-5.2171,-5.3922,-5.4576,-5.5438,-5.6588,-5.7137,-5.8044,-5.9098,-5.8601,-5.8653,-5.9228,-5.8679,-5.8444,-5.847,-5.8444,-5.8104,-5.7547,-5.6249,-5.5412,-5.4811,-5.421,-5.4001,-5.3975,-5.3452,-5.3295,-5.3347,0.0,0.0,0.0,0.0,0.0,0.0,0.0,0.0,0.0,0.0,0.0,0.0,0.0,0.0,0.0,0.0,0.0,0.0,0.0,0.0,0.0,0.0,0.0,0.0,0.0,0.0,-4.3363,-4.4642,-4.5999,-4.7205,-4.8172,-4.893,-4.927,-4.927,-4.8695,-4.7675,-4.6238,-4.4591,-4.3703,-4.3258,-4.2525,-4.3168,0.0,0.0,0.0,0.0,0.0,0.0,0.0,0.0,0.0,0.0,0.0,0.0,0.0,0.0,0.0,0.0,0.0,0.0,0.0,0.0,0.0,0.0,0.0,0.0,0.0,0.0,0.0,0.0,0.0,0.0,0.0,0.0,0.0,0.0,0.0,0.0,0.0,-4.5038,-4.6787,0.0,-4.6996,-4.7414,-4.8015,-4.8616,-4.9897,-5.1282,-5.2668,-5.3792,-5.4837,-5.5857,-5.6798,-5.766,-5.8444,-5.8653,-5.915,-5.9908,-5.9725,-5.9934,-6.0483,-5.9882,-5.983,-6.0169,-5.9777,-5.949,-5.9281,-5.8862,-5.7477,-5.5569,-5.4994,-5.4785,-5.4759,-5.455,-5.4707,-5.502,0.0,0.0,0.0,0.0,0.0,0.0,0.0,0.0,0.0,0.0,0.0,0.0,0.0,0.0,0.0,0.0,0.0,0.0,0.0,0.0,0.0,0.0,0.0,0.0,0.0,-4.3415,-4.4643,-4.6156,-4.7545,-4.8799,-4.9949,-5.0498,-5.089,-5.1047,-5.0498,-4.9897,-4.9225,-4.7136,-4.5898,-4.5209,-4.3914,-4.4807,-4.6801,0.0,0.0,0.0,0.0,0.0,0.0,0.0,0.0,0.0,0.0,0.0,0.0,0.0,0.0,0.0,0.0,0.0,0.0,0.0,0.0,0.0,0.0,0.0,0.0,0.0,0.0,0.0,0.0,0.0,0.0,0.0,0.0,0.0,0.0,0.0,-4.7623,-4.7623,-4.9662,-5.076,-5.0002,-5.0629,-5.1309,-5.1884,-5.3191,-5.455,-5.5935,-5.6876,-5.7739,-5.8523,-5.9281,-5.996,-6.0535,-6.0535,-6.0718,-6.111,-6.111,-6.1215,-6.1398,-6.098,-6.1032,-6.1372,-6.0797,-6.0535,-6.0509,-6.03,-5.9098,-5.732,-5.6745,-5.6432,-5.6223,-5.604,-5.6066,-5.6223,0.0,0.0,0.0,0.0,0.0,0.0,0.0,0.0,0.0,0.0,0.0,0.0,0.0,0.0,0.0,0.0,0.0,0.0,0.0,0.0,0.0,0.0,0.0,0.0,0.0,-4.4774,-4.6208,-4.7383,-4.9113,-5.0524,-5.1675,-5.225,-5.2825,-5.3373,-5.2772,-5.2171,-5.158,-5.1111,-4.993,-4.8219,-4.648,-4.7722,-5.0295,0.0,0.0,0.0,0.0,0.0,0.0,0.0,0.0,0.0,0.0,0.0,0.0,0.0,0.0,0.0,0.0,0.0,0.0,0.0,0.0,0.0,0.0,0.0,0.0,0.0,0.0,0.0,0.0,0.0,0.0,0.0,0.0,0.0,-4.4957,-4.7832,-5.0002,-5.0054,-5.2145,-5.3138,-5.1962,-5.2929,-5.4314,-5.5935,-5.6641,-5.8183,-6.1006,-6.0614,-6.0823,-6.1973,-6.2025,-6.2287,-6.2835,-6.2862,-6.2862,-6.2862,-6.2862,-6.2574,-6.2025,-6.2025,-6.2025,-6.1999,-6.145,-6.1189,-6.1136,-6.0535,-6.03,-6.0248,-5.962,-5.9045,-5.8497,-5.7948,-5.7399,-5.6928,0.0,0.0,0.0,0.0,0.0,0.0,0.0,0.0,0.0,0.0,0.0,0.0,0.0,0.0,0.0,0.0,0.0,0.0,0.0,0.0,0.0,0.0,0.0,0.0,0.0,0.0,-4.7832,-4.9845,-5.0707,-5.1727,-5.2903,-5.306,-5.3243,-5.3373,-5.2772,-5.2406,-5.2197,-5.1628,-5.1912,-5.2462,-4.9935,-4.9855,-5.1141,0.0,0.0,0.0,0.0,0.0,0.0,0.0,0.0,0.0,0.0,0.0,0.0,0.0,0.0,0.0,0.0,0.0,0.0,0.0,0.0,0.0,0.0,0.0,0.0,0.0,0.0,0.0,0.0,0.0,0.0,0.0,0.0,-4.7414,-4.7257,-5.0237,-5.2746,-5.3583,-5.6066,-5.7582,-5.7268,-5.8314,-5.9176,-5.9647,-6.0222,-6.0901,-6.1685,-6.1973,-6.226,-6.2574,-6.2992,-6.328,-6.3437,-6.3437,-6.3437,-6.3437,-6.3437,-6.3358,-6.3201,-6.3201,-6.3201,-6.3201,-6.3045,-6.2731,-6.2339,-6.2182,-6.2104,-6.1973,-6.0535,-5.9882,-5.9725,-5.9568,-5.9411,-5.9281,0.0,0.0,0.0,0.0,0.0,0.0,0.0,0.0,0.0,0.0,0.0,0.0,0.0,0.0,0.0,0.0,0.0,0.0,0.0,0.0,0.0,0.0,0.0,0.0,0.0,0.0,0.0,-5.0966,-5.2108,-5.3034,-5.3739,-5.4001,-5.4236,-5.4419,-5.3844,-5.4012,-5.4687,-5.4076,-5.4992,-5.6593,-5.4339,-5.3608,-5.373,-5.1983,-5.1317,-5.1259,-5.069,-5.0152,-4.9613,-4.9224,0.0,0.0,0.0,0.0,0.0,0.0,0.0,0.0,0.0,0.0,0.0,0.0,0.0,0.0,0.0,0.0,0.0,0.0,0.0,0.0,0.0,0.0,0.0,0.0,-4.9113,-5.1335,-5.2067,-5.3896,-5.57,-5.7085,-5.9359,-6.0718,-6.0483,-6.1502,-6.2182,-6.2182,-6.2496,-6.2888,-6.3384,-6.3489,-6.3646,-6.3881,-6.4221,-6.4404,-6.4404,-6.4404,-6.4273,-6.4038,-6.4038,-6.3907,-6.3672,-6.3672,-6.3672,-6.3672,-6.3672,-6.3489,-6.3175,-6.3175,-6.3175,0.0,0.0,0.0,0.0,0.0,-6.0378,-6.0561,0.0,0.0,0.0,0.0,0.0,0.0,0.0,0.0,0.0,0.0,0.0,0.0,0.0,0.0,0.0,0.0,0.0,0.0,0.0,0.0,0.0,0.0,0.0,0.0,0.0,0.0,0.0,0.0,-5.3348,-5.4287,-5.4365,-5.4913,-5.5408,-5.5919,-5.5371,-5.6107,-5.7605,-5.7115,-5.8105,-5.9913,-5.8784,-5.7948,-5.7049,-5.4796,-5.4119,-5.4251,-5.2995,-5.1738,-5.0614,-5.0554,0.0,0.0,0.0,0.0,0.0,0.0,0.0,0.0,0.0,0.0,0.0,0.0,0.0,0.0,0.0,0.0,0.0,0.0,0.0,0.0,0.0,0.0,0.0,0.0,-5.3181,-5.6206,-5.8149,-5.8402,-5.8889,-6.0326,-6.2051,-6.2914,-6.2417,-6.3384,-6.4038,-6.3985,-6.3959,-6.4378,-6.5318,0.0,0.0,0.0,0.0,-6.5449,-6.5371,-6.5449,-6.5188,-6.4639,-6.4639,-6.4351,-6.3855,-6.3855,-6.3855,-6.3855,-6.3855,-6.3829,-6.3776,-6.3776,-6.3724,-6.3567,-6.2574,-6.2156,-6.2025,-6.0927,-6.0901,-6.1319,0.0,0.0,0.0,0.0,0.0,0.0,0.0,0.0,0.0,0.0,0.0,0.0,0.0,0.0,0.0,0.0,0.0,0.0,0.0,0.0,0.0,0.0,0.0,0.0,0.0,0.0,0.0,0.0,0.0,-5.4877,-5.5314,-5.5442,-5.5753,-5.6107,-5.5537,-5.5669,-5.6329,-5.6881,-5.8005,-5.9362,-6.0225,-5.9822,-5.8501,-5.6467,-5.5743,-5.5688,-5.491,-5.4102,-5.3354,-5.2785,-5.2187,-5.1528,-5.102,0.0,0.0,0.0,0.0,0.0,0.0,0.0,0.0,0.0,0.0,0.0,0.0,0.0,0.0,0.0,0.0,0.0,0.0,0.0,0.0,-5.6153,-5.7551,-5.9332,-6.2543,-6.2762,-6.2469,-6.2339,-6.3855,-6.4848,-6.4743,-6.5763,-6.6233,-6.5815,-6.5789,-6.5658,-6.5397,-6.5266,-6.5266,-6.5371,-6.5841,-6.5867,-6.5397,-6.5867,-6.5815,-6.5214,0.0,0.0,-6.5057,-6.5057,-6.5057,-6.5057,-6.5057,-6.4796,-6.4378,-6.4378,-6.409,-6.3646,-6.3437,-6.3358,-6.3254,-6.2574,-6.2679,-6.3045,0.0,0.0,0.0,0.0,0.0,0.0,0.0,0.0,0.0,0.0,0.0,0.0,0.0,0.0,0.0,0.0,0.0,0.0,0.0,0.0,0.0,0.0,0.0,0.0,0.0,0.0,0.0,0.0,0.0,0.0,-5.5618,-5.5874,-5.6168,-5.6353,-5.5787,-5.621,-5.7471,-5.7247,-5.827,-6.0018,-6.0394,-6.0558,-6.0446,-5.9129,-5.8231,-5.7543,-5.6885,-5.6226,-5.5538,-5.491,-5.4251,-5.3593,-5.2935,-5.2247,-5.1648,0.0,0.0,0.0,0.0,0.0,0.0,0.0,0.0,0.0,0.0,0.0,0.0,0.0,0.0,-4.9907,0.0,0.0,-5.6029,-6.0159,-6.0878,-6.1907,-6.4826,-6.4824,-6.443,-6.4142,-6.5371,-6.6259,-6.6233,-6.7017,-6.7305,-6.673,-6.6678,-6.6547,-6.6259,-6.6233,-6.6103,-6.5841,-6.6129,-6.5998,-6.5397,-6.5684,-6.5841,-6.5841,-6.5528,-6.5684,-6.6207,-6.5632,-6.5554,-6.5815,-6.5528,-6.5214,-6.4953,-6.4953,-6.4796,-6.4534,-6.4534,-6.4012,-6.3201,-6.294,-6.2835,-6.2731,0.0,0.0,0.0,0.0,0.0,0.0,0.0,0.0,0.0,0.0,0.0,0.0,0.0,0.0,0.0,0.0,0.0,0.0,0.0,0.0,0.0,0.0,0.0,0.0,0.0,0.0,0.0,0.0,0.0,0.0,0.0,-5.6244,-5.6448,-5.652,-5.6059,-5.6928,-5.8711,-5.8183,-5.9246,-6.1131,-6.0944,-6.1539,-6.2391,-6.1732,-6.0655,-5.9398,-5.859,-5.7633,-5.6645,-5.6137,-5.5538,-5.491,-5.4371,-5.3922,-5.3414,-5.2636,-5.0976,0.0,0.0,0.0,0.0,0.0,0.0,0.0,0.0,0.0,-4.8256,-5.0777,-5.2354,-5.4214,-5.7139,-5.8441,-6.0209,-6.3782,-6.4038,-6.4353,-6.6141,-6.5967,-6.5554,-6.5554,-6.6495,-6.7174,-6.7253,-6.7802,-6.7906,-6.7305,-6.7253,-6.72,-6.7096,-6.7096,-6.6887,-6.6442,-6.6547,-6.6338,-6.5737,-6.5711,-6.5946,-6.6442,-6.5841,-6.6103,-6.7044,-6.6024,-6.5815,-6.6259,-6.5632,-6.5371,-6.5371,-6.5371,-6.5371,-6.5371,-6.5371,-6.4482,-6.3149,-6.3018,-6.2783,-6.2417,0.0,0.0,0.0,0.0,0.0,0.0,0.0,0.0,0.0,0.0,0.0,0.0,0.0,0.0,0.0,0.0,0.0,0.0,0.0,0.0,0.0,0.0,0.0,0.0,0.0,0.0,0.0,0.0,0.0,0.0,0.0,0.0,-5.641,-5.6772,-5.6721,-5.701,-5.7778,-6.0195,-6.1524,-6.2202,-6.411,-6.4426,-6.3707,-6.3109,-6.2032,-6.0715,-5.9458,-5.7453,-5.5388,-5.5329,-5.485,-5.4311,-5.4221,-5.4551,-5.473,-5.3443,0.0,-5.1685,-5.1212,-5.0956,0.0,-5.169,-5.1327,-5.1577,0.0,0.0,-5.5259,-5.8283,-5.9989,-6.1481,-6.3594,-6.4794,-6.6173,-6.8528,-6.7808,-6.7103,-6.7593,-6.6817,-6.6181,-6.6181,-6.673,-6.7305,-6.7828,-6.8403,-6.8507,-6.7932,-6.788,-6.7645,-6.7122,-6.7096,-6.707,-6.6991,-6.7514,-6.7514,-6.6913,-6.6887,-6.6939,-6.6991,-6.6442,-6.6495,-6.707,-6.6469,-6.6233,-6.6259,-6.5632,-6.5371,-6.5371,-6.5371,-6.5371,-6.5371,-6.5371,-6.4953,-6.4273,-6.3776,-6.3855,-6.4038,0.0,0.0,0.0,0.0,0.0,0.0,0.0,0.0,0.0,0.0,0.0,0.0,0.0,0.0,0.0,0.0,0.0,0.0,0.0,0.0,0.0,0.0,0.0,0.0,0.0,0.0,0.0,0.0,0.0,0.0,0.0,0.0,0.0,-5.6438,-5.6438,-5.6656,-5.7163,-5.8373,-5.9302,-6.0158,-6.1996,-6.2611,-6.2405,-6.229,-6.1025,-5.9249,-5.8291,-5.7004,0.0,0.0,-5.4102,-5.4132,-5.3743,-5.3803,-5.3832,-5.2905,-5.2127,0.0,-5.1289,0.0,0.0,0.0,-5.3617,-5.4211,-5.769,-5.7435,-5.7397,-6.0443,-6.1745,-6.2893,-6.4792,-6.5956,-6.7305,0.0,-6.8372,-6.7587,-6.8686,-6.7323,-6.6155,-6.5789,-6.5946,-6.6599,-6.7854,-6.788,-6.7854,-6.7985,-6.7985,-6.788,-6.7619,-6.7932,-6.7958,-6.7619,-6.7854,-6.7697,-6.7096,-6.6782,-6.6965,-6.7592,-6.6704,-6.6913,-6.8063,-6.6834,-6.6103,-6.5737,-6.5501,-6.5371,-6.5371,-6.5371,-6.5371,-6.5371,-6.5371,-6.524,-6.4953,-6.4378,-6.4116,-6.3881,0.0,0.0,0.0,0.0,0.0,0.0,0.0,0.0,0.0,0.0,0.0,0.0,0.0,0.0,0.0,0.0,0.0,0.0,0.0,0.0,0.0,0.0,0.0,0.0,0.0,0.0,0.0,0.0,0.0,0.0,0.0,0.0,0.0,0.0,-5.6143,-5.6365,-5.6656,-5.7065,-5.7681,-5.8541,-5.9966,-6.0606,-6.0646,-6.0239,-5.8863,-5.7139,-5.6683,-5.5688,0.0,0.0,-5.2695,-5.3025,-5.2546,-5.2606,-5.2785,-5.2127,-5.1588,-5.1289,-5.1648,0.0,0.0,-5.5718,-5.6479,-5.7382,-6.0455,-6.05,-6.0463,-6.2446,-6.3858,-6.4974,-6.5752,-6.6861,0.0,-6.9187,-6.8219,-6.7606,-6.8544,-6.7164,-6.5684,-6.4796,-6.4404,-6.4822,-6.6416,-6.6756,-6.7174,-6.7932,-6.7985,-6.8063,-6.822,-6.8612,-6.8664,-6.8246,-6.822,-6.8011,-6.7566,-6.7017,-6.7253,-6.822,-6.7227,-6.7488,-6.8711,-6.7227,-6.6103,-6.5371,-6.5371,-6.5371,-6.5371,-6.5371,-6.5371,-6.5371,-6.5371,-6.5371,-6.5345,-6.4926,-6.4299,-6.3567,0.0,0.0,0.0,0.0,0.0,0.0,0.0,0.0,0.0,0.0,0.0,0.0,0.0,0.0,0.0,0.0,0.0,0.0,0.0,0.0,0.0,0.0,0.0,0.0,0.0,0.0,0.0,0.0,0.0,0.0,0.0,0.0,0.0,0.0,0.0,-5.6219,-5.6292,-5.7733,-5.8263,-5.8265,-5.9737,-5.9818,-5.8937,-5.7051,-5.5736,-5.4943,-5.5167,0.0,0.0,0.0,-5.0285,-5.0315,-5.0285,-5.1199,0.0,-5.1439,-5.1229,0.0,0.0,0.0,-5.5718,-5.8321,-6.0475,-6.2167,-6.3444,-6.5238,-6.6428,-6.5578,-6.8169,-6.9936,-6.7749,-6.8698,-6.9467,-6.8089,-6.7907,-6.7566,-6.6549,-6.5869,-6.4796,-6.3097,-6.1921,-6.1711,0.0,-6.5005,-6.6782,-6.7906,-6.7985,-6.822,-6.8795,-6.8764,-6.8764,-6.8821,-6.8821,-6.8821,-6.8711,-6.822,-6.8246,-6.8821,-6.822,-6.8246,-6.8711,-6.7619,-6.6442,-6.5371,-6.5371,-6.5371,-6.5371,-6.5371,-6.5371,-6.5371,-6.5371,-6.5371,-6.5371,-6.5371,-6.4639,-6.3515,0.0,0.0,0.0,0.0,0.0,0.0,0.0,0.0,0.0,0.0,0.0,0.0,0.0,0.0,0.0,0.0,0.0,0.0,0.0,0.0,0.0,0.0,0.0,0.0,0.0,0.0,0.0,0.0,0.0,0.0,0.0,0.0,0.0,0.0,0.0,0.0,-5.5186,-5.566,-5.6249,-5.677,-5.6446,-5.6444,-5.6441,-5.4372,-5.2722,-5.1432,0.0,0.0,0.0,0.0,0.0,0.0,-4.8955,-4.9553,0.0,-5.0511,-5.1498,-5.2905,0.0,0.0,-5.9189,-6.2271,-6.4186,-6.589,-6.8046,-6.7524,-6.6546,-6.6282,-6.4611,-6.289,-6.17,-6.2587,-6.3647,-6.3925,-6.5608,-6.6834,-6.6808,-6.6991,-6.5763,-6.213,-6.2365,0.0,0.0,0.0,0.0,-6.6129,-6.6625,-6.7096,-6.7645,-6.8429,-6.8764,-6.8764,-6.8764,-6.8764,-6.8764,-6.8272,-6.8272,-6.8764,-6.8272,-6.8089,-6.8246,-6.707,-6.6338,-6.5946,-6.5554,-6.5371,-6.5371,-6.5371,-6.5371,-6.5371,-6.5371,-6.5371,-6.5292,-6.4534,-6.4247,-6.4142,0.0,0.0,0.0,0.0,0.0,0.0,0.0,0.0,0.0,0.0,0.0,0.0,0.0,0.0,0.0,0.0,0.0,0.0,0.0,0.0,0.0,0.0,0.0,0.0,0.0,0.0,0.0,0.0,0.0,0.0,0.0,0.0,0.0,0.0,0.0,0.0,0.0,-5.2628,-5.2955,-5.3218,-5.2763,-5.2786,-5.2845,-5.1238,-5.0093,0.0,0.0,0.0,0.0,0.0,0.0,0.0,0.0,-4.8386,-4.9134,-5.0272,-5.2157,-5.4491,0.0,-6.0027,-6.2959,-6.6041,-6.7373,-6.823,-6.942,-6.7982,-6.5978,-6.4355,-6.1953,-5.9605,-5.7896,-5.8394,-5.9422,-6.0341,-6.2339,-6.4221,-6.5397,-6.5371,-6.4273,-6.1738,-6.1842,0.0,0.0,0.0,0.0,-6.49,-6.5841,-6.6625,-6.7357,-6.8324,-6.8764,-6.8764,-6.8764,-6.8764,-6.8764,-6.8481,-6.8481,-6.8847,-6.8481,-6.8194,-6.7958,-6.6991,-6.6469,-6.6259,-6.5632,-6.5371,-6.5371,-6.5371,-6.5371,-6.5371,-6.5371,-6.5371,-6.5292,-6.456,-6.4404,-6.4404,0.0,0.0,0.0,0.0,0.0,0.0,0.0,0.0,0.0,0.0,0.0,0.0,0.0,0.0,0.0,0.0,0.0,0.0,0.0,0.0,0.0,0.0,0.0,0.0,0.0,0.0,0.0,0.0,0.0,0.0,0.0,0.0,0.0,0.0,0.0,0.0,0.0,0.0,-4.8837,-4.7945,-4.8936,-4.9027,-4.8568,-4.7782,0.0,0.0,0.0,0.0,0.0,0.0,0.0,0.0,0.0,0.0,-4.8835,-5.09,-5.3414,-5.6376,-6.0326,-6.3797,-6.6879,-6.9482,-6.9862,-6.9258,-6.7877,-6.682,-6.49,-6.0331,-6.013,-5.9709,0.0,0.0,-5.7147,-5.7492,-5.8627,-6.03,-6.26,-6.1555,-6.0927,0.0,0.0,0.0,0.0,0.0,0.0,-6.4351,0.0,-6.6704,-6.788,-6.8481,-6.8821,-6.8764,-6.8764,-6.8764,-6.8764,-6.8764,-6.8764,-6.8764,-6.8738,-6.8507,-6.7958,-6.7331,-6.6756,-6.6259,-6.5632,-6.5371,-6.5371,-6.5371,-6.5371,-6.5371,-6.5371,-6.5371,-6.5345,-6.5318,-6.4953,-6.4247,0.0,0.0,0.0,0.0,0.0,0.0,0.0,0.0,0.0,0.0,0.0,0.0,0.0,0.0,0.0,0.0,0.0,0.0,0.0,0.0,0.0,0.0,0.0,0.0,0.0,0.0,0.0,0.0,0.0,0.0,0.0,0.0,0.0,0.0,0.0,0.0,0.0,0.0,0.0,-4.7794,0.0,-4.6378,-4.6315,0.0,0.0,0.0,0.0,0.0,0.0,0.0,0.0,0.0,0.0,0.0,-5.1139,-5.4581,0.0,-6.0475,-6.4425,-6.7537,-7.0051,-7.1757,-7.1285,-7.0181,-6.9384,-6.6243,-6.2738,-5.986,-5.6482,-5.3378,0.0,0.0,0.0,-5.5453,-5.8889,0.0,-6.3829,-6.4822,0.0,0.0,0.0,-6.2417,-6.0431,-6.1529,0.0,0.0,-6.4822,-6.5658,-6.7227,-6.788,-6.8403,-6.8821,-6.8764,-6.8764,-6.8764,-6.8764,-6.8764,-6.8847,-6.8403,-6.8141,-6.7958,-6.6939,-6.6416,-6.6259,-6.5632,-6.5371,-6.5371,-6.5371,-6.5371,-6.5371,-6.5371,-6.5136,-6.4691,-6.4273,-6.4012,-6.3698,0.0,0.0,0.0,0.0,0.0,0.0,0.0,0.0,0.0,0.0,0.0,0.0,0.0,0.0,0.0,0.0,0.0,0.0,0.0,0.0,0.0,0.0,0.0,0.0,0.0,0.0,0.0,0.0,0.0,0.0,0.0,0.0,0.0,0.0,0.0,0.0,0.0,0.0,0.0,0.0,0.0,0.0,0.0,0.0,0.0,0.0,0.0,0.0,0.0,0.0,0.0,-4.9853,-5.1468,-5.2815,-5.4581,-5.856,0.0,-6.4126,-6.8076,-7.0373,-7.196,-7.3738,-7.1581,-6.874,-6.758,-6.3347,-5.8856,-5.6122,-5.2439,0.0,0.0,0.0,0.0,0.0,0.0,0.0,-6.2679,-6.409,-6.4404,0.0,-6.4168,0.0,-6.2287,-6.3463,-6.4613,0.0,-6.5292,-6.5946,-6.741,-6.8037,-6.8507,-6.8764,-6.8764,-6.8764,-6.8764,-6.8764,-6.8764,-6.8764,-6.8272,-6.7985,-6.7958,-6.6808,-6.6286,-6.6259,0.0,-6.5371,-6.5371,-6.5371,-6.5371,-6.5371,-6.5371,-6.5031,-6.4482,-6.4168,-6.3724,-6.3201,0.0,0.0,0.0,0.0,0.0,0.0,0.0,0.0,0.0,0.0,0.0,0.0,0.0,0.0,0.0,0.0,0.0,0.0,0.0,0.0,0.0,0.0,0.0,0.0,0.0,0.0,0.0,0.0,0.0,0.0,0.0,0.0,0.0,0.0,0.0,0.0,0.0,0.0,0.0,0.0,0.0,0.0,0.0,0.0,0.0,0.0,0.0,0.0,0.0,0.0,-5.0883,-5.2007,-5.4162,-5.6196,-5.856,-6.266,-6.5203,-6.7416,-7.0986,-7.2287,-7.3077,-7.468,-7.0788,-6.6028,-6.4031,-5.9357,-5.4497,-5.1152,0.0,0.0,-4.778,0.0,-4.9191,-5.2223,0.0,-5.7399,-6.0953,-6.2025,-6.2966,-6.4482,-6.5214,-6.5397,-6.4822,-6.5737,-6.6416,-6.6495,-6.6521,-6.6939,-6.7932,-6.8455,-6.8769,-6.8764,-6.8764,-6.8764,-6.8764,-6.8764,-6.8764,-6.8764,-6.8272,-6.7958,-6.7828,-6.6756,-6.6233,-6.6129,-6.5606,0.0,-6.5371,-6.5371,-6.5371,-6.5371,-6.5292,-6.4979,-6.4534,-6.4456,-6.3803,-6.294,0.0,0.0,0.0,0.0,0.0,0.0,0.0,0.0,0.0,0.0,-3.1067,-3.1925,0.0,0.0,0.0,0.0,0.0,0.0,0.0,0.0,0.0,0.0,0.0,0.0,0.0,0.0,0.0,0.0,0.0,0.0,0.0,0.0,0.0,0.0,0.0,0.0,0.0,0.0,0.0,0.0,0.0,0.0,0.0,0.0,0.0,0.0,0.0,0.0,0.0,0.0,-5.2103,-5.4221,-5.7274,-5.9608,-6.2121,-6.664,-6.8974,-7.039,-7.1893,-7.318,-7.3588,-7.1634,-6.7863,-6.4065,-6.1343,-5.6754,0.0,0.0,0.0,-4.6499,-4.6133,-4.7231,0.0,-5.3295,0.0,0.0,0.0,0.0,-6.49,0.0,0.0,0.0,0.0,0.0,0.0,0.0,0.0,-6.7775,-6.7985,-6.8089,-6.835,-6.8821,-6.8764,-6.8764,-6.8764,-6.8764,-6.8764,-6.8764,-6.8272,-6.7723,-6.7227,-6.6573,-6.6024,-6.5528,-6.5423,0.0,-6.5371,-6.5371,-6.5371,-6.5345,-6.4874,-6.4613,-6.4482,-6.4012,-6.3698,-6.3463,0.0,0.0,0.0,0.0,0.0,0.0,0.0,-2.7783,-2.8843,-3.0376,-3.0738,-3.1903,-3.4497,-3.4956,0.0,0.0,0.0,0.0,0.0,0.0,0.0,0.0,0.0,0.0,0.0,0.0,0.0,0.0,0.0,0.0,0.0,0.0,0.0,0.0,0.0,0.0,0.0,0.0,0.0,0.0,0.0,0.0,0.0,0.0,0.0,0.0,0.0,0.0,0.0,0.0,-5.0832,-5.4187,-5.827,-6.1527,-6.4552,-6.7326,-6.904,-7.0309,-7.178,-7.2246,-7.2062,-7.0922,-6.6852,-6.2282,-5.8989,0.0,0.0,0.0,0.0,-4.5663,-4.6003,0.0,0.0,0.0,0.0,0.0,0.0,0.0,0.0,0.0,0.0,0.0,0.0,0.0,0.0,0.0,0.0,0.0,-6.8429,-6.8429,-6.856,-6.8764,-6.8764,-6.8764,-6.8764,-6.8764,-6.8764,-6.8764,-6.8272,-6.7671,-6.7096,-6.6547,-6.5946,-6.5371,-6.5371,0.0,-6.5371,-6.5371,-6.5371,-6.5345,-6.5083,-6.4796,-6.4508,-6.4221,-6.375,-6.3201,0.0,0.0,0.0,0.0,0.0,0.0,0.0,-2.7331,-2.8355,-3.0299,-3.0618,-3.1971,-3.5322,-3.5082,-3.5127,0.0,0.0,0.0,0.0,0.0,0.0,0.0,0.0,0.0,0.0,0.0,0.0,0.0,0.0,0.0,0.0,0.0,0.0,0.0,0.0,0.0,0.0,0.0,0.0,0.0,0.0,0.0,0.0,0.0,0.0,0.0,0.0,0.0,0.0,0.0,-4.9145,-5.2707,-5.6594,-6.0987,-6.4986,-6.6138,-6.7706,-6.936,-7.0835,-7.0924,-7.0466,-6.9971,-6.5598,-6.0454,-5.6747,-5.2154,0.0,0.0,0.0,-4.5271,-4.6447,0.0,0.0,0.0,0.0,0.0,0.0,0.0,0.0,0.0,0.0,0.0,0.0,0.0,0.0,0.0,0.0,0.0,-6.8764,-6.8764,-6.8764,-6.8764,-6.8764,-6.8764,-6.8764,-6.8764,-6.8764,-6.8764,-6.8141,-6.7566,-6.7096,-6.6416,-6.5841,-6.5371,-6.5371,0.0,0.0,-6.5371,-6.5371,-6.5371,-6.524,-6.5005,-6.4691,-6.443,-6.3855,-6.3149,0.0,0.0,0.0,0.0,0.0,0.0,0.0,-2.6941,-2.8094,-3.1263,-3.0836,-3.1804,-3.5843,-3.5353,-3.4931,0.0,0.0,0.0,0.0,0.0,0.0,0.0,0.0,0.0,0.0,0.0,0.0,0.0,0.0,0.0,0.0,0.0,0.0,0.0,0.0,0.0,0.0,0.0,0.0,0.0,0.0,0.0,0.0,0.0,0.0,0.0,0.0,0.0,0.0,0.0,0.0,-4.9699,-5.0657,-5.5858,-6.184,-6.3103,0.0,0.0,-6.8831,-7.0033,-7.0394,-6.6846,-6.2722,-5.8594,-5.459,0.0,0.0,0.0,-4.5558,-4.5842,-4.7048,-4.7388,0.0,0.0,0.0,0.0,0.0,0.0,0.0,0.0,0.0,0.0,0.0,0.0,0.0,0.0,0.0,0.0,-6.879,-6.8764,-6.8764,-6.8764,-6.8764,-6.8764,-6.8764,-6.8764,-6.8764,-6.8821,-6.7697,-6.7148,-6.7044,-6.5972,-6.5423,-6.5371,-6.5371,0.0,0.0,-6.5371,-6.5371,-6.5345,-6.4822,-6.49,-6.5188,-6.4142,-6.4012,-6.4221,0.0,0.0,0.0,0.0,0.0,0.0,-2.6039,-2.6972,-2.809,-2.9128,-3.0287,-3.1738,-3.3791,-3.4416,-3.5077,0.0,0.0,0.0,0.0,0.0,0.0,0.0,0.0,0.0,0.0,0.0,0.0,0.0,0.0,0.0,0.0,0.0,0.0,0.0,0.0,0.0,0.0,0.0,0.0,0.0,0.0,0.0,0.0,0.0,0.0,0.0,0.0,0.0,0.0,0.0,0.0,0.0,-4.5475,-4.8771,0.0,0.0,-6.1221,-6.4372,-6.6177,-6.7987,-6.87,-6.6027,-6.2339,-5.8314,-5.4314,0.0,0.0,-4.5924,-4.5898,-4.6395,-4.7179,-4.7623,-4.8329,0.0,0.0,0.0,0.0,0.0,0.0,0.0,0.0,0.0,0.0,0.0,0.0,0.0,0.0,0.0,-6.937,-6.9344,-6.9213,-6.8764,-6.8764,-6.8764,-6.8764,-6.8764,-6.8764,-6.8764,-6.8011,-6.7436,-6.707,-6.6286,-6.5737,-6.5371,-6.5371,0.0,0.0,-6.5371,-6.5371,-6.5371,-6.5136,-6.5188,-6.5318,-6.4874,-6.4404,-6.3959,0.0,0.0,0.0,0.0,0.0,-2.604,-2.5837,-2.6919,-2.7971,-2.8648,-3.0179,-3.1708,-3.3147,-3.4154,-3.5102,-3.6031,0.0,0.0,0.0,0.0,0.0,0.0,0.0,0.0,0.0,0.0,-3.7462,-3.8015,-3.8592,0.0,0.0,0.0,0.0,0.0,0.0,0.0,0.0,0.0,0.0,0.0,0.0,0.0,0.0,0.0,0.0,0.0,0.0,0.0,0.0,0.0,0.0,0.0,0.0,0.0,0.0,0.0,-5.6588,-6.0405,-6.294,-6.5371,-6.6834,-6.5266,-6.1711,-5.7686,0.0,0.0,0.0,-4.6133,-4.6186,-4.6708,-4.744,-4.7911,-4.8329,0.0,0.0,0.0,0.0,0.0,0.0,0.0,0.0,0.0,0.0,0.0,0.0,0.0,0.0,0.0,0.0,-6.9866,-6.9684,-6.9108,-6.8926,-6.8764,-6.8764,-6.8764,-6.8764,-6.8764,-6.8272,-6.7671,-6.7096,-6.6521,-6.5946,-6.5371,-6.5371,0.0,0.0,-6.5371,-6.5371,-6.5371,-6.5371,-6.5266,-6.5136,-6.5136,-6.4404,-6.341,0.0,0.0,0.0,0.0,0.0,0.0,-2.6448,-2.6614,-2.7852,-3.0929,-3.0827,-3.1716,-3.508,-3.5006,-3.4906,-3.5458,0.0,0.0,0.0,0.0,0.0,0.0,0.0,0.0,0.0,0.0,-3.7462,-3.8015,-3.8592,-3.9145,-3.9697,0.0,0.0,0.0,0.0,0.0,0.0,0.0,0.0,0.0,0.0,0.0,0.0,0.0,0.0,0.0,0.0,0.0,0.0,0.0,0.0,0.0,0.0,0.0,0.0,0.0,-5.2354,-5.7242,-5.8993,-6.2391,-6.5136,-6.3985,-6.0222,-5.6223,0.0,0.0,0.0,-4.6473,-4.6473,-4.6839,-4.7963,-4.8172,-4.8172,-4.8198,0.0,0.0,0.0,0.0,0.0,0.0,0.0,0.0,0.0,0.0,0.0,0.0,0.0,0.0,0.0,-7.0259,-7.0311,-6.971,-6.9135,-6.8764,-6.8764,-6.8764,-6.8764,-6.8764,-6.8272,-6.7697,-6.7122,-6.6547,-6.5946,0.0,0.0,0.0,0.0,-6.5371,-6.5371,-6.5371,-6.5371,-6.5031,-6.4534,-6.4534,-6.3829,-6.2835,0.0,0.0,0.0,0.0,0.0,0.0,0.0,-2.683,-2.8111,-2.8972,-3.0443,-3.1921,-3.315,-3.4123,-3.4756,-3.4931,0.0,0.0,0.0,0.0,0.0,0.0,0.0,0.0,0.0,0.0,-3.7086,-3.8015,-3.8191,-3.8768,-3.9697,-3.9697,-3.9697,0.0,0.0,0.0,0.0,0.0,0.0,0.0,0.0,0.0,0.0,0.0,0.0,0.0,0.0,0.0,0.0,0.0,0.0,0.0,0.0,0.0,0.0,0.0,0.0,0.0,-5.5282,-5.766,-5.9333,-5.8549,-5.6092,-5.3347,-5.1439,0.0,0.0,0.0,-4.6473,-4.6839,-4.7963,-4.8172,-4.8329,-4.8721,-4.8956,0.0,0.0,0.0,0.0,0.0,0.0,0.0,0.0,0.0,0.0,0.0,0.0,0.0,0.0,-7.0494,-7.0311,-6.971,-6.9135,-6.8764,-6.8764,-6.8764,-6.8764,-6.8764,-6.7854,-6.7279,-6.707,-6.6103,-6.5554,0.0,0.0,0.0,0.0,-6.5371,-6.5371,-6.5345,-6.4953,-6.4926,-6.5083,-6.4665,-6.4064,-6.341,0.0,0.0,0.0,0.0,0.0,0.0,0.0,-2.7043,-2.8407,-2.8798,-3.0606,-3.2168,-3.2824,-3.397,-3.468,-3.468,0.0,0.0,0.0,0.0,0.0,0.0,0.0,0.0,-3.6405,-3.6606,-3.7111,-3.8015,-3.8216,-3.8793,-3.9697,-3.9697,-3.9697,-3.9697,-3.9697,0.0,0.0,0.0,0.0,0.0,0.0,0.0,-3.9697,0.0,0.0,0.0,0.0,0.0,0.0,0.0,0.0,0.0,0.0,0.0,0.0,0.0,-4.5349,0.0,0.0,-5.353,-5.5438,-5.5046,-5.34,0.0,0.0,0.0,0.0,0.0,0.0,0.0,-4.7963,-4.8172,-4.8303,-4.8669,-4.893,0.0,0.0,0.0,0.0,0.0,0.0,0.0,0.0,0.0,0.0,0.0,0.0,0.0,0.0,-7.0259,-6.9997,-6.9396,-6.903,-6.8764,-6.8764,-6.8764,-6.8743,-6.8507,-6.7775,-6.72,-6.6756,-6.605,-6.5606,0.0,0.0,0.0,0.0,-6.5371,-6.5371,-6.5318,-6.477,-6.4613,-6.4691,-6.4351,-6.3698,-6.3071,0.0,0.0,0.0,0.0,0.0,0.0,0.0,0.0,-2.8689,-2.9902,-3.1159,-3.2436,-3.3601,-3.4279,-3.4675,-3.468,0.0,0.0,0.0,0.0,0.0,0.0,0.0,0.0,-3.6405,-3.6908,-3.7412,-3.8015,-3.8542,-3.912,-3.9697,-3.9697,-3.9697,-3.9697,-3.9697,-3.9697,0.0,0.0,0.0,0.0,0.0,-3.9697,0.0,0.0,0.0,0.0,0.0,0.0,0.0,0.0,0.0,0.0,0.0,0.0,0.0,0.0,0.0,0.0,0.0,0.0,0.0,0.0,0.0,0.0,0.0,0.0,0.0,0.0,0.0,0.0,0.0,-4.8172,-4.8198,-4.825,-4.8747,0.0,0.0,0.0,0.0,0.0,0.0,0.0,0.0,0.0,0.0,0.0,0.0,0.0,0.0,-6.9684,-6.9422,-6.8711,-6.8711,-6.8685,-6.8716,-6.8685,-6.8481,-6.7932,-6.788,-6.7305,-6.6286,-6.6233,-6.592,0.0,0.0,0.0,0.0,-6.5345,-6.5318,-6.5266,-6.4639,-6.4116,-6.3672,-6.362,-6.294,-6.2104,0.0,0.0,0.0,0.0,0.0,0.0,0.0,0.0,0.0,0.0,-3.0806,-3.2391,-3.2171,-3.3306,-3.4248,0.0,0.0,0.0,0.0,0.0,0.0,0.0,0.0,0.0,-3.6405,-3.6531,-3.7036,-3.8015,-3.814,-3.8718,-3.9697,-3.9697,-3.9697,-3.9697,-3.9697,-3.9697,0.0,0.0,0.0,0.0,-3.9697,-3.9697,0.0,0.0,0.0,0.0,-4.0032,-4.0134,0.0,0.0,0.0,0.0,0.0,0.0,0.0,0.0,-4.352,-4.4068,-4.4042,0.0,-4.744,-4.744,-4.7153,-4.6813,0.0,0.0,0.0,0.0,0.0,0.0,0.0,0.0,0.0,0.0,0.0,0.0,0.0,0.0,0.0,0.0,0.0,0.0,0.0,0.0,0.0,0.0,0.0,0.0,0.0,-6.9684,-6.9239,-6.822,-6.8194,-6.7958,-6.7514,-6.7958,-6.788,-6.7305,-6.6887,-6.6547,-6.6259,-6.5815,-6.5528,0.0,0.0,0.0,-6.5345,-6.49,-6.4743,-6.4639,-6.362,-6.341,-6.362,-6.3175,-6.2862,-6.2652,0.0,0.0,0.0,0.0,0.0,0.0,0.0,0.0,0.0,0.0,0.0,0.0,0.0,0.0,0.0,0.0,0.0,0.0,0.0,0.0,0.0,0.0,0.0,-3.6405,-3.6405,-3.6656,-3.7161,-3.8015,-3.8266,-3.8843,-3.9697,-3.9697,-3.9697,-3.9697,-3.9697,-3.9697,-3.9697,-3.9697,-3.9697,-3.9697,-3.9697,0.0,0.0,0.0,0.0,0.0,-3.9981,-4.0083,0.0,-4.1335,-4.193,-4.2242,0.0,0.0,0.0,0.0,-4.3807,-4.4199,-4.3885,-4.4696,-4.5581,-4.5581,-4.582,-4.6003,0.0,0.0,0.0,0.0,0.0,0.0,0.0,0.0,0.0,0.0,0.0,0.0,0.0,0.0,0.0,0.0,0.0,0.0,0.0,0.0,0.0,0.0,0.0,0.0,0.0,-6.9056,-6.8507,-6.7592,-6.7566,-6.741,-6.7096,-6.741,-6.7279,-6.6704,-6.6416,-6.6129,-6.5867,-6.5528,-6.524,0.0,0.0,0.0,-6.456,-6.4273,-6.4142,-6.4064,-6.3175,-6.3018,-6.3227,-6.2652,-6.2443,-6.2443,0.0,0.0,0.0,0.0,0.0,0.0,0.0,0.0,0.0,0.0,0.0,0.0,0.0,0.0,0.0,0.0,0.0,0.0,0.0,0.0,0.0,0.0,0.0,-3.6405,-3.6405,-3.6958,-3.7462,-3.8015,-3.8592,-3.9145,-3.9697,-3.9697,-3.9697,-3.9697,-3.9697,-3.9697,-3.9697,-3.9697,-3.9697,-3.9697,-3.9697,0.0,0.0,0.0,0.0,0.0,0.0,0.0,0.0,-4.1591,-4.2187,-4.2578,-4.3226,0.0,0.0,0.0,0.0,0.0,-4.4826,-4.5375,-4.5846,-4.5607,-4.6055,-4.6473,-4.6473,0.0,0.0,0.0,0.0,0.0,0.0,0.0,0.0,0.0,0.0,0.0,0.0,0.0,0.0,0.0,0.0,0.0,0.0,0.0,0.0,0.0,0.0,0.0,0.0,-6.8168,-6.7566,-6.6991,-6.6965,-6.6913,-6.6834,-6.6913,-6.6678,-6.6155,-6.6155,-6.5867,-6.5371,-6.5292,-6.4979,-6.4534,0.0,0.0,-6.3672,-6.3593,-6.3541,-6.3489,-6.2914,-6.2705,-6.2626,-6.2156,-6.1973,-6.1973,0.0,0.0,0.0,0.0,0.0,0.0,0.0,0.0,0.0,0.0,0.0,0.0,0.0,0.0,0.0,0.0,0.0,0.0,0.0,0.0,0.0,-3.6405,-3.6405,-3.6405,-3.6405,-3.6958,-3.7462,-3.8015,-3.8592,-3.9145,-3.9697,-3.9697,-3.9697,-3.9697,-3.9697,-3.9697,-3.9697,-3.9697,-3.9697,-3.9697,-3.9697,0.0,0.0,0.0,0.0,0.0,0.0,0.0,0.0,-4.0871,-4.1465,-4.2087,-4.3096,0.0,0.0,0.0,0.0,0.0,-4.5294,-4.6208,-4.6782,-4.5816,-4.6055,-4.6473,-4.6473,0.0,0.0,0.0,0.0,0.0,0.0,0.0,0.0,0.0,0.0,0.0,0.0,0.0,0.0,0.0,0.0,0.0,0.0,0.0,0.0,0.0,0.0,0.0,0.0,-6.7566,-6.6965,-6.6416,-6.6416,-6.6155,-6.5658,-6.6155,-6.6103,-6.5528,-6.5528,-6.5475,-6.5371,-6.4874,-6.4613,-6.4508,0.0,-6.375,-6.3646,-6.3149,-6.2966,-6.2888,-6.2339,-6.2104,-6.2077,-6.1999,-6.1973,-6.1973,0.0,0.0,0.0,0.0,0.0,0.0,0.0,0.0,0.0,0.0,0.0,0.0,0.0,0.0,0.0,0.0,0.0,0.0,0.0,0.0,0.0,-3.6405,-3.6707,-3.6857,-3.6857,-3.7061,-3.7613,-3.8467,-3.8743,-3.9145,-3.9697,-3.9697,-3.9697,-3.9697,-3.9697,-3.9697,-3.9697,-3.9697,-3.9697,-3.9697,0.0,0.0,0.0,0.0,0.0,0.0,0.0,0.0,0.0,0.0,-4.1854,-4.258,-4.3386,0.0,0.0,0.0,0.0,0.0,-4.5007,-4.5712,-4.6365,-4.6525,-4.6761,-4.6865,-4.6552,0.0,0.0,0.0,0.0,0.0,0.0,0.0,0.0,0.0,0.0,0.0,0.0,0.0,0.0,0.0,0.0,0.0,0.0,0.0,0.0,0.0,0.0,0.0,0.0,0.0,-6.639,-6.5815,-6.5501,-6.5057,-6.4456,-6.4743,-6.49,-6.4926,-6.4926,-6.477,-6.4456,-6.4195,-6.3907,-6.3593,0.0,-6.3045,-6.2731,-6.2469,-6.2365,-6.2339,-6.2077,-6.1973,-6.1973,-6.1973,-6.1973,-6.1973,0.0,0.0,0.0,0.0,0.0,0.0,0.0,0.0,0.0,0.0,0.0,0.0,0.0,0.0,0.0,0.0,0.0,0.0,0.0,0.0,-3.6405,-3.6405,-3.6885,-3.7186,-3.7186,-3.7437,-3.8064,-3.8919,-3.9045,-3.927,-3.9697,-3.9697,-3.9697,-3.9697,-3.9697,-3.9697,-3.9697,-3.9697,-3.9697,-3.9697,0.0,0.0,0.0,0.0,0.0,0.0,0.0,0.0,0.0,0.0,0.0,0.0,0.0,0.0,0.0,-4.4276,-4.4434,-4.4565,-4.4696,-4.5271,-4.6029,-4.6917,-4.7231,-4.7388,-4.7623,-4.6891,0.0,0.0,0.0,0.0,0.0,0.0,0.0,0.0,0.0,0.0,0.0,0.0,0.0,0.0,0.0,0.0,0.0,0.0,0.0,0.0,0.0,0.0,0.0,0.0,-6.5606,-6.5005,-6.456,-6.4116,-6.3672,-6.3541,-6.3776,-6.4325,-6.4325,-6.4116,-6.3672,-6.3541,-6.3175,-6.2626,-6.2496,-6.2104,-6.1555,-6.1555,-6.1633,-6.1764,-6.1764,-6.1868,-6.1973,-6.1973,-6.1973,-6.1947,0.0,0.0,0.0,0.0,0.0,0.0,0.0,0.0,0.0,0.0,0.0,0.0,0.0,0.0,0.0,0.0,0.0,0.0,0.0,0.0,-3.6405,-3.6405,-3.6885,-3.7186,-3.7186,-3.8265,-3.8844,-3.8919,-3.9371,-3.9647,-3.9697,-3.9697,-3.9697,-3.9697,-3.9697,-3.9697,-3.9697,-3.9697,-3.9697,-3.9697,-3.9697,0.0,0.0,0.0,0.0,0.0,0.0,0.0,0.0,0.0,0.0,0.0,0.0,0.0,-4.3154,-4.3154,-4.352,-4.4042,-4.4591,-4.5558,-4.6447,-4.6525,-4.6944,0.0,-5.0629,-5.0786,0.0,-5.1884,0.0,0.0,0.0,0.0,0.0,0.0,0.0,0.0,0.0,0.0,0.0,0.0,0.0,0.0,0.0,0.0,0.0,0.0,0.0,0.0,0.0,0.0,0.0,-6.3829,-6.375,-6.3724,-6.3672,-6.3149,-6.3175,-6.375,-6.375,-6.3724,-6.3646,-6.3123,-6.2574,-6.1999,-6.1476,-6.0901,-6.0352,-6.0352,-6.0666,-6.1189,-6.1189,-6.1502,-6.1973,-6.1973,-6.1973,-6.1894,0.0,0.0,0.0,0.0,0.0,0.0,0.0,0.0,0.0,0.0,0.0,0.0,0.0,0.0,0.0,0.0,0.0,0.0,0.0,-3.6279,-3.6405,-3.6405,-3.6885,-3.7337,-3.7688,-3.8467,-3.9044,-3.9371,-3.9597,-3.9697,-3.9697,-3.9697,-3.9697,-3.9697,-3.9697,-3.9697,-3.9697,-3.9697,-3.9697,-3.9697,-3.9697,-3.9697,0.0,0.0,0.0,0.0,0.0,0.0,0.0,0.0,-4.1983,-4.2342,0.0,0.0,-4.3075,-4.3441,-4.3702,-4.3912,-4.4147,-4.5871,-4.7504,-4.7088,-4.8042,0.0,0.0,-5.0106,-5.0368,-5.2589,-5.3269,0.0,0.0,0.0,0.0,0.0,0.0,0.0,0.0,0.0,0.0,0.0,0.0,0.0,0.0,0.0,0.0,0.0,0.0,0.0,0.0,0.0,0.0,-6.3175,-6.2809,-6.2443,-6.2104,-6.1502,-6.1319,-6.1529,-6.226,-6.2443,-6.2077,-6.1868,-6.1659,-6.1398,-6.0823,-6.0431,-6.0222,-6.0222,-6.0352,-6.0561,-6.0561,-6.0692,-6.0927,-6.1293,-6.1215,-6.0953,0.0,0.0,0.0,0.0,0.0,0.0,0.0,0.0,0.0,0.0,0.0,0.0,0.0,0.0,0.0,0.0,0.0,0.0,-3.6031,-3.6304,-3.6405,-3.6405,-3.6885,-3.7437,-3.799,-3.8567,-3.9145,-3.9697,-3.9697,-3.9697,-3.9697,-3.9697,-3.9697,-3.9697,-3.9697,-3.9697,-3.9697,-3.9697,-3.9697,-3.9697,-3.9697,-3.9798,0.0,0.0,0.0,0.0,0.0,0.0,0.0,0.0,0.0,0.0,0.0,0.0,0.0,0.0,-4.3467,-4.365,-4.3833,-4.5474,-4.7215,0.0,0.0,0.0,-5.1448,-5.1408,-5.1993,-5.5313,-5.608,0.0,0.0,0.0,0.0,0.0,0.0,0.0,0.0,0.0,0.0,0.0,0.0,0.0,0.0,0.0,0.0,0.0,0.0,0.0,0.0,0.0,0.0,0.0,-6.1711,-6.1241,-6.0849,-6.0248,-5.996,-5.996,-6.0771,-6.1032,-6.0849,-6.0849,-6.0744,-6.0535,-6.0117,-5.9856,-5.9673,-5.9673,-5.9777,-5.996,-6.0143,-6.0222,-6.0274,-6.0692,-6.0561,-6.03,0.0,0.0,0.0,0.0,0.0,0.0,0.0,0.0,0.0,0.0,0.0,0.0,0.0,0.0,0.0,0.0,0.0,0.0,-3.5458,-3.6056,-3.6405,-3.6405,-3.6885,-3.7437,-3.799,-3.8567,-3.9145,-3.9697,-3.9697,-3.9697,-3.9697,-3.9697,-3.9697,-3.9697,-3.9697,-3.9697,-3.9697,-3.9697,-3.9697,-3.9697,-3.9697,-4.0023,-4.0526,0.0,0.0,0.0,0.0,0.0,0.0,0.0,-4.3229,0.0,0.0,0.0,0.0,0.0,-4.2579,-4.3154,-4.3729,-4.4304,0.0,0.0,0.0,0.0,0.0,0.0,-5.6355,0.0,0.0,0.0,0.0,0.0,0.0,0.0,0.0,0.0,0.0,0.0,0.0,0.0,0.0,0.0,0.0,0.0,0.0,0.0,0.0,0.0,0.0,0.0,0.0,0.0,-6.0535,-6.0222,-6.0222,-5.9647,-5.9359,-5.9359,-5.9359,-5.9647,-6.0222,-6.0222,-5.9908,-5.9359,-5.9359,-5.9045,-5.8523,-5.8523,-5.8836,-5.9411,-5.9986,-6.0195,-6.0195,-6.0222,-6.0222,-6.0044,0.0,0.0,0.0,0.0,0.0,0.0,0.0,0.0,0.0,0.0,0.0,0.0,0.0,0.0,0.0,0.0,0.0,0.0,-3.6081,-3.6329,-3.6405,-3.6405,-3.6556,-3.6908,-3.7412,-3.8366,-3.9145,-3.9697,-3.9697,-3.9697,-3.9697,-3.9697,-3.9697,-3.9697,-3.9697,-3.9697,-3.9697,-3.9697,-3.9923,-4.0249,-3.9848,-4.0023,-4.0526,0.0,0.0,0.0,0.0,0.0,0.0,0.0,0.0,0.0,0.0,0.0,0.0,-4.3468,-4.3781,-4.4173,-4.3938,0.0,0.0,0.0,0.0,0.0,0.0,0.0,0.0,0.0,0.0,0.0,0.0,0.0,0.0,0.0,0.0,0.0,0.0,0.0,0.0,0.0,0.0,0.0,0.0,0.0,0.0,0.0,0.0,0.0,0.0,0.0,0.0,0.0,-5.9934,-5.962,-5.962,-5.9045,-5.8758,-5.8758,-5.8758,-5.9072,-5.962,-5.962,-5.9516,-5.9333,-5.8941,-5.8679,-5.8523,-5.8523,-5.8627,-5.8784,-5.8967,-5.9019,-5.9072,-5.9464,-5.9359,-5.9052,0.0,0.0,0.0,0.0,0.0,0.0,0.0,0.0,0.0,0.0,-3.1436,-3.2537,0.0,0.0,0.0,0.0,0.0,0.0,0.0,-3.6405,-3.6405,-3.6405,-3.6631,-3.7109,-3.7839,-3.8743,-3.9371,-3.9697,-3.9697,-3.9697,-3.9697,-3.9697,-3.9923,-4.035,-4.035,-4.035,-4.035,-4.0576,-4.0475,-4.0224,-4.0551,-4.0805,-4.1089,0.0,0.0,0.0,0.0,0.0,0.0,0.0,0.0,0.0,0.0,0.0,0.0,-4.3912,-4.4278,-4.4696,-4.4591,0.0,0.0,0.0,0.0,0.0,0.0,0.0,0.0,0.0,0.0,0.0,0.0,0.0,0.0,0.0,0.0,0.0,0.0,0.0,0.0,0.0,0.0,0.0,0.0,0.0,0.0,0.0,0.0,0.0,0.0,0.0,0.0,0.0,-5.9098,-5.8679,-5.8679,-5.8131,-5.7843,-5.7843,-5.7843,-5.8026,-5.8366,-5.881,-5.9019,-5.8993,-5.8418,-5.8052,-5.7843,-5.8078,-5.8183,-5.8183,-5.8042,-5.8016,-5.8209,-5.8407,-5.8329,-5.8243,0.0,0.0,0.0,0.0,0.0,0.0,0.0,0.0,0.0,0.0,-3.0873,-3.2284,0.0,0.0,0.0,0.0,0.0,0.0,0.0,0.0,-3.643,-3.648,-3.7008,-3.7764,-3.8894,-3.9371,-3.9647,-3.9697,-3.9697,-3.9697,-3.9697,-3.9747,-4.03,-4.12,-4.12,-4.12,-4.125,-4.1781,-4.1232,-4.0025,-4.1534,-4.2023,-4.1963,-4.2471,0.0,0.0,0.0,0.0,0.0,0.0,0.0,0.0,0.0,0.0,0.0,-4.3964,-4.4356,-4.4877,0.0,0.0,0.0,0.0,0.0,0.0,0.0,0.0,0.0,0.0,0.0,0.0,0.0,0.0,0.0,0.0,0.0,0.0,0.0,0.0,0.0,0.0,0.0,0.0,0.0,0.0,0.0,0.0,0.0,0.0,0.0,0.0,0.0,-5.9274,-5.8227,-5.7651,-5.7651,-5.7059,-5.6798,-5.6798,-5.6798,-5.6798,-5.685,-5.7895,-5.8366,-5.834,-5.7817,-5.7294,-5.6781,-5.7373,-5.7582,-5.7512,-5.7162,-5.7232,-5.7512,-5.7162,-5.7232,-5.752,0.0,0.0,0.0,0.0,0.0,0.0,0.0,0.0,0.0,0.0,0.0,0.0,0.0,0.0,0.0,0.0,0.0,0.0,0.0,0.0,-3.6606,-3.6985,-3.7538,-3.8165,-3.8894,-3.8994,-3.927,-3.9697,-3.9697,-3.9697,-3.9697,-4.0149,-4.0475,-4.0701,-4.0701,-4.0701,-4.0701,-4.0827,-4.1087,-4.1347,-4.1433,-4.1976,-4.2741,-4.2869,-4.3213,0.0,0.0,0.0,0.0,0.0,0.0,0.0,-4.4539,-4.4879,-4.5166,-4.4696,-4.4957,0.0,0.0,0.0,0.0,0.0,0.0,0.0,0.0,0.0,0.0,0.0,0.0,0.0,0.0,0.0,0.0,0.0,0.0,0.0,0.0,0.0,0.0,0.0,0.0,0.0,0.0,0.0,0.0,0.0,0.0,0.0,0.0,0.0,0.0,-5.8122,-5.7346,-5.6981,-5.6981,-5.6876,-5.6798,0.0,-5.6798,-5.6798,-5.6824,-5.7059,-5.719,-5.7163,-5.7033,-5.679,-5.6435,-5.6539,-5.6591,-5.6591,-5.6522,-5.6522,-5.6591,-5.6522,-5.6287,-5.6129,0.0,0.0,0.0,0.0,0.0,0.0,0.0,0.0,0.0,0.0,0.0,0.0,0.0,0.0,0.0,0.0,0.0,0.0,0.0,0.0,-3.6782,-3.7538,-3.7839,-3.8391,-3.9245,-3.927,-3.9396,-3.9697,-3.9697,-3.9823,-4.0099,-4.0375,-4.1078,-4.2057,-4.153,-4.1605,-4.2057,-4.153,-4.126,-4.1216,-4.1746,-4.2163,-4.2618,-4.2778,-4.3327,-4.4037,-4.3937,0.0,0.0,0.0,0.0,0.0,0.0,0.0,-4.514,-4.4772,-4.5166,-4.582,0.0,0.0,0.0,0.0,0.0,0.0,0.0,0.0,0.0,0.0,0.0,0.0,0.0,0.0,0.0,0.0,0.0,0.0,0.0,0.0,0.0,0.0,0.0,0.0,0.0,0.0,0.0,0.0,0.0,0.0,0.0,-5.8418,-5.7843,-5.7268,-5.6693,-5.6379,-5.6379,-5.6118,-5.5987,-5.5987,-5.5987,-5.5987,-5.6013,-5.6356,-5.6392,-5.6106,-5.6106,-5.5881,-5.5443,-5.5727,-5.5857,-5.5857,-5.5486,-5.5442,-5.5606,-5.5417,-5.5347,-5.5406,0.0,0.0,0.0,0.0,0.0,0.0,0.0,0.0,0.0,0.0,0.0,0.0,0.0,0.0,0.0,0.0,0.0,0.0,0.0,0.0,0.0,-3.7965,-3.809,-3.8642,-3.9672,-3.9697,-3.9697,-3.9697,-3.9697,-4.0124,-4.0953,-4.0752,-4.163,-4.3338,-4.2564,-4.266,-4.3463,-4.259,-4.1688,-4.091,-4.2081,-4.2531,-4.2523,-4.2707,-4.3567,-4.4591,-4.3597,-4.4304,-4.5503,-4.5007,0.0,0.0,0.0,0.0,-4.4798,-4.4748,-4.5033,-4.5715,0.0,0.0,0.0,0.0,0.0,0.0,0.0,0.0,0.0,0.0,0.0,0.0,0.0,0.0,0.0,0.0,0.0,0.0,0.0,0.0,0.0,0.0,0.0,0.0,0.0,0.0,0.0,0.0,0.0,0.0,-5.8261,-5.7582,-5.7007,-5.6536,-5.5935,-5.5674,-5.5778,-5.5334,-5.5099,-5.5099,-5.5032,-5.5032,-5.5125,-5.5615,-5.5633,-5.5235,-5.5235,-5.4883,-5.436,-5.485,-5.5031,-5.5031,-5.4414,-5.4345,-5.4645,-5.4276,-5.4345,-5.4687,0.0,0.0,0.0,0.0,0.0,0.0,0.0,0.0,0.0,0.0,-3.2982,0.0,0.0,0.0,0.0,0.0,0.0,0.0,0.0,0.0,0.0,-3.799,-3.8492,-3.9044,-3.9672,-3.9697,-3.9697,-3.9697,-3.9697,0.0,0.0,0.0,-4.1326,-4.1626,-4.2007,-4.2288,-4.2414,-4.2263,-4.2106,-4.2025,-4.2449,-4.3031,-4.3649,-4.3382,-4.3879,-4.4642,-4.4511,-4.4929,-4.5555,-4.5477,-4.5898,0.0,0.0,0.0,-4.5401,-4.4824,-4.4774,0.0,0.0,0.0,0.0,0.0,0.0,0.0,0.0,0.0,0.0,0.0,0.0,0.0,0.0,0.0,0.0,0.0,0.0,0.0,0.0,0.0,0.0,0.0,0.0,0.0,0.0,0.0,0.0,0.0,0.0,0.0,-5.7059,-5.6013,-5.5412,-5.5334,-5.4733,-5.468,-5.5203,-5.5151,-5.5099,-5.5099,-5.4738,-5.4805,-5.5032,-5.4244,-5.4108,-5.4614,-5.4614,-5.4251,-5.3614,-5.3691,-5.3716,-5.3716,-5.3648,-5.3648,-5.3648,-5.3648,-5.3442,-5.3344,0.0,0.0,0.0,0.0,0.0,0.0,0.0,0.0,0.0,0.0,0.0,-3.337,0.0,0.0,0.0,0.0,0.0,0.0,0.0,0.0,0.0,-3.7538,-3.8391,-3.8994,-3.922,-3.9546,-3.9697,-3.9697,0.0,0.0,0.0,-4.2333,-4.3087,0.0,-4.3865,-4.3714,-4.3915,-4.2359,-4.1893,-4.2189,-4.1968,-4.2697,-4.3847,-4.3226,-4.3905,-4.5085,-4.4271,-4.4872,-4.6055,-4.5741,-4.6212,-4.6813,-4.5924,0.0,0.0,0.0,-4.4668,0.0,0.0,0.0,0.0,0.0,0.0,0.0,0.0,0.0,0.0,0.0,0.0,0.0,0.0,0.0,0.0,0.0,0.0,0.0,0.0,0.0,0.0,0.0,0.0,0.0,0.0,0.0,0.0,0.0,0.0,-5.6928,-5.6327,-5.5543,-5.5099,-5.5099,-5.4837,-5.4837,-5.5099,-5.4586,-5.4337,-5.427,-5.3576,-5.3823,-5.4712,-5.3731,-5.3622,-5.4174,-5.3997,-5.3793,-5.3478,-5.3478,-5.3478,-5.3478,-5.3273,-5.3136,-5.3136,-5.3136,-5.3067,-5.303,0.0,0.0,0.0,0.0,0.0,0.0,0.0,0.0,0.0,0.0,0.0,0.0,0.0,0.0,0.0,0.0,0.0,0.0,0.0,0.0,0.0,-3.7387,-3.8341,-3.8944,-3.9069,-3.9471,-3.9697,-3.9697,0.0,0.0,-4.2785,-4.3363,-4.5171,0.0,-4.5924,-4.5296,-4.5547,-4.3187,-4.2464,-4.2962,-4.2332,-4.2853,-4.4045,-4.3536,-4.4375,-4.566,-4.4398,-4.5103,-4.6604,-4.6029,-4.6604,-4.7362,-4.6212,-4.5846,0.0,0.0,0.0,0.0,0.0,0.0,0.0,0.0,0.0,0.0,0.0,0.0,0.0,0.0,0.0,0.0,0.0,0.0,0.0,0.0,0.0,0.0,0.0,0.0,0.0,0.0,0.0,0.0,0.0,0.0,0.0,0.0,0.0,-5.6327,-5.5726,-5.5177,-5.4863,-5.4863,-5.4733,-5.4733,-5.4863,-5.3959,-5.3409,-5.3318,-5.255,-5.2858,-5.4144,-5.3263,-5.3257,-5.3861,-5.3614,-5.341,-5.3341,-5.3341,-5.3341,-5.3341,-5.2998,-5.2929,-5.2929,-5.2929,-5.2929,-5.3005,0.0,0.0,0.0,0.0,0.0,0.0,0.0,0.0,0.0,0.0,0.0,0.0,-3.4625,-3.5132,-3.573,-3.6329,-3.638,0.0,0.0,0.0,0.0,-3.7939,-3.8542,0.0,-3.9647,-3.9672,-3.9697,0.0,0.0,0.0,-4.4518,-4.5095,-4.7104,-5.0142,-4.7431,-4.625,-4.6175,-4.497,-4.4781,-4.5246,-4.4207,-4.4126,-4.472,-4.5242,-4.5872,-4.6342,-4.5686,-4.6234,-4.7205,-4.663,-4.7205,-4.7937,-4.6787,-4.6421,-4.6212,0.0,0.0,0.0,0.0,0.0,0.0,0.0,0.0,0.0,0.0,0.0,0.0,0.0,0.0,0.0,0.0,0.0,0.0,0.0,0.0,0.0,0.0,0.0,0.0,0.0,0.0,0.0,0.0,0.0,0.0,0.0,0.0,-5.5726,-5.5177,-5.4576,-5.4262,-5.4262,-5.3739,-5.3739,-5.4236,-5.3335,-5.2724,-5.2371,-5.1976,-5.2348,-5.3269,-5.2506,-5.2674,-5.3546,-5.3478,-5.3273,-5.2929,-5.2929,-5.2929,-5.2929,-5.2929,-5.2929,-5.2929,-5.2929,-5.2929,-5.3005,0.0,0.0,0.0,0.0,0.0,0.0,0.0,0.0,0.0,0.0,0.0,0.0,0.0,-3.5382,-3.5755,-3.6355,-3.6732,0.0,0.0,0.0,0.0,-3.8015,-3.8894,-3.932,-3.917,-3.9521,0.0,0.0,0.0,-4.1028,-4.3062,-4.3966,-4.5623,-4.7782,-4.7481,-4.733,-4.723,-4.5397,0.0,0.0,-4.4663,-4.5128,-4.6035,-4.5515,-4.6017,-4.6834,-4.5727,-4.6434,-4.7858,-4.7649,-4.8094,-4.8564,-4.7388,-4.6787,-4.6238,-4.5062,-4.4955,0.0,0.0,0.0,0.0,0.0,0.0,0.0,0.0,0.0,0.0,0.0,0.0,0.0,0.0,0.0,0.0,0.0,0.0,0.0,0.0,0.0,0.0,0.0,0.0,0.0,0.0,0.0,0.0,0.0,0.0,0.0,-5.5125,-5.421,-5.3844,-5.4184,-5.3687,-5.3101,-5.2466,-5.1935,-5.1546,-5.1481,-5.0735,-5.1064,-5.2282,-5.1841,-5.1942,-5.2631,-5.2984,-5.2998,-5.2929,-5.2929,-5.2929,-5.2929,-5.2929,-5.2929,-5.2929,-5.2929,-5.2929,-5.2955,0.0,0.0,0.0,0.0,0.0,0.0,0.0,0.0,-3.3383,-3.3847,0.0,0.0,0.0,0.0,-3.6031,-3.6631,-3.696,-3.7262,-3.7437,-3.8341,-3.8693,-3.8316,-3.9195,-3.9521,-3.917,0.0,0.0,0.0,0.0,0.0,0.0,-4.3288,-4.4794,-4.6602,-4.6954,-4.7606,0.0,0.0,0.0,-4.64,0.0,-4.6065,-4.725,-4.6913,-4.723,-4.7743,-4.7022,-4.7548,-4.8544,-4.8361,-4.857,-4.87,-4.7528,-4.6543,-4.5767,-4.5192,-4.5111,0.0,0.0,0.0,0.0,0.0,0.0,0.0,0.0,0.0,0.0,0.0,0.0,0.0,0.0,0.0,0.0,0.0,0.0,0.0,0.0,0.0,0.0,0.0,0.0,0.0,0.0,0.0,0.0,0.0,0.0,0.0,-5.4612,-5.37,-5.3257,-5.3309,-5.2971,-5.222,-5.1075,-5.0791,-5.0662,-5.0532,-4.9895,-5.0197,-5.1301,-5.133,-5.1574,-5.2126,-5.2678,-5.2929,-5.2929,-5.2929,-5.2929,-5.2929,-5.2929,-5.2929,-5.2929,-5.2929,-5.2929,-5.2929,0.0,0.0,0.0,0.0,0.0,0.0,0.0,0.0,-3.3657,-3.3903,0.0,0.0,0.0,0.0,0.0,-3.7161,-3.7236,-3.7462,-3.799,-3.8567,-3.8944,-3.8944,0.0,0.0,0.0,0.0,0.0,0.0,0.0,0.0,0.0,0.0,-4.4895,-4.6892,-4.5924,-4.6954,-4.9389,0.0,-4.7893,-4.9038,0.0,-4.7069,-4.8205,0.0,0.0,0.0,-4.9655,-4.9681,-4.9325,-4.8756,-4.8635,-4.8454,-4.7179,-4.5853,-4.4824,-4.5399,-4.5164,-4.472,0.0,0.0,0.0,0.0,0.0,0.0,0.0,0.0,0.0,0.0,0.0,0.0,0.0,0.0,0.0,0.0,0.0,0.0,0.0,0.0,0.0,0.0,0.0,0.0,0.0,0.0,0.0,0.0,0.0,-5.3987,-5.3682,-5.3113,-5.2349,-5.146,-5.146,-5.0985,-5.0129,-5.0129,-4.9912,-4.959,-4.959,-4.9866,-5.0419,-5.0996,-5.1548,-5.2076,-5.2653,-5.2904,-5.2904,-5.2929,-5.2929,-5.2929,-5.2929,-5.2929,-5.2929,-5.2929,-5.2929,-5.2929,0.0,0.0,0.0,0.0,0.0,-3.3759,-3.3608,-3.4015,-3.4535,0.0,0.0,0.0,-3.6634,-3.7211,-3.7613,-3.7764,-3.8165,-3.8467,-3.8617,-3.9145,-3.9471,-3.9471,-3.9622,-3.9697,-3.9697,0.0,0.0,0.0,0.0,0.0,0.0,0.0,0.0,0.0,-4.4644,-4.5748,-4.7129,-4.5849,0.0,-4.8531,-4.7196,-4.8144,0.0,0.0,0.0,0.0,0.0,-5.0078,-5.0278,-5.0348,-5.0234,-4.9662,-4.7482,-4.6139,-4.5346,-4.5226,-4.5627,-4.5947,-4.5697,0.0,0.0,0.0,0.0,0.0,0.0,0.0,0.0,0.0,0.0,0.0,0.0,0.0,0.0,0.0,0.0,0.0,0.0,0.0,0.0,0.0,0.0,0.0,0.0,0.0,0.0,0.0,-5.3073,-5.2773,-5.2708,-5.2128,-5.1563,-5.0844,-5.0589,-5.0346,-5.0129,-4.9847,-4.9654,-4.959,-4.959,-4.9665,-4.9841,-5.0393,-5.0745,-5.0946,-5.19,-5.2327,-5.2352,-5.2754,-5.2929,-5.2929,-5.2929,-5.2929,-5.2929,-5.2929,-5.2929,-5.2929,0.0,0.0,0.0,0.0,0.0,-3.4173,-3.3922,-3.4575,-3.5132,0.0,0.0,0.0,-3.7412,-3.7814,-3.809,-3.8341,-3.8668,-3.8969,-3.9195,-3.9521,-3.9697,-3.9697,-3.9697,-3.9697,-3.9697,-3.9697,0.0,0.0,0.0,0.0,0.0,0.0,0.0,0.0,0.0,0.0,0.0,0.0,0.0,0.0,-4.8095,0.0,0.0,-5.0776,-5.0933,0.0,0.0,0.0,-5.2042,-5.1818,-5.1139,-5.0015,-4.7966,-4.6992,-4.6513,-4.6021,-4.6099,-4.6306,-4.5902,-4.6052,-4.6351,0.0,0.0,0.0,0.0,0.0,0.0,0.0,0.0,0.0,0.0,0.0,0.0,0.0,0.0,0.0,0.0,0.0,0.0,0.0,0.0,0.0,0.0,0.0,0.0,-5.2828,-5.227,-5.1676,-5.1061,-5.0627,-5.0104,-4.9457,-4.9495,-4.9583,-4.9583,-4.9618,-4.959,-4.959,-4.959,-4.959,-4.9615,-5.0167,-5.0419,-5.0469,-5.1373,-5.19,-5.2126,-5.2452,-5.2729,-5.2929,-5.2929,-5.2929,-5.2929,-5.2929,-5.2929,-5.2929,0.0,0.0,-3.3244,-3.3212,-3.4123,-3.4751,-3.4248,-3.5052,-3.5708,0.0,-3.6358,-3.7136,-3.8165,-3.8291,-3.8492,-3.9019,-3.9045,-3.917,-3.9672,-3.9697,-3.9697,-3.9697,-3.9697,-3.9697,-3.9697,-3.9697,0.0,0.0,0.0,0.0,0.0,0.0,-4.158,-4.2238,0.0,0.0,0.0,0.0,0.0,-4.7844,-4.9022,-5.032,0.0,0.0,-5.3385,-5.3319,-5.4465,-5.4574,-5.405,-5.3004,-5.1509,-4.9901,-4.8585,-4.8093,-4.782,-4.7191,-4.6714,-4.6327,-4.5943,-4.6097,-4.6475,-4.7085,-4.638,0.0,-4.7427,-4.6817,-4.6424,0.0,0.0,0.0,0.0,0.0,0.0,0.0,0.0,0.0,0.0,0.0,0.0,0.0,0.0,0.0,0.0,-5.3645,-5.3163,-5.262,-5.182,-5.0665,-4.9343,-4.8951,-4.851,-4.7933,-4.841,-4.8711,-4.8761,-4.9264,-4.954,-4.959,-4.959,-4.959,-4.9615,-5.0092,-5.0318,-5.0368,-5.0946,-5.1473,-5.1925,-5.2051,-5.2427,-5.2929,-5.2929,-5.2929,-5.2929,-5.2929,-5.2929,-5.2929,0.0,-3.3796,-3.4248,-3.3822,-3.5027,-3.6006,-3.5931,-3.6458,-3.701,-3.7462,-3.8417,-3.9295,-3.9948,-4.0023,-4.0074,-4.0199,-3.9798,-3.9572,-3.9697,-3.9697,-3.9697,-3.9697,-3.9697,-3.9697,-3.9697,-3.9697,-3.9697,0.0,0.0,0.0,0.0,0.0,-4.1204,-4.2213,0.0,0.0,0.0,0.0,0.0,-4.6677,-4.7352,0.0,-5.3055,-5.2877,-5.3597,-5.4752,-5.5274,-5.5019,-5.4376,-5.3199,-5.1917,-5.0496,-4.938,-4.8268,-4.7342,-4.7418,-4.7283,-4.7138,-4.7663,-4.8074,-4.8102,-4.7138,-4.7332,0.0,-4.5508,-4.536,-4.5867,0.0,0.0,0.0,0.0,0.0,0.0,0.0,0.0,0.0,0.0,0.0,0.0,0.0,0.0,0.0,0.0,-5.2002,-5.1155,-5.1314,-5.0521,-4.9657,-4.8938,-4.8825,-4.851,-4.7933,-4.8008,-4.8309,-4.8825,-4.8887,-4.9163,-4.959,-4.959,-4.959,-4.959,-4.9715,-4.9766,-4.9791,-5.0343,-5.0645,-5.082,-5.1724,-5.2427,-5.2929,-5.2929,-5.2929,-5.2929,-5.2929,-5.2929,-5.2929,-3.3953,-3.4349,-3.468,-3.468,-3.5629,-3.6505,-3.6759,-3.7236,-3.7789,-3.8366,-3.9421,-4.03,-4.0824,-4.0676,-4.0526,-4.0526,-4.0023,-3.9697,-3.9697,-3.9697,-3.9697,-3.9697,-3.9697,-3.9823,-4.0099,-3.9848,-3.9823,-4.0099,0.0,0.0,0.0,0.0,0.0,0.0,0.0,0.0,0.0,0.0,-4.4869,-4.6075,-4.8195,0.0,-5.3229,-5.3688,-5.4606,-5.5678,-5.5821,-5.5299,-5.4411,-5.3306,-5.2445,0.0,-4.9748,-4.9381,-4.9457,-4.8621,-4.8368,-4.8368,-4.8218,-4.8404,-4.84,-4.7561,-4.7496,0.0,0.0,-4.4875,0.0,0.0,0.0,0.0,0.0,0.0,0.0,0.0,0.0,0.0,0.0,0.0,0.0,0.0,0.0,0.0,0.0,-5.1336,-5.0453,-4.9962,-4.9467,-4.8837,-4.8008,-4.7958,-4.7707,-4.7129,-4.738,-4.7657,-4.7958,-4.851,-4.8912,-4.9188,-4.9464,-4.959,-4.959,-4.959,-4.959,-4.9615,-4.9891,-5.0167,-5.0469,-5.1021,-5.1749,-5.2553,-5.2829,-5.2929,-5.2929,-5.2929,-5.2929,-5.2929,-3.4731,-3.4901,-3.5177,-3.5583,-3.6232,-3.6908,-3.7412,-3.7889,-3.8467,-3.9245,-4.0124,-4.0953,-4.1677,-4.1128,-4.0852,-4.1279,-4.0325,-3.9873,-4.03,-3.9923,-3.9697,-3.9697,-3.9697,-3.9898,-4.035,-3.9923,-3.9973,-4.0526,0.0,0.0,0.0,0.0,0.0,0.0,0.0,0.0,0.0,0.0,0.0,-4.6411,0.0,-5.1336,-5.2427,-5.3911,-5.5051,-5.5917,-5.6143,-5.5566,-5.4561,-5.3457,-5.3005,-5.2503,-5.0403,-5.0691,0.0,0.0,0.0,0.0,0.0,0.0,0.0,0.0,0.0,-4.7283,0.0,0.0,0.0,0.0,0.0,0.0,0.0,0.0,0.0,0.0,0.0,0.0,0.0,0.0,0.0,0.0,0.0,0.0,0.0,-5.0664,-4.9886,-4.8749,-4.8611,-4.8184,-4.7118,-4.7068,-4.6878,-4.6326,-4.6753,-4.7029,-4.7068,-4.8008,-4.856,-4.8786,-4.9213,-4.949,-4.959,-4.959,-4.959,-4.959,-4.959,-4.9841,-5.0268,-5.0368,-5.1021,-5.2,-5.2553,-5.2829,-5.2929,-5.2929,-5.2929,-5.2929,-3.4901,-3.5504,-3.6254,-3.6304,-3.7136,-3.8015,-3.8642,-3.8793,-3.932,-4.0799,-4.1125,-4.1831,-4.3363,-4.2158,-4.1978,-4.3991,-4.143,-4.0526,-4.2484,-4.0777,-3.9697,-3.9697,-3.9697,-3.9722,-3.9798,-3.9722,-3.9973,-4.0526,0.0,0.0,0.0,0.0,0.0,0.0,-4.2961,0.0,0.0,0.0,-4.5974,0.0,-4.9403,-4.9881,0.0,-5.1842,-5.3451,-5.4888,-5.5867,-5.5817,-5.5114,0.0,-5.3306,-5.2779,0.0,-5.1197,-5.067,-5.0987,0.0,0.0,0.0,0.0,0.0,0.0,-5.0132,-4.9981,0.0,0.0,-4.6376,-4.5053,0.0,0.0,0.0,0.0,0.0,0.0,0.0,0.0,0.0,0.0,0.0,0.0,0.0,0.0,0.0,0.0,-4.8196,-4.8008,-4.8008,-4.7757,-4.7093,-4.7068,-4.6878,-4.6326,-4.6376,-4.6652,-4.7129,-4.7255,-4.7807,-4.8761,-4.8837,-4.9113,-4.959,-4.959,-4.959,-4.959,-4.959,-4.9615,-4.9715,-5.0218,-5.0795,-5.1423,-5.1975,-5.2503,-5.2929,-5.2929,-5.2929,-5.2929,-3.5755,-3.6078,-3.6606,-3.7211,-3.7688,-3.8316,-3.922,-4.0425,-4.1379,-4.1756,-4.2936,-4.4141,-4.5146,-4.4342,-4.4116,-4.5045,-4.3263,-4.2208,0.0,-4.1329,-4.0802,-4.1157,-4.0827,-4.0953,-4.158,-4.0978,-4.0927,-4.148,-4.148,0.0,0.0,0.0,0.0,0.0,-4.2986,0.0,-4.4166,0.0,0.0,0.0,0.0,0.0,0.0,-5.19,-5.3658,-5.4637,-5.5089,-5.4888,-5.4235,0.0,-5.2854,0.0,0.0,0.0,0.0,-5.1774,0.0,0.0,0.0,0.0,0.0,0.0,0.0,0.0,-4.7631,-4.6677,-4.6075,-4.5673,0.0,0.0,0.0,0.0,0.0,0.0,0.0,0.0,0.0,0.0,0.0,0.0,0.0,0.0,0.0,0.0,0.0,0.0,-4.7154,-4.6878,-4.6677,-4.6652,-4.6552,-4.6326,-4.6301,-4.6426,-4.6652,-4.6918,-4.7506,-4.8259,-4.8611,-4.9063,-4.959,-4.959,-4.959,-4.959,-4.959,-4.959,-4.9615,-4.9841,-5.0268,-5.0845,-5.1398,-5.2151,-5.2929,-5.2929,-5.2929,-5.2929,-3.6606,-3.6631,-3.6885,-3.7839,0.0,-3.8617,-3.9747,-4.1279,-4.2384,-4.264,-4.389,0.0,-4.6401,-4.605,0.0,0.0,-4.5522,-4.4367,0.0,0.0,-4.1982,-4.1932,-4.1681,-4.1856,-4.2509,-4.1907,-4.1756,-4.2213,-4.2213,0.0,0.0,0.0,0.0,0.0,0.0,-4.3966,-4.4543,0.0,0.0,-4.7179,-4.836,-4.9012,-4.9565,-5.2251,-5.3532,-5.3934,-5.4235,-5.3959,-5.3356,-5.2603,-5.2603,0.0,-5.1975,-5.2277,-5.2829,0.0,0.0,0.0,-5.1649,0.0,0.0,0.0,0.0,0.0,0.0,-4.723,-4.6502,-4.6903,0.0,0.0,0.0,0.0,-4.6326,-4.6175,0.0,0.0,0.0,0.0,0.0,0.0,0.0,0.0,0.0,0.0,0.0,-4.6391,-4.6225,-4.6075,-4.6075,-4.6225,-4.6301,-4.6301,-4.6301,-4.6301,-4.6301,-4.6702,-4.723,-4.7908,-4.8335,-4.8912,-4.959,-4.959,-4.959,-4.959,-4.959,-4.959,-4.959,-4.959,-4.9916,-5.0469,-5.1046,-5.1875,-5.2729,-5.2879,-5.2929,-5.2929,-3.7061,-3.7161,-3.7337,0.0,0.0,0.0,0.0,0.0,0.0,0.0,0.0,0.0,0.0,0.0,0.0,0.0,0.0,-4.7004,-4.6979,0.0,-4.3011,-4.1376,-4.1856,-4.1907,-4.1351,-4.1882,-4.2187,-4.2213,-4.2213,0.0,0.0,0.0,0.0,0.0,0.0,-4.5723,-4.6326,-4.7958,-4.959,-5.1096,-5.1147,-5.1825,-5.2729,0.0,-5.2176,-5.2327,-5.3356,0.0,0.0,-5.2904,-5.2904,0.0,0.0,0.0,0.0,0.0,0.0,0.0,0.0,0.0,0.0,-5.1548,0.0,0.0,0.0,0.0,-4.8661,-4.8686,-4.9088,-4.9439,-4.949,-4.9038,-4.8485,-4.7933,-4.6954,0.0,0.0,0.0,0.0,0.0,0.0,0.0,0.0,0.0,0.0,-4.4694,-4.5221,-4.5522,-4.5522,-4.6024,-4.6301,-4.6301,-4.6301,-4.6301,-4.6301,-4.6326,-4.6878,-4.7908,-4.7933,-4.851,-4.959,-4.959,-4.959,-4.959,-4.959,-4.959,-4.959,-4.959,-4.9916,-5.0469,-5.1046,-5.1624,-5.2201,-5.2729,-5.2929,-5.2929,-3.7613,-3.804,-3.8366,0.0,0.0,0.0,0.0,-4.1982,0.0,0.0,0.0,0.0,0.0,-5.1649,-5.2,0.0,0.0,-5.0343,-4.8862,-4.7355,0.0,-4.5698,-4.5171,-4.4819,-4.4644,-4.4066,-4.3614,-4.3237,-4.2886,0.0,0.0,0.0,0.0,0.0,0.0,-4.5221,0.0,0.0,0.0,0.0,0.0,-5.195,-5.2904,0.0,0.0,-5.2703,-5.3055,-5.308,0.0,-5.2929,-5.2929,-5.2929,-5.2929,-5.2929,-5.2879,-5.2703,-5.2779,-5.2955,0.0,0.0,-5.3256,-5.2553,0.0,0.0,0.0,0.0,0.0,-4.8761,-4.9213,-4.949,-4.9113,-4.9188,-4.9012,-4.8058,-4.7606,-4.7104,0.0,0.0,0.0,0.0,0.0,0.0,0.0,0.0,0.0,-4.4593,-4.4468,-4.4694,-4.5447,-4.5673,-4.5924,-4.6301,-4.6301,-4.6301,-4.6301,-4.6301,-4.6677,-4.7405,-4.7732,-4.8309,-4.9063,-4.9439,-4.959,-4.959,-4.959,-4.959,-4.959,-4.959,-4.9715,-4.9967,-5.0921,-5.1398,-5.1674,-5.2578,-5.2929,-5.2929,-3.8291,0.0,0.0,0.0,0.0,0.0,0.0,0.0,0.0,0.0,-4.9339,0.0,-5.3758,0.0,-5.4988,0.0,-5.4285,-5.298,-5.0368,-4.9515,0.0,-4.7682,-4.7154,-4.6602,-4.6024,-4.5874,-4.5045,-4.3514,-4.3765,-4.3664,0.0,0.0,0.0,0.0,0.0,0.0,0.0,0.0,-4.954,0.0,0.0,-5.2176,0.0,0.0,-5.2929,-5.2929,0.0,-5.2929,-5.2929,-5.2929,-5.2929,-5.2929,-5.2929,-5.2929,-5.2879,-5.2678,-5.2779,-5.2955,-5.3105,-5.3406,0.0,-5.2804,-5.2251,0.0,-5.0444,0.0,-4.9967,0.0,-5.0393,-5.067,-5.0318,-5.0042,-4.959,-4.8661,-4.8008,-4.7456,0.0,-4.6376,-4.5949,0.0,0.0,0.0,0.0,0.0,-4.3865,-4.4016,-4.389,-4.4192,0.0,0.0,-4.5748,-4.6301,-4.6301,-4.6301,-4.6301,-4.6301,-4.6602,-4.7068,-4.7481,-4.8033,-4.8786,-4.9138,-4.9414,-4.959,-4.959,-4.959,-4.959,-4.959,-4.959,-4.969,-5.0619,-5.1096,-5.1423,-5.2528,-5.2929,-5.2929,0.0,0.0,0.0,0.0,-4.03,0.0,0.0,0.0,-4.6954,0.0,-5.087,-5.2904,-5.4587,-5.5742,-5.6369,-5.6344,-5.6344,-5.4963,-5.1724,-5.1498,0.0,0.0,-4.7857,-4.738,-4.5773,-4.7179,-4.6401,-4.3263,0.0,0.0,0.0,0.0,0.0,0.0,-4.5598,0.0,-4.5748,-4.9615,-5.0946,-5.0645,-5.2277,-5.2628,-5.2226,-5.2729,-5.2955,-5.2955,-5.2929,-5.2929,-5.2929,-5.2929,-5.2929,-5.2929,-5.2929,-5.2929,-5.2829,-5.2302,-5.2528,-5.2829,-5.2327,-5.2929,-5.3457,-5.2427,-5.2553,0.0,0.0,0.0,-5.2101,0.0,0.0,-5.2904,-5.2854,-5.1523,-5.0218,-4.964,-4.8184,-4.6892,-4.6376,-4.5849,-4.5723,-4.625,0.0,0.0,0.0,-4.3815,-4.3564,-4.3011,-4.3463,-4.4016,0.0,0.0,-4.5698,-4.6301,-4.6301,-4.6301,-4.6301,-4.6301,-4.6577,-4.7043,-4.7129,-4.7682,-4.8736,-4.8825,-4.9063,-4.959,-4.959,-4.959,-4.959,-4.959,-4.959,-4.964,-5.0193,-5.0795,-5.1448,-5.2528,-5.2929,-5.2929,-3.9521,-4.0149,-4.0827,0.0,-4.0978,-4.1455,0.0,0.0,0.0,0.0,-5.3181,-5.534,-5.7424,-5.8252,-5.8504,-5.8102,-5.8077,0.0,0.0,0.0,0.0,-5.1523,-5.1172,-5.0444,-4.9188,-4.8761,-4.8134,-4.728,0.0,0.0,-4.5648,0.0,0.0,0.0,0.0,0.0,-4.5723,-4.9163,-5.1046,-5.1749,-5.2578,-5.308,0.0,0.0,-5.3181,-5.3457,-5.3055,-5.2929,-5.2929,-5.2929,-5.2929,-5.2929,-5.2929,-5.2929,-5.2904,-5.2754,-5.2829,-5.298,-5.3231,-5.3482,-5.3632,-5.3356,-5.3105,-5.2754,0.0,0.0,0.0,0.0,0.0,-5.2678,-5.185,-5.0996,-5.0092,-4.9138,-4.7933,-4.6892,-4.6376,-4.6175,-4.615,-4.6301,0.0,0.0,0.0,-4.4041,-4.3564,-4.3011,-4.3112,-4.3614,0.0,0.0,0.0,-4.6276,-4.6301,-4.6301,-4.6301,-4.6301,-4.6376,-4.6527,-4.6928,-4.7481,-4.8134,-4.8586,-4.9063,-4.959,-4.959,-4.959,-4.959,-4.959,-4.959,-4.964,-5.0193,-5.1021,-5.1975,-5.2678,-5.2929,-5.2929,-4.045,0.0,0.0,-4.3187,0.0,0.0,-4.5497,0.0,0.0,-5.1699,-5.4235,0.0,-5.7474,-5.8956,-5.9633,-5.9106,-5.8855,0.0,-5.6319,0.0,0.0,-5.3331,-5.2754,-5.195,-5.082,-4.969,-4.8786,-4.8058,-4.6326,0.0,-4.5924,0.0,0.0,0.0,0.0,-4.6301,0.0,-4.9012,-5.1197,-5.2503,-5.2804,0.0,0.0,-5.2955,-5.2955,-5.3005,-5.2955,-5.2929,-5.2929,-5.2929,-5.2929,-5.2929,-5.2929,-5.2929,-5.2929,-5.2929,-5.2929,-5.298,-5.3281,-5.3532,-5.3658,-5.3406,-5.3306,-5.313,-5.2578,-5.2477,-5.2477,0.0,-5.2703,-5.2653,-5.18,-5.0971,-4.9967,-4.8611,-4.7682,-4.7104,-4.7029,-4.6803,0.0,0.0,-4.6677,0.0,0.0,-4.4493,-4.394,-4.3388,-4.3112,-4.3463,0.0,0.0,0.0,-4.6276,-4.6552,-4.6552,-4.6301,-4.6552,-4.6677,-4.6677,-4.6979,-4.7531,-4.8284,-4.8636,-4.9063,-4.959,-4.959,-4.959,-4.959,-4.959,-4.959,-4.964,-5.0193,-5.0971,-5.18,-5.2377,-5.2729,-5.2929,0.0,0.0,0.0,0.0,0.0,0.0,0.0,-4.8711,0.0,-5.2352,0.0,-5.6671,-5.6746,-5.883,-6.006,-5.9633,0.0,-5.8177,-5.6646,-5.647,-5.5717,-5.411,-5.3457,-5.2653,-5.1624,-5.0343,-4.9038,-4.7682,-4.62,-4.5573,0.0,0.0,0.0,0.0,0.0,0.0,0.0,-4.8987,-5.1147,0.0,-5.2729,-5.2578,-5.2277,-5.2754,-5.2628,-5.2277,-5.2754,-5.2929,-5.2929,-5.2929,-5.2929,-5.2929,-5.2929,-5.2929,-5.2929,-5.2929,-5.2929,-5.2929,-5.2929,-5.3256,-5.3482,-5.303,-5.3256,-5.3482,-5.303,-5.2929,-5.2929,-5.2929,-5.2929,-5.2754,-5.2201,0.0,0.0,0.0,-4.7531,-4.738,-4.7832,-4.7531,0.0,0.0,0.0,0.0,0.0,0.0,-4.4493,-4.394,-4.3388,0.0,0.0,0.0,0.0,-4.6276,-4.6853,-4.6903,-4.6426,0.0,-4.7168,-4.7168,-4.7168,-4.7782,-4.8761,-4.8761,-4.9063,-4.959,-4.959,-4.959,-4.959,-4.959,-4.959,-4.964,-5.0193,-5.077,-5.1348,-5.19,-5.2452,-5.2929,0.0,0.0,0.0,0.0,0.0,-4.9113,-5.0946,-5.2151,-5.3482,-5.5265,-5.7499,-5.9106,-5.9558,-5.9633,-5.9784,-6.0136,-5.9684,0.0,0.0,0.0,0.0,-5.5817,-5.4813,-5.3959,-5.3281,-5.1297,-5.0368,-5.0544,-4.7154,-4.5949,-4.6803,0.0,0.0,0.0,0.0,0.0,-4.6979,-4.8912,0.0,-5.0293,-5.1699,-5.2477,-5.2804,-5.2879,-5.2879,-5.2804,-5.2904,-5.2929,-5.2929,-5.2929,-5.2929,-5.2929,-5.2929,-5.2929,-5.2929,-5.2929,-5.2929,-5.2929,-5.2929,-5.3005,-5.303,-5.2955,-5.3005,-5.303,-5.2955,-5.2929,-5.2929,-5.2929,-5.2929,-5.2754,-5.2201,0.0,0.0,0.0,-4.7832,-4.7807,-4.7908,0.0,0.0,0.0,0.0,-4.6878,0.0,0.0,0.0,0.0,0.0,0.0,0.0,0.0,0.0,0.0,-4.6853,0.0,0.0,0.0,-4.7782,-4.7782,-4.7782,-4.8134,-4.8761,-4.8761,-4.9063,-4.959,-4.959,-4.959,-4.959,-4.959,-4.959,-4.964,-5.0193,-5.077,-5.1348,-5.19,-5.2452,-5.2929,0.0,0.0,0.0,0.0,0.0,0.0,0.0,-5.5214,0.0,-5.5842,-5.6947,-5.7901,-5.8152,-5.8981,-5.9608,-5.9859,-5.9659,-5.9156,-5.8353,-5.8052,-5.7399,-5.6269,-5.5164,-5.4436,-5.416,-5.1147,-5.0117,-5.1272,-4.6803,-4.5321,-4.6652,0.0,0.0,0.0,0.0,-4.6225,0.0,0.0,0.0,-5.0142,-5.1548,-5.2251,-5.2503,-5.2503,-5.2503,-5.2503,-5.2503,-5.2678,-5.2929,-5.2929,-5.2929,-5.2929,-5.2929,-5.2929,-5.2929,-5.2929,-5.2929,-5.2929,-5.2929,-5.2929,-5.2929,-5.2929,-5.2929,-5.2929,-5.2929,-5.2929,-5.2929,-5.2929,-5.2929,-5.2754,-5.2201,-5.0971,0.0,-4.9289,-4.8736,-4.846,-4.8736,0.0,-4.8159,0.0,0.0,0.0,0.0,0.0,0.0,0.0,0.0,0.0,0.0,0.0,0.0,0.0,0.0,0.0,0.0,0.0,0.0,-4.836,-4.836,-4.8661,-4.9188,-4.9188,-4.9339,-4.959,-4.959,-4.959,-4.959,-4.959,-4.959,-4.9615,-4.9891,-5.0519,-5.1322,-5.1574,-5.2201,-5.2929,0.0,-4.836,0.0,0.0,-5.2126,0.0,-5.539,-5.7374,-5.8127,-5.647,-5.6646,-5.6947,-5.7072,-5.8529,-5.9533,-5.9659,-5.9558,-5.9081,-5.8127,-5.7951,-5.7449,-5.642,-5.5214,-5.4561,-5.4561,-5.1122,-4.9766,-5.0745,-4.6451,-4.4769,-4.5573,0.0,0.0,0.0,0.0,0.0,0.0,0.0,-4.9339,-5.0343,-5.1473,-5.2,-5.2101,-5.1975,-5.1925,-5.195,-5.2076,-5.2377,-5.2779,-5.2879,-5.2929,-5.2929,-5.2929,-5.2929,-5.2929,-5.2929,-5.2929,-5.2929,-5.2929,-5.2929,-5.2929,-5.2929,-5.2929,-5.2929,-5.2929,-5.2929,-5.2929,-5.2929,-5.2929,-5.2754,-5.2201,-5.1373,0.0,0.0,0.0,0.0,0.0,0.0,-4.8812,0.0,0.0,0.0,-4.6426,0.0,0.0,0.0,0.0,-4.4418,-4.5447,-4.4945,-4.5146,0.0,0.0,-4.7782,-4.7481,0.0,-4.8937,-4.8937,-4.8937,-4.9163,-4.959,-4.959,-4.959,-4.959,-4.959,-4.959,-4.959,-4.959,-4.959,-4.9615,-4.9715,-5.0393,-5.1297,-5.1423,-5.2076,-5.2929,0.0,0.0,0.0,0.0,0.0,0.0,-5.5968,-5.76,-5.8805,-5.9081,-5.9156,-5.9382,-5.9885,-5.9684,-5.9684,-6.0186,-5.9784,-5.9257,-5.8679,-5.8177,-5.7625,-5.6972,-5.5415,-5.4561,-5.4561,-5.2251,-5.0368,0.0,0.0,-4.5121,0.0,0.0,0.0,0.0,0.0,0.0,0.0,-4.7908,-4.9113,-4.9766,-5.0896,-5.1649,-5.2051,-5.1548,-5.1348,-5.1423,-5.1925,-5.2126,-5.2251,-5.2754,-5.2929,-5.2929,-5.2929,-5.2929,-5.2929,-5.2929,-5.2929,-5.2929,-5.2929,-5.2929,-5.2929,-5.2929,-5.2929,-5.2929,-5.2929,-5.2929,-5.2929,-5.2929,-5.2929,-5.2754,-5.2201,-5.2026,-5.1448,0.0,0.0,0.0,0.0,0.0,-4.9665,-4.8083,0.0,0.0,-4.6476,-4.6301,0.0,0.0,-4.5196,-4.4819,-4.5447,-4.4945,-4.5146,-4.6276,0.0,-4.8134,-4.8611,-4.9213,-4.9515,-4.9515,-4.9515,-4.954,-4.959,-4.959,-4.959,-4.959,-4.959,-4.959,-4.959,-4.959,-4.959,-4.964,-5.0142,-5.072,-5.1348,-5.185,-5.2402,-5.2929,0.0,0.0,0.0,0.0,0.0,0.0,0.0,-5.8554,-5.9257,-5.9458,-5.9483,-5.9583,-5.9809,-5.9633,-5.9583,-5.9809,-5.9608,-5.9131,-5.8278,-5.77,-5.6972,-5.6093,-5.4762,-5.4059,-5.4059,-5.2226,-5.077,0.0,0.0,0.0,0.0,0.0,0.0,0.0,0.0,-4.5246,-4.6075,-4.728,-4.8485,-4.969,-5.082,-5.1423,-5.1624,-5.1724,-5.1574,-5.1348,-5.19,-5.2327,-5.2628,-5.2854,-5.2929,-5.2929,-5.2929,-5.2929,-5.2929,-5.2929,-5.2929,-5.2929,-5.2929,-5.2929,-5.2929,-5.2929,-5.2929,-5.2929,-5.2929,-5.2929,-5.2929,-5.2929,-5.2929,-5.2854,-5.2628,-5.2327,-5.1774,-5.077,0.0,0.0,0.0,0.0,0.0,-4.8058,0.0,-4.7732,0.0,0.0,0.0,0.0,0.0,-4.5397,-4.5949,-4.5447,0.0,-4.6778,0.0,-4.8184,-4.8761,-4.9314,-4.959,-4.959,-4.959,-4.959,-4.959,-4.959,-4.959,-4.959,-4.959,-4.959,-4.959,-4.959,-4.959,-4.964,-5.0193,-5.077,-5.1348,-5.19,-5.2452,-5.2929,-5.2427,0.0,-5.3256,0.0,-5.6269,-5.6947,-5.8679,-5.9257,-5.9483,-5.9483,-5.9483,-5.9433,-5.9282,-5.9257,-5.9207,-5.9031,-5.9031,-5.8629,-5.77,-5.7273,-5.662,-5.5666,-5.4561,0.0,-5.3959,-5.2503,-5.1322,-5.0419,-4.9238,0.0,0.0,0.0,0.0,0.0,-4.4895,-4.5522,-4.6828,-4.738,-4.8485,-4.9916,-5.0896,-5.1272,-5.1297,-5.1523,-5.1473,-5.1322,-5.1724,-5.2226,-5.2703,-5.2879,-5.2929,-5.2929,-5.2929,-5.2929,-5.2929,-5.2929,-5.2929,-5.2929,-5.2929,-5.2929,-5.2929,-5.2929,-5.2929,-5.2929,-5.2929,-5.2929,-5.2929,-5.2929,-5.2929,-5.2929,-5.2929,-5.2603,-5.2051,-5.1172,0.0,0.0,0.0,-4.964,0.0,-4.8058,-4.8058,-4.7682,-4.6426,-4.6301,0.0,0.0,0.0,0.0,0.0,0.0,0.0,0.0,0.0,0.0,0.0,-4.9389,-4.959,-4.959,-4.959,-4.959,-4.959,-4.959,-4.959,-4.959,-4.959,-4.959,-4.959,-4.959,-4.959,-4.9665,-5.0393,-5.0921,-5.1373,-5.2076,-5.2503,-5.2703,-5.3482,-5.4587,-5.5867,-5.7575,-5.8328,-5.8855,-5.9408,-5.9483,-5.9483,-5.9483,-5.9483,-5.9307,-5.878,-5.873,-5.8504,-5.7976,-5.7926,-5.7675,-5.7072,-5.7022,-5.6796,0.0,0.0,-5.4561,-5.4561,-5.3482,-5.2101,-5.0419,0.0,0.0,-4.5497,0.0,-4.5773,-4.6301,-4.6853,-4.738,-4.7933,-4.851,-4.9389,-5.0469,-5.1046,-5.1272,-5.1222,-5.0645,-5.0795,-5.1272,-5.1297,-5.1649,-5.2201,-5.2754,-5.2929,-5.2929,-5.2929,-5.2929,-5.2929,-5.2929,-5.2929,-5.2929,-5.2929,-5.2929,-5.2929,-5.2929,-5.2929,-5.2929,-5.2929,-5.2929,-5.2929,-5.2929,-5.2929,-5.2929,-5.2929,-5.2929,-5.2377,-5.0695,0.0,0.0,0.0,-4.9715,0.0,-4.8109,-4.841,-4.8109,-4.6476,-4.6301,0.0,0.0,0.0,0.0,0.0,0.0,0.0,-4.7043,-4.7631,0.0,-4.9565,-4.959,-4.959,-4.959,-4.959,-4.959,-4.959,-4.959,-4.959,-4.959,-4.959,-4.959,-4.959,-4.959,-4.959,-4.9715,-5.0845,-5.1272,-5.1423,-5.2528,-5.2578,-5.2201,-5.4712,-5.5139,-5.5917,-5.76,-5.8052,-5.8453,-5.9357,-5.9207,-5.8956,-5.8956,-5.8654,-5.8202,-5.7625,-5.8579,-5.9031,0.0,-5.8453,-5.8052,0.0,-5.6671,-5.6219,-5.5666,-5.4561,-5.3984,-5.3984,-5.3281,-5.2302,-5.0996,0.0,0.0,0.0,-4.7908,-4.7606,-4.7405,-4.7581,-4.7983,-4.8535,-4.9088,-4.9992,-5.1021,-5.1197,-5.1498,-5.1875,-5.2051,-5.2,-5.19,-5.2277,-5.2528,-5.2678,-5.2879,-5.2929,-5.2929,-5.2929,-5.2929,-5.2929,-5.2929,-5.2929,-5.2929,-5.2929,-5.2929,-5.2929,-5.2929,-5.2929,-5.2929,-5.2929,-5.2929,-5.2929,-5.2929,-5.2929,-5.2929,-5.2929,-5.2628,-5.2076,-5.1147,-5.082,0.0,-4.9464,0.0,-4.8962,-4.8008,-4.8083,-4.7832,-4.6954,-4.6878,0.0,0.0,0.0,0.0,0.0,0.0,0.0,0.0,-4.8209,0.0,-4.959,-4.959,-4.959,-4.959,-4.959,-4.959,-4.959,-4.959,-4.959,-4.959,-4.959,-4.959,-4.959,-4.959,-4.959,-4.9665,-5.0393,-5.0695,-5.082,-5.195,-5.2026,-5.1624,-5.5013,-5.5591,-5.6344,-5.7399,-5.775,-5.8127,-5.8805,-5.8629,-5.8403,-5.8403,-5.8102,-5.775,-5.7399,-5.8278,0.0,-5.8127,-5.7901,-5.7575,-5.7072,-5.6319,-5.5742,-5.539,-5.431,-5.3708,-5.3708,-5.3181,0.0,-5.19,-5.1825,-5.1247,-5.0218,-4.964,-4.9314,-4.9163,-4.9163,-4.9364,-4.9741,-5.0092,-5.0519,-5.0996,-5.1423,-5.1674,-5.185,-5.2402,-5.2528,-5.2427,-5.2578,-5.2754,-5.2929,-5.2929,-5.2929,-5.2929,-5.2929,-5.2929,-5.2929,-5.2929,-5.2929,-5.2929,-5.2929,-5.2929,-5.2929,-5.2929,-5.2929,-5.2929,-5.2929,-5.2929,-5.2929,-5.2929,-5.2929,-5.2854,-5.2653,-5.2327,-5.185,-5.1071,-5.0645,-5.0142,-4.9389,0.0,-4.856,0.0,0.0,0.0,0.0,-4.7255,-4.7068,0.0,0.0,0.0,0.0,0.0,0.0,-4.8209,-4.8586,-4.9038,-4.959,-4.959,-4.959,-4.959,-4.959,-4.959,-4.959,-4.959,-4.959,-4.959,-4.959,-4.959,-4.959,-4.959,-4.959,-4.964,-5.0193,-5.0419,-5.0519,-5.1448,-5.1448,-5.1071,-5.4662,-5.5917,-5.6997,0.0,-5.7474,0.0,-5.7901,-5.7851,-5.7851,-5.7851,-5.7801,-5.7775,-5.7775,-5.7775,-5.7575,-5.7072,0.0,0.0,0.0,-5.5968,-5.5365,-5.534,-5.4285,-5.3708,-5.3708,-5.3181,-5.2929,-5.2929,-5.19,-5.1398,-5.1373,-5.0795,-5.082,-5.1348,-5.1348,-5.1322,-5.1272,-5.1272,-5.0971,-5.0569,-5.1624,-5.1749,-5.1398,-5.19,-5.2427,-5.2804,-5.2277,-5.2427,-5.2879,-5.2904,-5.2929,-5.2929,-5.2929,-5.2929,-5.2929,-5.2929,-5.2929,-5.2929,-5.2929,-5.2929,-5.2929,-5.2929,-5.2929,-5.2929,-5.2929,-5.2929,-5.2929,-5.2929,-5.2929,-5.2754,-5.2201,-5.2076,-5.1699,-5.0594,-5.0343,-4.9941,-4.8912,-4.8711,-4.846,0.0,0.0,0.0,-4.7958,-4.7531,-4.723,0.0,0.0,0.0,0.0,0.0,-4.7707,-4.8736,-4.8812,-4.9088,-4.959,-4.959,-4.959,-4.959,-4.959,-4.959,-4.959,-4.959,-4.959,-4.959,-4.959,-4.959,-4.959,-4.959,-4.959,-4.964,-5.0167,-5.0368,-5.0419,-5.0996,-5.087,-5.0519,0.0,0.0,-5.6545,-5.6972,-5.7148,-5.7399,-5.7826,-5.7524,-5.7248,-5.7248,-5.6872,-5.662,-5.662,-5.662,-5.6721,-5.7022,-5.6922,-5.6545,-5.5817,-5.5541,-5.5189,-5.4787,-5.4084,-5.3708,-5.3708,-5.3181,-5.2929,-5.2929,-5.2678,-5.2528,-5.2528,-5.1975,-5.1774,-5.19,-5.19,-5.1674,-5.1272,-5.1272,-5.1197,-5.1096,-5.1373,-5.1649,-5.1925,-5.2051,-5.2176,-5.2277,-5.2151,-5.2176,-5.2352,-5.2779,-5.2929,-5.2929,-5.2929,-5.2929,-5.2929,-5.2929,-5.2929,-5.2929,-5.2929,-5.2929,-5.2929,-5.2929,-5.2929,-5.2929,-5.2929,-5.2929,-5.2929,-5.2929,-5.2929,-5.2754,-5.2201,-5.1749,-5.1247,-5.0519,-4.9715,-4.9063,-4.8875,-4.8058,-4.7606,0.0,-4.7908,-4.8083,-4.851,-4.846,-4.8209,0.0,0.0,0.0,0.0,-4.8134,-4.851,-4.8761,-4.9188,-4.9464,-4.959,-4.959,-4.959,-4.959,-4.959,-4.959,-4.959,-4.959,-4.959,-4.959,-4.959,-4.959,-4.959,-4.959,-4.959,-4.9615,-4.9741,-4.9791,-4.9866,-5.0419,-5.0268,-4.9891,-5.5102,-5.5722,-5.6294,-5.6595,-5.6646,-5.6771,-5.7072,-5.6872,-5.6646,-5.6646,-5.6394,-5.6219,-5.6219,-5.6219,-5.6344,-5.662,-5.6646,-5.6394,-5.5792,-5.529,-5.4762,-5.4185,-5.3632,-5.3356,-5.3356,-5.308,-5.2929,-5.2929,-5.2929,-5.2929,-5.2929,-5.2628,-5.2477,-5.2477,-5.2477,-5.2302,-5.2026,-5.1774,-5.1498,-5.1272,-5.1272,-5.1297,-5.1373,-5.1624,-5.1875,-5.2101,-5.2101,-5.2277,-5.2528,-5.2829,-5.2929,-5.2929,-5.2929,-5.2929,-5.2929,-5.2929,-5.2929,-5.2929,-5.2929,-5.2929,-5.2929,-5.2929,-5.2929,-5.2929,-5.2929,-5.2929,-5.2929,-5.2929,-5.2929,-5.2678,-5.1875,-5.1498,-5.0921,-4.9841,-4.9163,-4.8611,-4.8083,-4.7707,-4.7581,-4.7883,-4.8134,-4.8535,-4.9088,-4.8912,-4.8636,-4.8335,-4.8058,0.0,-4.8284,-4.8611,-4.8887,-4.9138,-4.9439,-4.959,-4.959,-4.959,-4.959,-4.959,-4.959,-4.959,-4.959,-4.959,-4.959,-4.959,-4.959,-4.959,-4.959,-4.959,-4.959,-4.959,-4.959,-4.959,-4.964,-4.9941,-4.9841,-4.9665,-5.3759,-5.4888,-5.5827,-5.6072,-5.6146,-5.6072,-5.6072,-5.5999,-5.5999,-5.5999,-5.5999,-5.6072,-5.6146,-5.6072,-5.6022,-5.602,-5.5922,-5.5897,-5.5895,-5.5017,-5.419,-5.3468,-5.2948,-5.2792,-5.2792,-5.2861,-5.2929,-5.2929,-5.2929,-5.2929,-5.2929,-5.2929,-5.2929,-5.2929,-5.2929,-5.2879,-5.2779,-5.2226,-5.1649,-5.1147,-5.1147,-5.087,-5.0469,-5.0971,-5.1498,-5.1975,-5.1875,-5.2251,-5.2804,-5.2804,-5.2854,-5.2929,-5.2929,-5.2929,-5.2929,-5.2929,-5.2929,-5.2929,-5.2929,-5.2929,-5.2929,-5.2929,-5.2929,-5.2929,-5.2929,-5.2929,-5.2929,-5.2929,-5.2929,-5.2578,-5.1498,-5.1272,-5.0745,-4.9163,-4.8761,-4.8309,-4.738,0.0,-4.7832,-4.7908,-4.841,-4.8987,-4.954,-4.9163,-4.8862,-4.8786,-4.8385,-4.8335,-4.8736,-4.8862,-4.9113,-4.959,-4.959,-4.959,-4.959,-4.959,-4.959,-4.959,-4.959,-4.959,-4.959,-4.959,-4.959,-4.959,-4.959,-4.959,-4.959,-4.959,-4.959,-4.959,-4.959,-4.959,-4.9615,-4.969,-4.9715,-4.9791,-5.2767,-5.3456,-5.4025,-5.546,-5.5705,-5.5558,-5.5263,-5.5189,-5.5189,-5.5189,-5.5189,-5.5337,-5.5632,-5.5411,-5.5139,-5.5059,-5.4693,-5.4495,-5.4337,-5.4163,-5.3474,-5.2178,-5.2009,-5.2169,-5.2446,-5.2792,-5.2929,-5.2929,-5.2929,-5.2929,-5.2929,-5.2929,-5.2929,-5.2929,-5.2929,-5.2678,-5.2201,-5.1649,-5.1071,-5.0544,-5.0544,-5.0494,-5.0419,-5.0519,-5.0921,-5.1348,-5.0845,-5.1348,-5.2226,-5.2226,-5.2553,-5.2929,-5.2929,-5.2929,-5.2929,-5.2929,-5.2929,-5.2929,-5.2929,-5.2929,-5.2929,-5.2929,-5.2929,-5.2929,-5.2929,-5.2929,-5.2929,-5.2929,-5.2929,-5.2578,-5.1498,-5.1272,-5.0896,-4.9665,-4.8661,-4.7983,-4.7807,0.0,-4.7405,-4.7857,-4.841,-4.8987,-4.954,-4.9515,-4.9264,-4.8812,-4.9113,-4.9163,-4.8786,-4.9213,-4.9515,-4.959,-4.959,-4.959,-4.959,-4.959,-4.959,-4.959,-4.959,-4.959,-4.959,-4.959,-4.959,-4.959,-4.959,-4.959,-4.959,-4.959,-4.959,-4.959,-4.959,-4.959,-4.964,-5.0117,-5.0293,-5.0368,-5.0072,-5.1641,-5.3048,-5.3825,-5.4695,-5.5189,-5.5041,-5.4967,-5.4967,-5.4967,-5.4967,-5.5041,-5.5263,-5.5115,-5.4893,-5.4546,-5.4351,-5.3836,-5.305,-5.3118,-5.2819,-5.1845,-5.182,-5.189,-5.2099,-5.2238,-5.2308,-5.2308,-5.2515,-5.2654,-5.2654,-5.2792,-5.2929,-5.2929,-5.2929,-5.2628,-5.2076,-5.1523,-5.0946,-5.0393,-5.0092,-4.9967,-4.9967,-4.9967,-5.0318,-5.077,-5.0519,-5.1147,-5.2101,-5.2101,-5.2477,-5.2929,-5.2929,-5.2929,-5.2929,-5.2929,-5.2929,-5.2929,-5.2929,-5.2929,-5.2929,-5.2929,-5.2929,-5.2929,-5.2929,-5.2929,-5.2929,-5.2929,-5.2929,-5.2578,-5.1498,-5.1272,-5.082,-4.9389,-4.846,-4.7807,-4.7531,-4.7531,-4.7631,-4.7883,-4.8686,-4.9314,-4.9565,-4.959,-4.949,-4.9238,-4.9464,-4.949,-4.9238,-4.9464,-4.959,-4.959,-4.959,-4.959,-4.959,-4.959,-4.959,-4.959,-4.959,-4.959,-4.959,-4.959,-4.959,-4.959,-4.959,-4.959,-4.959,-4.959,-4.959,-4.959,-4.959,-4.959,-4.9615,-4.9891,-5.0167,-5.0444,-4.7367,-4.9355,-5.1048,-5.1685,-5.3128,-5.4126,-5.4173,-5.4496,-5.4744,-5.4744,-5.4744,-5.4744,-5.4892,-5.4696,-5.4402,-5.3912,-5.3667,-5.3058,-5.1845,-5.1986,-5.1932,-5.1565,-5.1611,-5.1656,-5.1656,-5.1751,-5.182,-5.182,-5.2099,-5.2238,-5.2308,-5.2515,-5.2654,-5.2654,-5.2504,-5.2273,-5.1915,-5.1239,-5.0829,-5.0569,-4.9866,-4.9665,-4.9766,-4.964,-4.9941,-5.0419,-5.0419,-5.1147,-5.2101,-5.2101,-5.2477,-5.2929,-5.2929,-5.2929,-5.2929,-5.2929,-5.2929,-5.2929,-5.2929,-5.2929,-5.2929,-5.2929,-5.2929,-5.2929,-5.2929,-5.2929,-5.2929,-5.2929,-5.2929,-5.2578,-5.1498,-5.1272,-5.077,-4.9213,0.0,-4.7983,-4.7581,-4.7857,-4.8109,-4.8109,-4.8987,-4.959,-4.959,-4.959,-4.959,-4.959,-4.959,-4.959,-4.959,-4.959,-4.959,-4.959,-4.959,-4.959,-4.959,-4.959,-4.959,-4.959,-4.959,-4.959,-4.959,-4.959,-4.959,-4.959,-4.959,-4.959,-4.959,-4.959,-4.959,-4.959,-4.959,-4.959,-4.9615,-4.9891,-5.0268,-5.0645,-4.5869,-4.6209,-4.6854,-4.9206,-5.0727,-5.16,-5.1532,-5.2869,-5.3897,-5.3897,-5.3897,-5.4047,-5.4397,-5.3687,-5.3203,-5.3035,-5.2163,-5.1441,-5.0863,-5.0839,-5.0815,-5.0767,-5.1095,-5.1211,-5.1211,-5.1586,-5.182,-5.182,-5.182,-5.182,-5.182,-5.189,-5.189,-5.1866,-5.1324,-5.1284,-5.1458,-5.0456,-5.0506,-5.1122,-5.0042,-4.9891,-5.0293,-4.9791,-4.9941,-5.0419,-5.0419,-5.1147,-5.2101,-5.2101,-5.2477,-5.2929,-5.2929,-5.2929,-5.2929,-5.2929,-5.2929,-5.2929,-5.2929,-5.2929,-5.2929,-5.2929,-5.2929,-5.2929,-5.2929,-5.2929,-5.2929,-5.2929,-5.2929,-5.2578,-5.1498,-5.1272,-5.0896,-4.9715,0.0,0.0,-4.8661,-4.8686,-4.8711,-4.8711,-4.9238,-4.959,-4.959,-4.959,-4.959,-4.959,-4.959,-4.959,-4.959,-4.959,-4.959,-4.959,-4.959,-4.959,-4.959,-4.959,-4.959,-4.959,-4.959,-4.959,-4.959,-4.959,-4.959,-4.959,-4.959,-4.959,-4.959,-4.959,-4.959,-4.959,-4.959,-4.959,-4.9715,-5.077,-5.1172,-5.1373,-4.3318,-4.4424,-4.5529,-4.6493,-4.8749,-5.0446,-5.0428,-5.2132,-5.3365,-5.3365,-5.3365,-5.3416,-5.3564,-5.2958,-5.2428,-5.2043,-5.1682,-5.1273,-5.0744,-5.0696,-5.0696,-5.0696,-5.0837,-5.0884,-5.0884,-5.1049,-5.1119,-5.1119,-5.1306,-5.1446,-5.1446,-5.1656,-5.182,-5.1796,-5.1599,-5.1373,-5.1166,-5.0771,-5.0369,-5.0033,-4.9875,-4.9691,-4.9606,-4.9601,-4.9715,-4.9941,-5.0293,-5.0921,-5.1649,-5.2,-5.2477,-5.2929,-5.2929,-5.2929,-5.2929,-5.2929,-5.2929,-5.2929,-5.2929,-5.2929,-5.2929,-5.2929,-5.2929,-5.2929,-5.2929,-5.2929,-5.2929,-5.2929,-5.2929,-5.2703,-5.1925,-5.18,-5.1423,-5.0293,0.0,-4.9163,-4.8812,-4.8761,-4.8761,-4.8761,-4.9264,-4.959,-4.959,-4.959,-4.959,-4.959,-4.959,-4.959,-4.959,-4.959,-4.959,-4.959,-4.959,-4.959,-4.959,-4.959,-4.959,-4.959,-4.959,-4.959,-4.959,-4.959,-4.959,-4.959,-4.959,-4.959,-4.959,-4.959,-4.959,-4.959,-4.959,-4.959,-4.969,-5.0469,-5.0971,-5.1398,-4.1777,-4.2841,-4.3885,-4.415,-4.6382,-4.8169,-4.8325,-5.0024,-5.133,-5.133,-5.1801,-5.2122,-5.2122,-5.2038,-5.1874,-5.1513,-5.1345,-5.1081,-5.072,-5.0246,-5.0175,-5.0696,-5.0696,-5.0696,-5.0696,-5.0696,-5.0696,-5.0696,-5.0954,-5.1025,-5.1025,-5.133,-5.1471,-5.1471,-5.1275,-5.115,-5.1023,-5.068,-5.0381,-5.01,-5.0023,-4.9785,-4.9438,-4.9461,-4.9516,-4.9591,-5.0272,-5.0847,-5.1464,-5.204,-5.2466,-5.2861,-5.2792,-5.2792,-5.2929,-5.2929,-5.2929,-5.2929,-5.2929,-5.2929,-5.2929,-5.2929,-5.2929,-5.2929,-5.2929,-5.2929,-5.2929,-5.2929,-5.2929,-5.2754,-5.2201,-5.2101,-5.18,-5.0845,-5.0218,-4.9715,-4.9339,-4.9138,-4.9038,-4.9038,-4.9364,-4.959,-4.959,-4.959,-4.959,-4.959,-4.959,-4.959,-4.959,-4.959,-4.959,-4.959,-4.959,-4.959,-4.959,-4.959,-4.959,-4.959,-4.959,-4.959,-4.959,-4.959,-4.959,-4.959,-4.959,-4.959,-4.959,-4.959,-4.959,-4.959,-4.959,-4.969,-4.9916,-5.0494,-5.1046,-5.1624,-4.1719,-4.1465,-4.1426,-4.2266,-4.3452,-4.4437,-4.4894,-4.6433,-4.7488,-4.7488,-4.8877,-4.9876,-4.9876,-5.0809,-5.1489,-5.1489,-5.1008,-5.0696,-5.0696,-4.9198,-4.8982,-5.0625,-5.0696,-5.0696,-5.0696,-5.0696,-5.0696,-5.0696,-5.0696,-5.0696,-5.0696,-5.0696,-5.0696,-5.0672,-5.0119,-5.0377,-5.1138,-5.0093,-5.047,-5.1722,-5.0548,-5.0106,-5.0149,-4.9517,-4.9296,-4.9436,-5.038,-5.106,-5.1607,-5.2178,-5.2654,-5.2861,-5.2515,-5.2654,-5.2929,-5.2861,-5.2861,-5.2929,-5.2929,-5.2929,-5.2929,-5.2929,-5.2929,-5.2929,-5.2929,-5.2929,-5.2929,-5.2929,-5.2929,-5.2754,-5.2201,-5.2126,-5.1925,-5.1373,-5.0795,-5.0419,-5.0419,-4.9941,-4.9615,-4.9615,-4.959,-4.959,-4.959,-4.959,-4.959,-4.959,-4.959,-4.959,-4.959,-4.959,-4.959,-4.959,-4.959,-4.959,-4.959,-4.959,-4.959,-4.959,-4.959,-4.959,-4.959,-4.959,-4.959,-4.959,-4.959,-4.959,-4.959,-4.959,-4.959,-4.959,-4.959,-4.9941,-5.0494,-5.1071,-5.1624,-5.2176,-4.1328,-4.125,-4.125,-4.1504,-4.2786,-4.378,-4.3925,-4.5651,-4.693,-4.693,-4.7383,-4.7684,-4.7684,-4.7634,-4.7563,-4.7563,-4.8473,-4.9054,-4.9054,-4.7485,-4.6824,-4.7338,-4.8381,-4.9509,-5.0696,-5.0696,-5.0696,-5.0696,-5.0696,-5.0696,-5.0696,-5.0696,-5.0503,-5.0119,-5.0359,-5.0381,-5.0328,-5.0331,-5.0377,-5.0443,-5.0381,-5.0108,-4.981,-4.9842,-4.986,-4.9934,-5.0703,-5.0999,-5.122,-5.1763,-5.203,-5.2099,-5.203,-5.2238,-5.2515,-5.2238,-5.2308,-5.2585,-5.2585,-5.2723,-5.2929,-5.2929,-5.2929,-5.2929,-5.2929,-5.2929,-5.2929,-5.2929,-5.2929,-5.2879,-5.2703,-5.2678,-5.2503,-5.195,-5.1724,-5.1473,-5.1071,-5.0519,-5.0167,-5.0167,-4.9841,-4.959,-4.959,-4.959,-4.959,-4.959,-4.959,-4.959,-4.959,-4.959,-4.959,-4.959,-4.959,-4.959,-4.959,-4.959,-4.959,-4.959,-4.959,-4.959,-4.959,-4.959,-4.959,-4.959,-4.959,-4.959,-4.959,-4.959,-4.959,-4.959,-4.959,-4.9941,-5.0494,-5.1071,-5.1624,-5.2176,-4.1172,-4.1172,-4.1172,-4.1172,-4.1985,-4.258,-4.258,-4.3704,-4.4482,-4.4482,-4.5091,-4.5448,-4.5448,-4.5716,-4.5915,-4.5915,-4.6824,-4.7118,-4.6455,-4.5468,-4.4945,-4.4945,-4.5841,-4.7118,-4.8766,-4.8838,-4.8838,-4.8838,-4.8838,-4.8838,-4.8838,-4.9437,-4.944,-4.8944,-4.9487,-4.944,-4.8968,-4.9511,-4.9534,-4.9298,-5.0191,-5.0226,-4.9741,-4.9923,-5.0015,-5.0108,-5.0587,-5.0925,-5.1146,-5.1488,-5.1586,-5.1586,-5.1751,-5.196,-5.2099,-5.189,-5.2099,-5.2377,-5.2377,-5.2654,-5.2929,-5.2929,-5.2929,-5.2929,-5.2929,-5.2929,-5.2929,-5.2929,-5.2929,-5.2929,-5.2929,-5.2929,-5.2829,-5.2477,-5.2251,-5.2,-5.1649,-5.0921,-5.0494,-5.072,-5.0268,-4.9916,-4.9916,-4.9916,-4.9841,-4.9615,-4.959,-4.959,-4.959,-4.959,-4.959,-4.959,-4.959,-4.959,-4.959,-4.959,-4.959,-4.959,-4.959,-4.959,-4.959,-4.959,-4.959,-4.959,-4.959,-4.959,-4.959,-4.959,-4.959,-4.959,-4.959,-5.0067,-5.077,-5.0896,-5.1574,-5.2452,-4.1172,-4.1172,-4.1172,-4.1172,-4.1172,-4.1172,-4.1172,-4.1172,-4.1172,-4.1172,-4.2427,-4.3324,-4.3324,-4.4591,-4.549,-4.549,-4.549,-4.4891,-4.3608,-4.34,-4.3324,-4.3324,-4.3324,-4.3987,-4.549,-4.5788,-4.5915,-4.5915,-4.5915,-4.5915,-4.5915,-4.7411,-4.7794,-4.7291,-4.7794,-4.7748,-4.7314,-4.7816,-4.8118,-4.8453,-4.989,-5.0242,-4.995,-4.995,-4.995,-5.002,-5.0298,-5.0728,-5.1141,-5.1141,-5.1141,-5.1282,-5.1611,-5.1751,-5.1751,-5.1751,-5.196,-5.2283,-5.2283,-5.2585,-5.2792,-5.2792,-5.2861,-5.2861,-5.2861,-5.2929,-5.2929,-5.2929,-5.2929,-5.2929,-5.2929,-5.2929,-5.2929,-5.2929,-5.2503,-5.2176,-5.2176,-5.1247,-5.077,-5.1297,-5.0845,-5.0469,-5.0419,-5.0368,-5.0142,-4.964,-4.959,-4.959,-4.959,-4.959,-4.959,-4.959,-4.959,-4.9615,-4.9665,-4.9615,-4.959,-4.959,-4.959,-4.959,-4.959,-4.959,-4.959,-4.959,-4.959,-4.959,-4.959,-4.959,-4.959,-4.959,-4.959,-5.0243,-5.1147,-5.067,-5.1473,-5.2703,-4.1172,-4.1172,-4.1172,-4.1172,-4.1172,-4.1172,-4.1172,-4.1172,-4.1172,-4.1172,-4.1463,-4.1695,-4.1695,-4.1985,-4.2216,-4.2216,-4.2216,-4.258,-4.3456,-4.235,-4.1695,-4.1695,-4.1695,-4.183,-4.2216,-4.4666,-4.5915,-4.5915,-4.5915,-4.5915,-4.5915,-4.6285,-4.5969,-4.5152,-4.5733,-4.5689,-4.5174,-4.5755,-4.6855,-4.8308,-4.8694,-4.951,-5.0527,-5.0527,-5.0527,-5.0527,-5.0598,-5.0741,-5.0837,-5.0837,-5.0954,-5.1165,-5.0978,-5.1095,-5.1306,-5.1049,-5.1165,-5.1422,-5.1422,-5.1726,-5.203,-5.203,-5.2308,-5.2585,-5.2861,-5.2929,-5.2929,-5.2929,-5.2929,-5.2929,-5.2929,-5.2929,-5.2929,-5.2929,-5.2829,-5.2754,-5.2754,-5.2176,-5.1774,-5.1925,-5.1423,-5.0921,-5.0469,-5.0017,-4.9715,-4.9615,-4.959,-4.959,-4.959,-4.959,-4.959,-4.959,-4.959,-4.9791,-5.0243,-4.9816,-4.959,-4.959,-4.959,-4.959,-4.959,-4.959,-4.959,-4.959,-4.959,-4.959,-4.959,-4.959,-4.959,-4.959,-4.959,-5.0017,-5.0645,-5.0971,-5.1322,-5.1674,-4.1172,-4.1172,-4.1172,-4.1172,-4.1172,-4.1172,-4.1172,-4.1172,-4.1172,-4.1172,-4.1172,-4.1172,-4.1172,-4.1172,-4.1172,-4.1172,-4.1172,-4.154,-4.235,-4.1618,-4.1172,-4.1172,-4.1172,-4.1172,-4.1172,-4.281,-4.3629,-4.3629,-4.3629,-4.3629,-4.3705,-4.444,-4.4337,-4.3677,-4.4241,-4.4103,-4.3699,-4.4241,-4.5029,-4.6063,-4.6824,-4.8091,-4.958,-4.958,-5.0033,-5.0696,-5.0696,-5.0696,-5.0696,-5.0696,-5.0837,-5.0954,-5.0767,-5.0837,-5.0954,-5.0767,-5.0954,-5.1211,-5.1211,-5.1516,-5.182,-5.182,-5.2099,-5.2446,-5.2654,-5.2792,-5.2929,-5.2929,-5.2929,-5.2929,-5.2929,-5.2929,-5.2929,-5.2929,-5.2929,-5.2929,-5.2929,-5.2452,-5.2201,-5.2477,-5.2026,-5.1448,-5.087,-5.0318,-4.9992,-4.9992,-4.9992,-4.9992,-4.9992,-4.9992,-4.9866,-4.9615,-4.959,-4.9866,-5.0419,-5.0117,-4.9992,-4.9992,-4.9715,-4.9741,-4.9967,-4.9715,-4.959,-4.959,-4.959,-4.959,-4.959,-4.959,-4.959,-4.9615,-4.9891,-5.0343,-5.087,-5.1172,-5.1448,-5.1674,-4.1172,-4.1172,-4.1172,-4.1172,-4.1172,-4.1172,-4.1172,-4.1172,-4.1172,-4.1172,-4.1172,-4.1172,-4.1172,-4.1172,-4.1172,-4.1172,-4.1172,-4.1172,-4.1172,-4.1172,-4.1172,-4.1172,-4.1172,-4.1172,-4.1172,-4.1172,-4.1172,-4.1172,-4.1172,-4.1172,-4.125,-4.2503,-4.285,-4.2365,-4.2809,-4.2768,-4.2365,-4.2829,-4.3166,-4.3608,-4.4945,-4.6389,-4.7808,-4.7827,-4.8864,-5.0198,-5.0293,-5.0411,-5.0576,-5.0672,-5.0648,-5.0576,-5.0672,-5.0696,-5.0696,-5.0696,-5.0884,-5.1095,-5.1095,-5.1376,-5.1611,-5.1611,-5.189,-5.2213,-5.2213,-5.2585,-5.2929,-5.2929,-5.2929,-5.2929,-5.2929,-5.2929,-5.2929,-5.2929,-5.2929,-5.2929,-5.2929,-5.2528,-5.2427,-5.2879,-5.2352,-5.1774,-5.1322,-5.067,-5.0268,-5.0268,-5.0268,-5.0268,-5.0268,-5.0368,-5.0167,-4.9615,-4.969,-4.9967,-5.0419,-5.0419,-5.0519,-5.0695,-5.0142,-5.0017,-5.0268,-4.9791,-4.959,-4.959,-4.959,-4.959,-4.959,-4.959,-4.959,-4.964,-5.0193,-5.0645,-5.0996,-5.1096,-5.1599,-5.2176,-4.1172,-4.1172,-4.1172,-4.1172,-4.1172,-4.1172,-4.1172,-4.1172,-4.1172,-4.1172,-4.1172,-4.1172,-4.1172,-4.1172,-4.1172,-4.1172,-4.1172,-4.1172,-4.1172,-4.1172,-4.1172,-4.1172,-4.1172,-4.1172,-4.1172,-4.1172,-4.1172,-4.1172,-4.1172,-4.1172,-4.1172,-4.1385,-4.1227,-4.0813,-4.0873,-4.0873,-4.0813,-4.0873,-4.1931,-4.3532,-4.376,-4.4561,-4.5735,-4.6058,-4.7018,-4.8163,-4.8532,-4.9203,-5.0046,-5.0527,-5.0383,-5.007,-5.0551,-5.0696,-5.0696,-5.0696,-5.0696,-5.0767,-5.0767,-5.0837,-5.0837,-5.0837,-5.1095,-5.1352,-5.1352,-5.2144,-5.2929,-5.2929,-5.2929,-5.2929,-5.2929,-5.2929,-5.2929,-5.2929,-5.2929,-5.2929,-5.2929,-5.2854,-5.2854,-5.2929,-5.2026,-5.1373,-5.1297,-5.0318,-4.9715,-4.9715,-4.9715,-4.9715,-4.9715,-5.0167,-5.0167,-4.9615,-5.0067,-5.0343,-5.0419,-5.0419,-5.0896,-5.1875,-5.1322,-5.0569,-4.9715,-4.9615,-4.959,-4.959,-4.959,-4.959,-4.959,-4.959,-4.959,-4.964,-5.0193,-5.0167,-4.9891,-5.0368,-5.1498,-5.2729,-4.1172,-4.1172,-4.1172,-4.1172,-4.1172,-4.1172,-4.1172,-4.1172,-4.1172,-4.1172,-4.1172,-4.1172,-4.1172,-4.1172,-4.1172,-4.1172,-4.1172,-4.1172,-4.1172,-4.1172,-4.1172,-4.1172,-4.1172,-4.1172,-4.1172,-4.1172,-4.1172,-4.1172,-4.1172,-4.1172,-4.1172,-4.1172,-4.1074,-4.0879,-4.0625,-4.0664,-4.0859,-4.0371,-4.0929,-4.2196,-4.1935,-4.2823,-4.4294,-4.4506,-4.5435,-4.6754,-4.6904,-4.7254,-4.7843,-4.8984,-4.9201,-4.9179,-5.0316,-5.0696,-5.0696,-5.0696,-5.0696,-5.0696,-5.0696,-5.0696,-5.0696,-5.0696,-5.0954,-5.1211,-5.1211,-5.1726,-5.2308,-5.2308,-5.2446,-5.2654,-5.2654,-5.2792,-5.2929,-5.2929,-5.2929,-5.2929,-5.2929,-5.2929,-5.2929,-5.2929,-5.2503,-5.195,-5.1348,-5.082,-5.0393,-5.0067,-5.0067,-5.0067,-5.0067,-5.0293,-5.0167,-4.9615,-4.9841,-5.0117,-5.0419,-5.0419,-5.082,-5.1649,-5.1071,-5.072,-5.0519,-5.0193,-4.9891,-4.959,-4.959,-4.959,-4.959,-4.959,-4.9766,-5.0117,-5.067,-5.1122,-5.1423,-5.1046,-5.1574,-5.2302]}]]